     2.10           OBSERVATION DATA    G (GPS)             RINEX VERSION / TYPE
teqc 2002Mar14 SOPAC 20050725 22:55:54UTC                   PGM / RUN BY / DATE
Linux 2.0.36|Pentium II|gcc -static|Linux|486/DX+           COMMENT
BIT 2 OF LLI FLAGS DATA COLLECTED UNDER A/S CONDITION       COMMENT
V 1201                                                      MARKER NAME
1201                                                        MARKER NUMBER
Dick Roper                                                  OBSERVER / AGENCY
0220158629 TRIMBLE 4700 1.30                                REC # / TYPE / VERS
0220159582 TRM33429.00+GP NONE                              ANT # / TYPE
 -2495030.0000 -4266709.0000  4020923.0000                  APPROX POSITION XYZ
        2.0000        0.0000        0.0000                  ANTENNA: DELTA H/E/N
     1     1                                                WAVELENGTH FACT L1/2
     6    L1    L2    C1    P2    P1    D1                  # / TYPES OF OBSERV
    15.0000                                                 INTERVAL
Northern California Height Modernization 2004               COMMENT
                                                            COMMENT
SOPAC - Scripps Orbit and Permanent Array Center            COMMENT
IGPP - Institute of Geophysics and Planetary Physics        COMMENT
SIO - Scripps Institution of Oceanography                   COMMENT
UCSD - University of California, San Diego                  COMMENT
                                                            COMMENT
email: archive@gpsmail.ucsd.edu                             COMMENT
ftp://garner.ucsd.edu                                       COMMENT
http://sopac.ucsd.edu                                       COMMENT
                                                            COMMENT
                                                            COMMENT
Approximate Lat, Lon : 39.317, -120.318                     COMMENT
                                                            COMMENT
SNR is mapped to RINEX snr flag value [1-9]                 COMMENT
L1: 3 -> 1; 8 -> 5; 40 -> 9                                 COMMENT
L2: 1 -> 1; 5 -> 5; 60 -> 9                                 COMMENT
  2004     9    16    20    45   15.0000000     GPS         TIME OF FIRST OBS
                                                            END OF HEADER
 04  9 16 20 45 15.0000000  0  6G 3G 8G13G19G23G27
      2640.23959     -3299.73957  22849688.7584   22849687.4804
      -225.2034
    -19110.53459    -11368.33657  22645219.0234   22645216.3164
      1615.3594
     10347.44059       327.21058  20205199.2814   20205194.3674
      -895.0004
    -19413.95559    -11473.90457  23539413.4844   23539410.8134
      1639.9844
     38583.06559     10028.30258  21656989.5864   21656984.1724
     -3266.3754
     -5348.42359     -6198.43158  21405322.4534   21405319.1334
       436.4384
 04  9 16 20 45 30.0000000  0  6G 3G 8G13G19G23G27
      6053.71849      -639.85847  22850338.0234   22850336.7304
      -230.5944
    -43353.52549    -30258.97347  22640605.3284   22640603.1094
      1616.4844
     23797.88149     10808.04548  20207758.7664   20207753.9024
      -899.0624
    -44013.88949    -30642.67047  23534732.2664   23534729.5204
      1639.3444
     87590.23449     48215.65648  21666315.1334   21666310.5124
     -3268.5784
    -11908.10249    -11309.87348  21404074.4064   21404071.3134
       437.5314
 04  9 16 20 45 45.0000000  0  6G 3G 8G13G19G23G27
      9573.36049      2102.69447  22851008.5554   22851006.7034
      -239.2974
    -67588.56949    -49143.41447  22635993.5944   22635991.2504
      1614.3284
     37333.70249     21355.42148  20210334.5634   20210330.1484
      -906.3284
    -68579.10949    -49784.33647  23530056.5394   23530054.6454
      1635.3284
    136655.23349     86448.05848  21675651.7194   21675646.5204
     -3274.0624
    -18458.99949    -16414.48248  21402827.7974   21402824.1914
       435.3284
 04  9 16 20 46  0.0000000  0  6G 3G 8G13G19G23G27
     13236.55549      4957.13547  22851705.2344   22851703.8754
      -249.3594
    -91778.38849    -67992.61247  22631390.6174   22631388.6174
      1610.7664
     50992.32949     31998.50848  20212933.9844   20212929.3164
      -915.0164
    -93071.86849    -68869.56547  23525395.6804   23525393.9614
      1630.0944
    185815.17049    124754.47348  21685006.0944   21685001.6684
     -3280.8754
    -24963.78049    -21483.13648  21401589.7424   21401586.4924
       431.7344
 04  9 16 20 46 15.0000000  0  6G 3G 8G13G19G23G27
     17061.60449      7937.69547  22852433.4224   22852431.6884
      -260.5624
   -115904.90349    -86792.46047  22626799.6564   22626797.9264
      1606.1254
     64791.94249     42751.43248  20215559.4534   20215555.1764
      -924.8914
   -117473.73949    -87883.97447  23520753.5554   23520750.1374
      1623.5944
    235087.94249    163148.81048  21694383.3364   21694377.8634
     -3288.8594
    -31404.58749    -26501.95448  21400364.4844   21400361.2704
       427.0474
 04  9 16 20 46 30.0000000  0  6G 3G 8G13G19G23G27
     21065.72049     11057.78247  22853194.6484   22853193.6484
      -273.3284
   -139950.83349   -105529.55147  22622224.4224   22622222.4104
      1599.9064
     78749.80949     53627.68048  20218216.1094   20218211.2194
      -936.2664
   -141767.24849   -106813.94347  23516129.7664   23516127.3914
      1615.4534
    284490.68749    201644.40748  21703784.2584   21703778.9184
     -3298.2664
    -37764.20149    -31457.49648  21399154.0634   21399150.7664
       420.7664
 04  9 16 20 46 45.0000000  0  6G 3G 8G13G19G23G27
     25269.96549     14333.81547  22853995.5784   22853993.7774
      -287.3444
   -163895.40849   -124187.63947  22617667.6484   22617665.7194
      1592.5944
     92886.84149     64643.53448  20220906.0554   20220901.4344
      -948.7194
   -165931.30749   -125643.02847  23511531.1884   23511529.1134
      1606.3444
    334044.02649    240257.36248  21713213.9454   21713208.8324
     -3308.8914
    -44021.73849    -36333.50648  21397963.4614   21397959.9804
       413.4534
 04  9 16 20 47  0.0000000  0  6G 3G 8G13G19G23G27
     29687.10049     17775.76347  22854836.1174   22854834.0314
      -301.9534
   -187725.94949   -142756.89047  22613132.8204   22613130.2774
      1584.5474
    107215.80149     75808.95048  20223632.8364   20223627.9614
      -962.1094
   -189952.81249   -144361.04347  23506960.7194   23506957.8364
      1596.2194
    383760.54549    278997.48148  21722675.0394   21722670.1334
     -3320.2664
    -50164.60949    -41120.15448  21396794.4774   21396790.9774
       405.2814
 04  9 16 20 47 15.0000000  0  6G 3G 8G13G19G23G27
     34322.94049     21388.11447  22855718.5164   22855716.3754
      -316.2504
   -211436.92749   -161232.96047  22608620.8204   22608617.7774
      1576.8444
    121742.37349     87128.35448  20226397.0704   20226392.7704
      -974.9224
   -213825.80249   -162963.31947  23502417.6414   23502414.7154
      1586.6414
    433645.71649    317869.00748  21732167.2344   21732162.5554
     -3331.2194
    -56187.17649    -45813.06148  21395648.3204   21395645.4884
       397.5944
 04  9 16 20 47 30.0000000  0  6G 3G 8G13G19G23G27
     39180.80349     25173.46147  22856642.0944   22856640.5784
      -331.7504
   -235024.98149   -179613.26247  22604132.2344   22604129.4304
      1567.9384
    136469.89849     98604.33248  20229199.7664   20229194.9844
      -989.0164
   -237546.69849   -181447.09347  23497904.0944   23497900.5234
      1575.7664
    483702.57249    356874.30748  21741692.8914   21741687.6174
     -3343.3754
    -62086.35449    -50409.83248  21394525.8914   21394522.2814
       388.6884
 04  9 16 20 47 45.0000000  0  6G 3G 8G13G19G23G27
     44264.92549     29135.12147  22857609.4924   22857607.8444
      -346.5784
   -258485.85649   -197894.42547  22599667.2194   22599664.6994
      1559.7974
    151402.72149    110240.29048  20232041.1174   20232036.4224
     -1002.4374
   -261110.84249   -199808.71047  23493419.8134   23493416.3594
      1565.6414
    533935.36449    396016.70248  21751252.3364   21751246.9144
     -3354.7814
    -67857.86349    -54907.11748  21393427.6724   21393423.5204
       380.4694
 04  9 16 20 48  0.0000000  0  6G 3G 8G13G19G23G27
     49582.35249     33278.58247  22858622.0164   22858619.6214
      -362.1724
   -281812.65749   -216071.13647  22595228.0704   22595225.9574
      1550.8284
    166547.82549    122041.66548  20234923.1954   20234919.2814
     -1016.6094
   -284510.97549   -218042.53947  23488967.6174   23488964.0004
      1554.7194
    584350.74549    435301.38048  21760845.4924   21760840.8954
     -3367.0004
    -73494.61649    -59299.38748  21392354.8364   21392351.8054
       371.4694
 04  9 16 20 48 15.0000000  0  6G 3G 8G13G19G23G27
     55128.09149     37599.95247  22859677.0234   22859675.0124
      -377.3754
   -305010.58849   -234147.44247  22590814.0234   22590811.5004
      1542.2034
    181900.05649    134004.42648  20237844.4694   20237840.2734
     -1030.4224
   -307751.94149   -236152.34147  23484544.1024   23484541.0314
      1544.0634
    634943.38249    474724.18848  21770473.7734   21770468.3634
     -3378.7344
    -79002.07849    -63590.91348  21391306.9224   21391303.4964
       362.8134
 04  9 16 20 48 30.0000000  0  6G 3G 8G13G19G23G27
     60899.63749     42097.24947  22860775.9224   22860773.9574
      -392.2974
   -328082.18849   -252125.31847  22586423.9454   22586420.9694
      1533.8754
    197456.98749    146126.71248  20240805.1254   20240800.4884
     -1043.9534
   -330836.00449   -254139.85347  23480150.7504   23480148.1884
      1533.6564
    685710.60249    514283.01948  21780134.2584   21780128.8634
     -3390.3124
    -84382.77249    -67783.65448  21390283.1174   21390279.2854
       354.4534
 04  9 16 20 48 45.0000000  0  6G 3G 8G13G19G23G27
     66901.86349     46774.31147  22861917.6094   22861916.0354
      -407.9064
   -351022.76649   -270001.07147  22582058.5634   22582055.6254
      1524.9534
    213223.26049    158412.10948  20243805.0164   20243800.6914
     -1058.1094
   -353758.10849   -272001.19947  23475788.5474   23475786.1844
      1522.7194
    736656.83549    553981.34448  21789829.3204   21789823.4534
     -3402.3444
    -89632.14849    -71874.08848  21389283.7974   21389280.2584
       345.5164
 04  9 16 20 49  0.0000000  0  6G 3G 8G13G19G23G27
     73138.60949     51634.13047  22863104.2424   22863102.9304
      -423.5004
   -373828.53349   -287771.78447  22577718.4064   22577716.4414
      1515.9384
    229202.64749    170863.57848  20246845.7034   20246841.5164
     -1072.4224
   -376514.34649   -289733.26747  23471458.5234   23471455.7034
      1511.5314
    787785.68949    593821.97448  21799558.8524   21799553.5904
     -3414.6564
    -94746.36949    -75859.18748  21388311.1334   21388307.5234
       336.4534
 04  9 16 20 49 15.0000000  0  6G 3G 8G13G19G23G27
     79608.07049     56675.25647  22864335.8134   22864333.9494
      -439.0314
   -396501.50349   -305439.01047  22573403.9144   22573401.4774
      1507.1564
    245393.66149    183479.94348  20249927.3674   20249922.9384
     -1086.3914
   -399106.11549   -307337.19147  23467159.7114   23467156.9534
      1500.7034
    839095.29649    633803.45048  21809322.4694   21809317.1134
     -3426.6094
    -99727.32649    -79740.44548  21387363.1484   21387359.5744
       327.6564
 04  9 16 20 49 30.0000000  0  6G 3G 8G13G19G23G27
     86306.96049     61895.19047  22865610.8364   22865608.5124
      -454.1254
   -419044.99449   -323005.35047  22569114.3284   22569111.6174
      1498.6564
    261792.79949    196258.47948  20253047.6254   20253043.1484
     -1100.1094
   -421536.40049   -324815.27447  23462891.6254   23462888.5984
      1490.0784
    890581.96949    673922.91148  21819120.2274   21819114.3984
     -3438.2034
   -104578.56349    -83520.63848  21386440.0634   21386436.6254
       319.1884
 04  9 16 20 49 45.0000000  0  6G 3G 8G13G19G23G27
     93236.90949     67295.14147  22866929.0944   22866927.4224
      -469.6254
   -441457.41449   -340469.57547  22564849.1644   22564846.8594
      1489.8284
    278401.49349    209200.31348  20256208.0864   20256203.9804
     -1114.2034
   -443803.48149   -342166.18847  23458654.2034   23458650.8404
      1479.0474
    942246.95249    714181.29948  21828951.5784   21828946.2734
     -3450.3124
   -109298.51249    -87198.51948  21385541.7814   21385538.5864
       310.2814
 04  9 16 20 50  0.0000000  0  6G 3G 8G13G19G23G27
    100391.13549     72869.87347  22868290.5554   22868288.7504
      -484.3284
   -463745.77149   -357837.09647  22560606.9064   22560604.9384
      1481.9064
    295213.07449    222300.23448  20259407.1954   20259403.1524
     -1127.3754
   -465913.97049   -359395.09747  23454446.5784   23454443.5234
      1468.9064
    994083.24849    754573.18648  21838815.4924   21838810.5784
     -3461.3284
   -113894.17149    -90779.54148  21384666.9924   21384664.2114
       302.3754
 04  9 16 20 50 15.0000000  0  6G 3G 8G13G19G23G27
    107763.91149     78614.90247  22869693.7034   22869691.5234
      -498.6414
   -485915.93549   -375112.52147  22556388.0784   22556385.8794
      1474.2664
    312221.73349    235553.73748  20262643.6724   20262639.7234
     -1140.2344
   -487873.26849   -376506.18647  23450268.6484   23450264.8524
      1459.1254
   1046085.01149    795094.00948  21848711.7424   21848706.2704
     -3472.0944
   -118371.49649    -94268.35748  21383815.1884   21383812.0904
       294.6724
 04  9 16 20 50 30.0000000  0  6G 3G 8G13G19G23G27
    115350.43949     84526.49647  22871137.5704   22871135.3594
      -512.7814
   -507972.67949   -392299.58747  22552191.8754   22552188.3954
      1466.7664
    329422.62849    248957.01648  20265917.0084   20265912.9804
     -1153.0314
   -509685.85349   -393502.94547  23446116.8444   23446114.6334
      1449.3284
   1098247.09449    835739.75548  21858637.0394   21858632.5594
     -3482.6094
   -122735.23149    -97668.67348  21382985.2194   21382981.2774
       287.2194
 04  9 16 20 50 45.0000000  0  6G 3G 8G13G19G23G27
    123145.46749     90600.55347  22872620.1254   22872618.7384
      -526.1724
   -529921.29249   -409402.39147  22548015.3674   22548012.5044
      1460.0314
    346810.63549    262506.10948  20269226.4064   20269221.5704
     -1165.0474
   -531356.74449   -410389.29547  23441993.6484   23441990.1134
      1440.4064
   1150564.13049    876506.24048  21868593.3054   21868587.5554
     -3492.5944
   -126990.70749   -100984.62648  21382175.2814   21382172.0274
       280.4694
 04  9 16 20 51  0.0000000  0  6G 3G 8G13G19G23G27
    131139.43849     96829.62547  22874141.4614   22874139.4024
      -539.6724
   -551771.52649   -426428.54047  22543857.1804   22543854.7114
      1453.3134
    364376.13849    276193.50448  20272568.9694   20272564.3094
     -1177.0474
   -552895.29849   -427172.53447  23437894.2664   23437891.2704
      1431.2974
   1203026.11849    917385.68548  21878576.4774   21878570.5234
     -3502.3594
   -131147.64049   -104223.79548  21381383.6724   21381380.8444
       273.7344
 04  9 16 20 51 15.0000000  0  6G 3G 8G13G19G23G27
    139329.96549    103211.87147  22875700.2114   22875698.2274
      -552.6874
   -573526.05049   -443380.10547  22539717.4774   22539714.5354
      1447.1094
    382116.47149    290017.13448  20275944.8834   20275940.2194
     -1188.4844
   -574303.81449   -443854.42547  23433820.5314   23433817.5824
      1422.8914
   1255630.43849    958376.02648  21888586.5784   21888581.3524
     -3511.6564
   -135208.68549   -107388.23948  21380611.0394   21380607.9264
       267.5634
 04  9 16 20 51 30.0000000  0  6G 3G 8G13G19G23G27
    147716.10549    109746.52847  22877295.9304   22877293.9224
      -565.4694
   -595185.87149   -460257.86547  22535595.8754   22535593.0434
      1440.9844
    400030.80649    303976.35148  20279353.4224   20279348.9494
     -1200.0004
   -595582.89349   -460435.48147  23429771.2894   23429768.4344
      1414.3914
   1308375.87049    999476.32448  21898623.6724   21898618.4184
     -3520.8914
   -139174.86549   -110478.77648  21379856.4224   21379852.7894
       261.3444
 04  9 16 20 51 45.0000000  0  6G 3G 8G13G19G23G27
    156288.93849    116426.68347  22878927.0554   22878925.6884
      -577.7504
   -616759.70049   -477068.62247  22531490.0164   22531487.8054
      1435.4224
    418110.26649    318064.22748  20282793.9064   20282789.4964
     -1210.7664
   -616741.24549   -476922.45347  23425744.1954   23425742.1484
      1406.6254
   1361253.37849   1040679.54148  21908686.0234   21908680.4344
     -3529.5474
   -143055.25549   -113502.44648  21379117.8594   21379114.8404
       255.8754
 04  9 16 20 52  0.0000000  0  6G 3G 8G13G19G23G27
    165047.51049    123251.54447  22880593.5474   22880592.2464
      -589.9064
   -638248.53549   -493813.15547  22527400.4924   22527398.5704
      1429.8914
    436353.84149    332279.99448  20286265.6954   20286261.2664
     -1221.6254
   -637779.39049   -493315.74147  23421741.5164   23421738.3754
      1398.6094
   1414261.72049   1081984.71748  21918773.7814   21918767.8594
     -3538.1724
   -146850.75849   -116459.97548  21378395.7194   21378392.4264
       250.3284
 04  9 16 20 52 15.0000000  0  6G 3G 8G13G19G23G27
    173992.63849    130221.78247  22882296.5084   22882294.5274
      -602.4224
   -659651.82749   -510491.03747  22523328.1414   22523325.8404
      1424.1254
    454762.27849    346624.22748  20289768.8594   20289764.2854
     -1232.5944
   -658696.45649   -509614.70147  23417760.9144   23417757.8914
      1390.5474
   1467401.45849   1123392.25848  21928885.3054   21928880.3134
     -3546.9224
   -150560.75249   -119350.87748  21377689.9144   21377686.4024
       244.5474
 04  9 16 20 52 30.0000000  0  6G 3G 8G13G19G23G27
    183117.01149    137331.71247  22884032.5164   22884031.0124
      -614.3914
   -680977.05149   -527108.07447  22519269.9534   22519267.2234
      1418.8914
    473328.20049    361091.17348  20293301.7974   20293297.3554
     -1243.1094
   -679499.51849   -525824.83347  23413802.8754   23413799.6804
      1382.9844
   1520664.91049   1164896.21248  21939020.9454   21939015.8014
     -3555.0784
   -154192.74349   -122181.00148  21376998.8364   21376995.5394
       239.4844
 04  9 16 20 52 45.0000000  0  6G 3G 8G13G19G23G27
    192423.75649    144583.71347  22885803.8834   22885801.5864
      -626.7034
   -702221.20149   -543661.94547  22515227.6884   22515224.9774
      1413.3594
    492054.74249    375683.27048  20296865.3914   20296860.6294
     -1254.0164
   -700185.20649   -541943.49447  23409865.5554   23409862.5554
      1375.0004
   1574055.01649   1206498.85748  21949181.2344   21949176.0634
     -3563.6874
   -157743.69149   -124947.96648  21376322.7814   21376319.6134
       233.9064
 04  9 16 20 53  0.0000000  0  6G 3G 8G13G19G23G27
    201908.82349    151974.67247  22887608.7344   22887606.3324
      -638.1254
   -723388.29149   -560155.76847  22511199.1564   22511196.4614
      1408.6254
    510937.83349    390397.37748  20300458.5634   20300454.4844
     -1264.0164
   -720757.16849   -557973.53347  23405950.6094   23405947.8754
      1367.7194
   1627567.49849   1248196.85548  21959364.1644   21959358.8594
     -3571.5314
   -161217.78549   -127655.05348  21375661.9694   21375658.3754
       229.1414
 04  9 16 20 53 15.0000000  0  6G 3G 8G13G19G23G27
    211571.93549    159504.38247  22889447.6094   22889445.2304
      -649.8914
   -744478.58649   -576589.74647  22507185.5164   22507182.8834
      1403.7034
    529977.04649    405233.11448  20304081.4064   20304077.1804
     -1274.2814
   -741215.57749   -573915.08847  23402058.0164   23402054.7304
      1360.3754
   1681201.67249   1289989.68048  21969570.6644   21969565.5664
     -3579.3914
   -164615.40149   -130302.54348  21375015.2814   21375011.7074
       224.2034
 04  9 16 20 53 30.0000000  0  6G 3G 8G13G19G23G27
    221407.59749    167168.53547  22891319.3204   22891316.9494
      -661.8594
   -765497.58649   -592968.17347  22503185.6724   22503183.1684
      1398.5004
    549167.19149    420186.45448  20307733.4534   20307728.8324
     -1284.8124
   -761565.52149   -589772.14847  23398185.3754   23398182.2234
      1352.6254
   1734952.11749   1331873.09448  21979798.3364   21979793.8404
     -3587.6414
   -167941.99449   -132894.70348  21374382.3594   21374378.7424
       219.0314
 04  9 16 20 53 45.0000000  0  6G 3G 8G13G19G23G27
    231416.94749    174968.05247  22893223.4144   22893221.7194
      -673.1094
   -786444.45549   -609290.37147  22499200.0084   22499197.1134
      1394.0164
    568509.09849    435258.07648  20311413.8674   20311409.8054
     -1294.5314
   -781805.69549   -605543.66047  23394333.5864   23394330.4924
      1345.7034
   1788819.56849   1373847.71448  21990049.7194   21990044.3524
     -3595.0474
   -171196.67149   -135430.79748  21373762.7114   21373759.7424
       214.4844
 04  9 16 20 54  0.0000000  0  6G 3G 8G13G19G23G27
    241600.10749    182902.96747  22895161.5474   22895159.4574
      -684.4844
   -807319.34149   -625556.52347  22495227.5554   22495224.4924
      1389.4384
    588003.02949    450448.14148  20315123.4924   20315119.4844
     -1304.5004
   -801935.79349   -621229.38647  23390502.5314   23390499.5594
      1338.4224
   1842803.95449   1415913.42948  22000322.2114   22000317.4964
     -3602.6564
   -174379.33049   -137910.79348  21373157.1174   21373153.8244
       209.9694
 04  9 16 20 54 15.0000000  0  6G 3G 8G13G19G23G27
    251955.15349    190971.83547  22897132.0004   22897130.1644
      -696.1874
   -828123.83749   -641767.79547  22491268.5864   22491265.5944
      1384.5474
    607646.89549    465755.04248  20318861.3984   20318856.9344
     -1314.6874
   -821957.45049   -636830.60447  23386693.2344   23386690.1214
      1331.0164
   1896902.99849   1458068.49148  22010616.9774   22010612.0164
     -3610.5004
   -177492.09649   -140336.31848  21372564.6174   21372561.3674
       205.0944
 04  9 16 20 54 30.0000000  0  6G 3G 8G13G19G23G27
    262484.32049    199176.39547  22899136.3364   22899133.5164
      -707.7814
   -848855.90349   -657922.65347  22487323.4774   22487320.9804
      1379.6724
    627443.10349    481180.65248  20322629.1804   20322624.4964
     -1324.9224
   -841868.04549   -652345.31447  23382903.9064   23382900.7344
      1323.5944
   1951118.80649   1500314.53248  22020934.6174   22020928.9654
     -3618.3284
   -180532.69849   -142705.62548  21371986.2034   21371982.7624
       200.2814
 04  9 16 20 54 45.0000000  0  6G 3G 8G13G19G23G27
    273187.37249    207516.42247  22901172.5234   22901170.6914
      -719.1564
   -869515.80649   -674021.24747  22483391.9224   22483389.9104
      1375.0944
    647391.37549    496724.75548  20326424.9064   20326420.5004
     -1334.7664
   -861667.68449   -667773.56447  23379136.7114   23379133.3364
      1316.4064
   2005450.96849   1542651.24848  22031272.8524   22031267.9344
     -3625.9694
   -183501.56149   -145019.02148  21371420.8284   21371417.6644
       195.7034
 04  9 16 20 55  0.0000000  0  6G 3G 8G13G19G23G27
    284059.80649    215988.45947  22903241.2344   22903239.1724
      -730.4694
   -890108.27549   -690067.30647  22479472.8134   22479471.0164
      1370.6724
    667487.27449    512383.89348  20330248.9614   20330244.8874
     -1344.6564
   -881360.62349   -683118.65247  23375388.9924   23375385.6334
      1309.2814
   2059894.50849   1585074.74948  22041633.4614   22041628.3484
     -3633.3284
   -186403.38949   -147280.18348  21370868.9144   21370865.6994
       191.2194
 04  9 16 20 55 15.0000000  0  6G 3G 8G13G19G23G27
    295099.80849    224591.05947  22905342.8444   22905340.2154
      -741.5624
   -910635.02249   -706062.15047  22475567.1094   22475564.5704
      1366.2974
    687728.67549    528156.39848  20334100.6174   20334096.2774
     -1354.2034
   -900948.41049   -698381.81347  23371660.5784   23371657.9384
      1302.3284
   2114447.36349   1627583.42048  22052014.1804   22052009.2194
     -3640.4224
   -189240.01549   -149490.54648  21370328.9224   21370325.7854
       187.0314
 04  9 16 20 55 30.0000000  0  6G 3G 8G13G19G23G27
    306306.63249    233323.64747  22907474.4534   22907472.6914
      -752.7664
   -931097.11149   -722006.61947  22471673.7424   22471670.8404
      1361.9064
    708114.70649    544041.62048  20337980.1334   20337975.4574
     -1364.0314
   -920431.56449   -713563.45547  23367953.9144   23367950.5234
      1295.2814
   2169108.58849   1670176.56948  22062416.1954   22062411.4384
     -3647.7034
   -192012.37049   -151650.81248  21369801.6644   21369798.6174
       182.5944
 04  9 16 20 55 45.0000000  0  6G 3G 8G13G19G23G27
    317682.97949    242188.33947  22909639.8524   22909637.5514
      -763.6874
   -951491.72349   -737898.51947  22467792.2274   22467789.4574
      1357.7034
    728648.26149    560041.78348  20341887.2664   20341882.9494
     -1373.5314
   -939807.03249   -728661.15047  23364266.7504   23364263.8134
      1288.3444
   2223880.86149   1712856.22048  22072839.5234   22072833.8914
     -3654.9064
   -194717.64049   -153758.81048  21369286.7504   21369283.9454
       178.4534
 04  9 16 20 56  0.0000000  0  6G 3G 8G13G19G23G27
    329226.63849    251183.39547  22911836.2504   22911834.5984
      -775.1254
   -971821.24549   -753739.68647  22463923.8444   22463921.1764
      1353.1724
    749327.03849    576155.11348  20345822.4694   20345818.2424
     -1383.4224
   -959076.78349   -743676.49547  23360599.4144   23360596.5554
      1281.0944
   2278761.53249   1755620.33848  22083282.8674   22083277.3484
     -3662.2974
   -197358.22949   -155816.41648  21368784.3134   21368780.5514
       173.8444
 04  9 16 20 56 15.0000000  0  6G 3G 8G13G19G23G27
    340936.05049    260307.60747  22914064.8914   22914062.8244
      -786.1254
   -992087.08049   -769531.23747  22460066.9924   22460064.8754
      1349.0164
    770149.63449    592380.51448  20349784.8674   20349780.9734
     -1392.9534
   -978242.16549   -758610.52047  23356952.4614   23356949.7584
      1274.2664
   2333748.88249   1798467.59048  22093746.6484   22093741.8404
     -3669.3284
   -199935.68249   -157824.82048  21368294.0784   21368290.4534
       169.7974
 04  9 16 20 56 30.0000000  0  6G 3G 8G13G19G23G27
    352813.31449    269562.61347  22916324.5704   22916322.6374
      -797.1414
  -1012287.10749   -785271.48147  22456223.0474   22456220.4614
      1344.6884
    791118.06349    608719.53948  20353775.4694   20353770.5204
     -1402.5784
   -997300.82149   -773461.37947  23353326.3364   23353322.5204
      1267.2034
   2388844.80849   1841399.43548  22104230.5554   22104225.8984
     -3676.4224
   -202448.13249   -159782.56848  21367816.0164   21367812.7584
       165.5634
 04  9 16 20 56 45.0000000  0  6G 3G 8G13G19G23G27
    364859.67149    278949.38547  22918616.0554   22918615.0084
      -809.0314
  -1032420.48649   -800959.82047  22452391.7974   22452389.6094
      1339.6564
    812233.54949    625173.16348  20357793.3204   20357788.5274
     -1412.9374
  -1016251.17049   -788227.83147  23349719.9304   23349716.5824
      1259.4064
   2444050.27449   1884416.65048  22114735.6254   22114730.9414
     -3684.2974
   -204894.39549   -161688.74348  21367350.2114   21367347.1134
       160.5944
 04  9 16 20 57  0.0000000  0  6G 3G 8G13G19G23G27
    377072.31549    288465.73247  22920940.9614   22920938.9734
      -819.8124
  -1052489.94749   -816598.35547  22448572.6094   22448570.0234
      1335.7034
    833493.20249    641739.11248  20361838.9144   20361834.6294
     -1422.2194
  -1035095.86349   -802911.97947  23346133.6414   23346129.9884
      1252.6414
   2499362.01649   1927516.67248  22125261.4304   22125256.8754
     -3691.1414
   -207277.47249   -163545.68448  21366896.5004   21366893.1414
       156.6564
 04  9 16 20 57 15.0000000  0  6G 3G 8G13G19G23G27
    389450.58449    298111.12447  22923296.5944   22923294.4454
      -830.8284
  -1072496.27649   -832187.69247  22444765.8204   22444763.0554
      1331.5944
    854896.40949    658416.93148  20365911.6644   20365907.4884
     -1431.6874
  -1053835.23249   -817514.04447  23342567.9454   23342564.4494
      1245.6884
   2554779.35749   1970698.98248  22135806.9384   22135802.1414
     -3698.0314
   -209597.98549   -165353.87848  21366455.4144   21366451.9534
       152.5944
 04  9 16 20 57 30.0000000  0  6G 3G 8G13G19G23G27
    401991.51849    307883.28447  22925682.7274   22925681.3554
      -841.3914
  -1092442.41549   -847730.11547  22440969.9224   22440967.8634
      1327.8754
    876440.15749    675204.26448  20370011.1094   20370007.1484
     -1440.7974
  -1072471.99049   -832036.14347  23339020.7814   23339017.8204
      1239.1724
   2610299.12849   2013961.10648  22146371.9694   22146367.2194
     -3704.5944
   -211858.98149   -167115.68648  21366024.9224   21366022.0594
       148.8134
 04  9 16 20 57 45.0000000  0  6G 3G 8G13G19G23G27
    414698.31649    317784.68347  22928100.7504   22928099.2074
      -852.4374
  -1112325.16549   -863223.14848  22437186.6644   22437184.2624
      1323.5004
    898127.52049    692103.50248  20374138.6564   20374133.9024
     -1450.4374
  -1091002.69549   -846475.60547  23335494.7034   23335491.6054
      1231.9534
   2665924.23949   2057305.32948  22156957.9614   22156952.2664
     -3711.6724
   -214057.35849   -168828.70248  21365606.9224   21365603.0124
       144.6884
 04  9 16 20 58  0.0000000  0  6G 3G 8G13G19G23G27
    427567.67849    327812.74047  22930549.8914   22930548.2624
      -863.1414
  -1132147.78149   -878669.32548  22433415.3284   22433412.2424
      1319.8134
    919955.31349    709112.16048  20378291.9534   20378287.5354
     -1459.5944
  -1109430.23149   -860834.68347  23331988.3364   23331985.0594
      1225.3444
   2721651.26249   2100728.93548  22167561.3134   22167557.3014
     -3718.3594
   -216196.44849   -170495.52648  21365199.7664   21365195.9224
       140.8444
 04  9 16 20 58 15.0000000  0  6G 3G 8G13G19G23G27
    440602.14349    337969.46747  22933030.2894   22933028.0824
      -874.3594
  -1151908.21649   -894067.05447  22429654.7424   22429652.1564
      1315.3444
    941926.12649    726232.27248  20382473.3364   20382468.7504
     -1469.4224
  -1127751.92749   -875111.28047  23328501.6174   23328498.4184
      1217.9534
   2777482.32849   2144233.63548  22178185.8134   22178180.9384
     -3725.5624
   -218273.81949   -172114.25248  21364804.4694   21364800.7194
       136.4384
 04  9 16 20 58 30.0000000  0  6G 3G 8G13G19G23G27
    453797.57349    348251.60447  22935541.4304   22935539.2424
      -885.0944
  -1171610.27249   -909419.27847  22425904.7344   22425902.6454
      1311.3134
    964035.82149    743460.60048  20386680.2114   20386675.8674
     -1478.7034
  -1145971.60749   -889308.41047  23325034.7344   23325031.1524
      1211.1094
   2833413.16049   2187816.06948  22188829.5474   22188824.6524
     -3732.1724
   -220293.72349   -173688.19048  21364419.8524   21364416.4534
       132.5944
 04  9 16 20 58 45.0000000  0  6G 3G 8G13G19G23G27
    467157.09849    358661.61747  22938083.3284   22938081.7704
      -896.0474
  -1191250.91849   -924723.65247  22422167.2974   22422165.2384
      1307.4694
    986287.38949    760799.47648  20390914.5554   20390910.4964
     -1488.0784
  -1164085.97149   -903423.47247  23321588.4454   23321584.4184
      1204.2034
   2889446.61749   2231478.46348  22199492.1024   22199487.6954
     -3738.7974
   -222253.15549   -175215.02048  21364046.8984   21364043.8284
       128.7814
 04  9 16 20 59  0.0000000  0  6G 3G 8G13G19G23G27
    480680.88849    369199.61647  22940657.7894   22940655.4384
      -907.1414
  -1210830.07849   -939980.12347  22418441.6804   22418439.2304
      1303.1094
   1008681.00449    778249.04248  20395176.2114   20395171.5084
     -1497.7344
  -1182094.48749   -917456.03747  23318160.3594   23318157.2034
      1196.9064
   2945582.69749   2275220.80948  22210174.5394   22210169.9064
     -3745.9374
   -224151.86649   -176694.53248  21363685.7814   21363682.6724
       124.4534
 04  9 16 20 59 15.0000000  0  6G 3G 8G13G19G23G27
    494367.36649    379864.39647  22943262.2274   22943259.3444
      -917.7194
  -1230349.37049   -955189.96247  22414727.6174   22414724.7114
      1299.4384
   1031215.00449    795807.99348  20399464.1804   20399459.5864
     -1506.7814
  -1199998.46049   -931407.15347  23314754.0164   23314749.6174
      1190.2034
   3001819.54549   2319041.69148  22220876.1644   22220871.6374
     -3752.3754
   -225991.67749   -178128.14848  21363335.6644   21363332.4884
       120.7974
 04  9 16 20 59 30.0000000  0  6G 3G 8G13G19G23G27
    508211.24349    390651.82347  22945896.2894   22945894.3364
      -928.2194
  -1249814.12149   -970357.29247  22411023.3674   22411020.5554
      1295.8134
   1053884.17049    813472.26848  20403777.7344   20403773.6174
     -1515.7814
  -1217802.87549   -945280.68747  23311364.9064   23311361.5984
      1183.6414
   3058151.59449   2362936.75548  22231595.6414   22231591.4614
     -3758.6414
   -227777.74449   -179519.88148  21362995.7894   21362992.2194
       117.2344
 04  9 16 20 59 45.0000000  0  6G 3G 8G13G19G23G27
    522216.15749    401564.72947  22948560.7504   22948559.2504
      -939.0004
  -1269220.73349   -985479.32047  22407330.3984   22407327.8794
      1291.8914
   1076692.17349    831244.72348  20408117.9144   20408113.5234
     -1525.1254
  -1235503.84249   -959073.61347  23307997.2274   23307993.4804
      1176.6414
   3114582.37549   2406908.75548  22242334.5314   22242329.5514
     -3765.2504
   -229506.66149   -180867.08248  21362666.9454   21362663.7384
       113.3914
 04  9 16 21  0  0.0000000  0  6G 3G 8G13G19G23G27
    536383.01449    412603.84247  22951257.1334   22951255.0514
      -949.7344
  -1288568.33649  -1000555.34647  22403649.0634   22403645.7504
      1287.9384
   1099639.92849    849126.09748  20412484.9064   20412480.6524
     -1534.4224
  -1253100.22449   -972785.02647  23304648.5704   23304645.0594
      1169.6724
   3171112.48049   2450958.15148  22253091.4694   22253087.0354
     -3771.9534
   -231177.38149   -182168.92848  21362348.5004   21362345.5204
       109.5634
 04  9 16 21  0 15.0000000  0  6G 3G 8G13G19G23G27
    550710.58849    423768.16947  22953983.4144   22953981.3284
      -960.2664
  -1307857.95549  -1015586.20947  22399978.2344   22399974.9144
      1284.3444
   1122726.20249    867115.37548  20416877.9694   20416873.6914
     -1543.4844
  -1270592.87449   -986415.66647  23301320.3984   23301316.0474
      1163.0634
   3227740.61549   2495083.93648  22263868.3754   22263863.0434
     -3778.1874
   -232791.31149   -183426.54648  21362041.6174   21362038.3134
       105.9844
 04  9 16 21  0 30.0010000  0  6G 3G 8G13G19G23G27
    565200.66849    435059.12447  22956740.4664   22956738.7674
      -971.1564
  -1327090.25949  -1030572.40547  22396318.0524   22396315.4274
      1280.2504
   1145953.44349    885214.52448  20421298.1534   20421293.8214
     -1552.8754
  -1287981.81249   -999965.42747  23298010.6384   23298007.3214
      1155.8914
   3284471.16049   2539289.52348  22274663.3804   22274658.3684
     -3784.9374
   -234347.63749   -184639.25748  21361745.2784   21361742.4664
       101.9224
 04  9 16 21  0 45.0010000  0  6G 3G 8G13G19G23G27
    579849.99949    446474.18647  22959528.5674   22959526.1034
      -982.0784
  -1346264.18449  -1045513.11147  22392669.4584   22392666.5994
      1276.2974
   1169317.08449    903419.94948  20425744.7634   20425740.2474
     -1562.2974
  -1305265.83149  -1013433.47647  23294723.1464   23294718.2554
      1148.7194
   3341294.85049   2583567.65748  22285476.0604   22285471.9854
     -3791.5624
   -235847.77549   -185808.19948  21361459.8804   21361456.6964
        98.0944
 04  9 16 21  1  0.0010000  0  6G 3G 8G13G19G23G27
    594657.77449    458012.70047  22962346.2474   22962344.2284
      -992.2814
  -1365382.78849  -1060410.71947  22389031.4354   22389028.6494
      1272.8284
   1192816.79249    921731.40848  20430216.1854   20430211.5914
     -1571.0784
  -1322447.70849  -1026821.90547  23291451.4744   23291448.4154
      1142.2344
   3398213.56649   2627919.87548  22296307.4114   22296302.8604
     -3797.6094
   -237293.64649   -186934.84148  21361184.8254   21361181.2824
        94.6884
 04  9 16 21  1 15.0010000  0  6G 3G 8G13G19G23G27
    609626.65649    469676.75947  22965194.7164   22965192.9664
     -1003.4224
  -1384443.44549  -1075263.16047  22385404.1534   22385402.4074
      1268.6884
   1216455.29849    940151.01748  20434714.3884   20434710.0524
     -1580.7814
  -1339524.36949  -1040128.35747  23288202.5214   23288198.7514
      1134.7814
   3455229.66649   2672347.97448  22307157.3644   22307152.7124
     -3804.5784
   -238682.47349   -188017.04348  21360920.9584   21360917.6774
        90.5164
 04  9 16 21  1 30.0010000  0  6G 3G 8G13G19G23G27
    624758.10449    481467.48247  22968073.8564   22968072.9354
     -1014.2504
  -1403444.64849  -1090069.27347  22381788.5054   22381785.4354
      1264.7344
   1240234.19249    958680.01648  20439239.2084   20439234.6534
     -1590.0474
  -1356494.14749  -1053351.53947  23284972.2394   23284970.0054
      1127.7974
   3512344.43349   2716852.94348  22318025.6224   22318021.7824
     -3811.0314
   -240012.96449   -189053.79048  21360667.5444   21360663.9194
        86.6884
 04  9 16 21  1 45.0010000  0  6G 3G 8G13G19G23G27
    640049.48649    493382.83947  22970984.2554   22970982.4354
     -1024.6874
  -1422389.12949  -1104831.20247  22378183.7474   22378180.9274
      1261.1254
   1264150.69649    977316.24048  20443790.5364   20443785.8644
     -1598.9064
  -1373359.34749  -1066493.20947  23281763.6304   23281760.3994
      1120.9844
   3569555.00149   2761432.56548  22328912.9424   22328908.2434
     -3817.1254
   -241287.90349   -190047.23648  21360424.5524   21360421.6464
        83.1724
 04  9 16 21  2  0.0010000  0  6G 3G 8G13G19G23G27
    655502.32449    505424.00447  22973924.6924   22973922.9934
     -1035.6414
  -1441275.28449  -1119547.68147  22374589.2394   22374586.5994
      1257.1094
   1288206.42049    996060.95448  20448368.1534   20448363.4664
     -1608.4224
  -1390118.16449  -1079552.00547  23278574.6144   23278571.5674
      1113.7194
   3626862.66749   2806087.83948  22339818.1534   22339813.9704
     -3823.7814
   -242505.67549   -190996.14848  21360193.1534   21360189.6304
        79.1414
 04  9 16 21  2 15.0010000  0  6G 3G 8G13G19G23G27
    671117.55849    517591.70747  22976896.3644   22976894.1884
     -1046.5004
  -1460102.20049  -1134217.98847  22371006.9034   22371003.7394
      1253.1254
   1312402.25349   1014914.84448  20452972.5284   20452968.1464
     -1617.7814
  -1406769.38749  -1092526.93647  23275406.0214   23275402.6924
      1106.4694
   3684268.20049   2850819.38548  22350742.4194   22350737.8924
     -3830.3444
   -243665.42449   -191899.83948  21359972.1694   21359968.9744
        75.3134
 04  9 16 21  2 30.0010000  0  6G 3G 8G13G19G23G27
    686894.24549    529885.23347  22979898.6464   22979896.5714
     -1057.2344
  -1478870.71549  -1148842.78247  22367434.9424   22367432.4194
      1249.1884
   1336737.35449   1033877.24748  20457603.0134   20457598.7314
     -1627.0474
  -1423313.53649  -1105418.46347  23272257.1224   23272254.3334
      1099.2504
   3741770.45849   2895626.30448  22361685.1304   22361679.6424
     -3836.7974
   -244768.06249   -192759.03148  21359762.5604   21359758.8334
        71.4844
 04  9 16 21  2 45.0010000  0  6G 3G 8G13G19G23G27
    702832.39549    542304.55647  22982931.0674   22982929.3534
     -1067.9064
  -1497580.93749  -1163422.16348  22363874.3254   22363871.5994
      1245.4064
   1361211.49349   1052948.00648  20462260.3644   20462256.4384
     -1636.2504
  -1439750.48049  -1118226.44047  23269128.8564   23269126.4274
      1092.1884
   3799369.16149   2940508.37148  22372645.6534   22372641.1494
     -3843.1724
   -245813.72949   -193573.83148  21359563.6064   21359560.2784
        67.8134
 04  9 16 21  3  0.0010000  0  6G 3G 8G13G19G23G27
    718929.54749    554847.80347  22985994.7394   22985992.7284
     -1078.3754
  -1516235.43549  -1177958.13447  22360324.9974   22360321.9934
      1241.7974
   1385822.43249   1072125.35348  20466944.0054   20466939.5014
     -1645.2034
  -1456082.21449  -1130952.42647  23266022.6774   23266018.8414
      1085.2814
   3857061.83849   2985463.66348  22383623.7944   22383619.7594
     -3849.3124
   -246804.71349   -194346.02048  21359374.8644   21359371.6304
        64.2664
 04  9 16 21  3 15.0010000  0  6G 3G 8G13G19G23G27
    735190.91449    567518.98247  22989088.2164   22989087.2864
     -1089.5624
  -1534829.06349  -1192446.65847  22356786.4894   22356783.6814
      1237.4694
   1410575.25649   1091413.25848  20471654.2474   20471649.5564
     -1655.0164
  -1472303.20349  -1143592.11547  23262934.7784   23262932.0874
      1077.6414
   3914853.43749   3030496.03348  22394621.0054   22394616.7714
     -3856.1254
   -247736.01949   -195071.71348  21359197.9664   21359194.4814
        60.0314
 04  9 16 21  3 30.0010000  0  6G 3G 8G13G19G23G27
    751608.52249    580311.93247  22992212.6144   22992211.7164
     -1099.7034
  -1553369.53849  -1206893.77047  22353258.4664   22353255.5994
      1234.3284
   1435462.15349   1110805.63948  20476389.9354   20476385.2634
     -1663.6254
  -1488421.24749  -1156151.60547  23259868.4114   23259864.6654
      1071.1414
   3972735.70849   3075599.05848  22405636.1854   22405631.8534
     -3861.8754
   -248615.52749   -195757.04348  21359030.7394   21359026.9784
        56.8914
 04  9 16 21  3 45.0010000  0  6G 3G 8G13G19G23G27
    768184.69749    593228.43647  22995367.5754   22995365.8644
     -1110.5314
  -1571854.84149  -1221297.90747  22349740.9584   22349738.2394
      1230.3914
   1460485.43849   1130304.29948  20481151.5284   20481147.9384
     -1672.9224
  -1504433.80249  -1168628.87847  23256821.4424   23256817.2784
      1063.8134
   4030710.70249   3120774.34648  22416668.9974   22416663.4624
     -3868.1874
   -249441.06049   -196400.30448  21358873.8024   21358870.0444
        53.1094
 04  9 16 21  4  0.0010000  0  6G 3G 8G13G19G23G27
    784921.24449    606269.90447  22998551.7474   22998550.3684
     -1121.1254
  -1590283.00949  -1235657.50047  22346234.1304   22346231.5914
      1226.6884
   1485646.86849   1149910.60048  20485939.8644   20485935.2244
     -1682.0004
  -1520338.68449  -1181022.26747  23253794.5364   23253790.4424
      1056.7194
   4088780.12749   3166023.19648  22427718.7394   22427714.0284
     -3874.3914
   -250210.79449   -197000.09748  21358726.8804   21358723.8684
        49.4844
 04  9 16 21  4 15.0010000  0  6G 3G 8G13G19G23G27
    801816.03449    619434.66947  23001767.2244   23001765.2124
     -1131.6254
  -1608656.18549  -1249974.24347  22342737.4814   22342734.9704
      1223.1254
   1510944.15449   1169622.76248  20490753.4354   20490749.2124
     -1690.9064
  -1536137.70549  -1193333.16147  23250787.5284   23250784.2394
      1049.8444
   4146941.57949   3211343.76448  22438785.6774   22438781.9114
     -3880.5004
   -250926.88549   -197558.08348  21358590.3724   21358586.8494
        45.9534
 04  9 16 21  4 30.0010000  0  6G 3G 8G13G19G23G27
    818869.38849    632722.99947  23005012.4744   23005010.2904
     -1142.4064
  -1626973.88249  -1264247.76248  22339252.2864   22339249.4234
      1219.1564
   1536377.84549   1189441.21448  20495593.6774   20495588.9314
     -1700.2974
  -1551830.28349  -1205561.10147  23247801.4584   23247798.3134
      1042.3754
   4205195.13749   3256736.10848  22449871.5364   22449867.0714
     -3886.8124
   -251589.02949   -198074.02648  21358464.8104   21358461.0674
        42.1564
 04  9 16 21  4 45.0010000  0  6G 3G 8G13G19G23G27
    836083.05049    646136.24447  23008287.7164   23008285.5214
     -1152.9224
  -1645234.43949  -1278476.75147  22335777.3024   22335774.6304
      1215.5474
   1561949.59449   1209367.24348  20500459.9114   20500455.3964
     -1709.3594
  -1567414.46449  -1217704.56547  23244835.5994   23244831.9664
      1035.2664
   4263542.40449   3302201.46948  22460974.9744   22460970.3684
     -3892.9224
   -252195.61649   -198546.70648  21358349.1694   21358345.4814
        38.6414
 04  9 16 21  5  0.0010000  0  6G 3G 8G13G19G23G27
    853456.38249    659673.92047  23011593.9194   23011591.6614
     -1163.4064
  -1663438.66649  -1292661.84648  22332313.0994   22332310.4274
      1211.7974
   1587659.00949   1229400.54948  20505351.9504   20505347.9664
     -1718.4064
  -1582890.30549  -1229763.63547  23241891.2784   23241887.5364
      1028.2504
   4321982.58949   3347739.23748  22472095.4354   22472090.6534
     -3898.9374
   -252746.99549   -198976.33848  21358244.1224   21358240.8724
        35.0474
 04  9 16 21  5 15.0010000  0  6G 3G 8G13G19G23G27
    870988.83949    673335.58347  23014930.0284   23014927.8994
     -1174.2504
  -1681587.09649  -1306803.47848  22328859.7474   22328857.0994
      1208.0004
   1613505.24749   1249540.46048  20510270.7244   20510265.8604
     -1727.6414
  -1598258.37849  -1241738.73247  23238967.0914   23238962.8414
      1020.8594
   4380514.85549   3393348.74848  22483234.6464   22483229.1064
     -3905.3124
   -253244.07449   -199363.66448  21358149.8724   21358146.8924
        31.3134
 04  9 16 21  5 30.0010000  0  6G 3G 8G13G19G23G27
    888679.09849    687120.20647  23018296.3644   23018294.9504
     -1184.4844
  -1699681.26349  -1320902.81248  22325416.2864   22325413.4234
      1204.5944
   1639486.81349   1269785.83348  20515214.6064   20515210.4624
     -1736.4534
  -1613519.70749  -1253630.63147  23236062.4034   23236058.6224
      1013.9384
   4439137.63949   3439028.80548  22494389.9354   22494385.1064
     -3911.0624
   -253688.31649   -199709.82548  21358065.5134   21358062.2394
        27.9694
 04  9 16 21  5 45.0010000  0  6G 3G 8G13G19G23G27
    906530.54349    701030.41647  23021693.9584   23021691.7634
     -1195.4694
  -1717717.41049  -1334956.93248  22321984.1534   22321981.3564
      1200.5784
   1665607.07249   1290139.26948  20520185.1384   20520181.0914
     -1745.9064
  -1628670.49349  -1265436.40747  23233179.9974   23233175.3564
      1006.3284
   4497854.18549   3484781.90847  22505562.8104   22505558.3644
     -3917.5164
   -254076.19449   -200012.06148  21357991.1534   21357987.9584
        24.0004
 04  9 16 21  6  0.0010000  0  6G 3G 8G13G19G23G27
    924537.75349    715062.01847  23025120.4034   23025118.4584
     -1206.1564
  -1735701.21549  -1348970.27047  22318561.2164   22318558.9544
      1196.7664
   1691860.98849   1310596.85948  20525180.8174   20525176.1264
     -1755.1724
  -1643715.94249  -1277160.07947  23230316.3884   23230312.7634
       999.0474
   4556658.83649   3530603.68048  22516753.4194   22516748.6734
     -3923.7034
   -254413.05649   -200274.54448  21357927.2314   21357924.0094
        20.2974
 04  9 16 21  6 15.0010000  0  6G 3G 8G13G19G23G27
    942707.91749    729220.60447  23028577.8024   23028575.7634
     -1216.6094
  -1753625.28149  -1362937.06548  22315151.2864   22315148.0284
      1193.1254
   1718255.83749   1331164.26948  20530203.6614   20530199.7634
     -1764.1564
  -1658648.48749  -1288795.78447  23227474.7634   23227471.1224
       991.7974
   4615558.54349   3576499.51648  22527961.2634   22527956.8724
     -3929.6724
   -254691.82249   -200491.77048  21357874.2394   21357870.8884
        16.7814
 04  9 16 21  6 30.0010000  0  6G 3G 8G13G19G23G27
    961036.04949    743502.28547  23032066.3564   23032063.6424
     -1227.1724
  -1771494.59049  -1376861.19648  22311750.8414   22311747.5364
      1189.4534
   1744786.28949   1351837.33748  20535252.2784   20535247.9814
     -1773.2664
  -1673472.81649  -1300347.17447  23224653.3024   23224649.4704
       984.6414
   4674548.12449   3622465.39048  22539186.9584   22539182.5834
     -3935.7034
   -254917.53849   -200667.64348  21357831.3644   21357827.9664
        13.2194
 04  9 16 21  6 45.0010000  0  6G 3G 8G13G19G23G27
    979523.04749    757907.73847  23035583.7784   23035581.9384
     -1237.7974
  -1789308.51549  -1390742.16748  22308360.6854   22308357.9784
      1185.6884
   1771453.25749   1372616.78548  20540327.1534   20540322.1924
     -1782.3444
  -1688187.78049  -1311813.33947  23221853.3724   23221849.8174
       977.3134
   4733628.34149   3668501.88348  22550429.4274   22550425.3844
     -3941.7034
   -255089.27749   -200801.46048  21357798.5284   21357795.0754
         9.5784
 04  9 16 21  7  0.0010000  0  6G 3G 8G13G19G23G27
    998171.70849    772439.16447  23039132.3174   23039130.6924
     -1248.8444
  -1807064.01549  -1404577.61147  22304982.0914   22304979.2824
      1181.5474
   1798259.64149   1393504.85048  20545428.0604   20545423.7394
     -1792.0004
  -1702790.25249  -1323191.85447  23219074.9894   23219070.9584
       969.6414
   4792801.83949   3714611.04347  22561689.6534   22561685.2594
     -3948.1724
   -255204.29149   -200891.08648  21357776.6064   21357772.9934
         5.5474
 04  9 16 21  7 15.0010000  0  6G 3G 8G13G19G23G27
   1016977.53249    787093.07247  23042711.1224   23042708.9784
     -1259.0784
  -1824765.47749  -1418370.94547  22301613.1304   22301610.4584
      1178.2034
   1825201.03449   1414498.14048  20550555.0444   20550550.5444
     -1800.7344
  -1717284.34749  -1334485.91947  23216316.5914   23216312.8174
       962.5634
   4852063.89449   3760789.24647  22572967.1534   22572962.7204
     -3953.8444
   -255266.84649   -200939.83248  21357764.8644   21357761.4934
         2.3914
 04  9 16 21  7 30.0010000  0  6G 3G 8G13G19G23G27
   1035941.14649    801869.92847  23046319.7634   23046317.4704
     -1269.6874
  -1842412.42149  -1432121.79047  22298255.5364   22298252.2904
      1174.4384
   1852278.03549   1435597.10748  20555707.3884   20555703.0524
     -1809.8284
  -1731669.24049  -1345694.87447  23213579.3964   23213575.1264
       955.1414
   4911414.89649   3807036.72347  22584260.9814   22584256.9314
     -3959.9534
   -255276.55949   -200947.39248  21357762.7314   21357759.6104
        -1.2664
 04  9 16 21  7 45.0010000  0  6G 3G 8G13G19G23G27
   1055065.54649    816772.06947  23049959.3024   23049957.0564
     -1280.0004
  -1860001.61949  -1445827.63748  22294908.2634   22294904.9894
      1170.9844
   1879493.66949   1456804.08548  20560886.3494   20560882.2434
     -1818.7344
  -1745941.32849  -1356815.95247  23210862.9504   23210859.7044
       947.9694
   4970857.76449   3853355.80147  22595572.8334   22595568.4234
     -3965.6094
   -255230.24849   -200911.30248  21357771.5444   21357768.1104
        -4.6094
 04  9 16 21  8  0.0010000  0  6G 3G 8G13G19G23G27
   1074343.85249    831794.13447  23053627.5674   23053625.5014
     -1290.3594
  -1877540.07549  -1459493.96648  22291571.3414   22291567.2634
      1167.5634
   1906841.02749   1478113.70648  20566090.8254   20566085.9504
     -1827.4844
  -1760107.42549  -1367854.42647  23208166.7244   23208163.5874
       940.9224
   5030385.32349   3899740.86447  22606900.5444   22606896.4664
     -3971.2814
   -255134.98149   -200837.06548  21357789.4664   21357786.3214
        -8.0004
 04  9 16 21  8 15.0010000  0  6G 3G 8G13G19G23G27
   1093779.86349    846939.07147  23057325.6614   23057323.9544
     -1301.0474
  -1895024.37049  -1473118.08447  22288243.2784   22288240.3104
      1163.7194
   1934323.89249   1499528.91348  20571320.2004   20571315.9894
     -1836.7034
  -1774163.43349  -1378807.12647  23205492.7784   23205488.8604
       933.3594
   5090001.09849   3946194.66847  22618244.3644   22618240.1964
     -3977.4374
   -254986.79249   -200721.59548  21357818.2394   21357814.4424
       -11.7194
 04  9 16 21  8 30.0010000  0  6G 3G 8G13G19G23G27
   1113375.60849    862208.50147  23061054.7394   23061053.1064
     -1311.6414
  -1912451.89349  -1486697.94447  22284926.7864   22284924.3804
      1160.0474
   1961944.51649   1521051.46048  20576575.8494   20576572.0404
     -1845.8124
  -1788106.96049  -1389672.16747  23202839.5444   23202835.5954
       925.8914
   5149707.05449   3992718.75347  22629605.6854   22629602.8534
     -3983.2664
   -254783.78649   -200563.40148  21357856.8564   21357852.8964
       -15.2974
 04  9 16 21  8 45.0010000  0  6G 3G 8G13G19G23G27
   1133130.15849    877601.65747  23064814.1924   23064812.0914
     -1322.3914
  -1929823.70749  -1500234.41048  22281622.1774   22281619.1534
      1156.1724
   1989701.83449   1542680.53848  20581858.2314   20581853.9894
     -1855.1724
  -1801938.61749  -1400450.04447  23200206.6384   23200203.2474
       918.1884
   5209502.20149   4039312.33347  22640984.2554   22640980.9234
     -3989.3914
   -254526.78149   -200363.14248  21357905.5674   21357902.2284
       -19.1254
 04  9 16 21  9  0.0010000  0  6G 3G 8G13G19G23G27
   1153044.12649    893119.05147  23068603.2084   23068601.6224
     -1332.7974
  -1947139.24149  -1513727.01748  22278326.5284   22278323.6734
      1152.6094
   2017596.43349   1564416.57448  20587166.4504   20587162.1494
     -1864.0314
  -1815657.55449  -1411140.08047  23197595.4814   23197592.2784
       910.9694
   5269386.85549   4085975.64847  22652381.2474   22652377.0404
     -3995.1564
   -254215.14649   -200120.30548  21357964.8414   21357961.2354
       -22.4694
 04  9 16 21  9 15.0010000  0  6G 3G 8G13G19G23G27
   1173116.04249    908759.49647  23072422.9894   23072421.2354
     -1343.2344
  -1964399.80649  -1527176.79148  22275042.5284   22275038.7864
      1149.0164
   2045626.84549   1586258.44448  20592500.3884   20592496.4114
     -1873.0784
  -1829264.86249  -1421743.14347  23195007.2714   23195003.1424
       903.5004
   5329359.22949   4132707.31747  22663794.3804   22663789.2474
     -4000.9844
   -253850.48649   -199836.15248  21358034.0284   21358030.5524
       -25.9534
 04  9 16 21  9 30.0010000  0  6G 3G 8G13G19G23G27
   1193342.26049    924520.20647  23076271.9584   23076270.2124
     -1353.7974
  -1981608.97749  -1540586.52647  22271767.0604   22271763.7004
      1145.2664
   2073789.51149   1608203.37248  20597859.6384   20597855.2744
     -1882.2504
  -1842763.97849  -1432261.89647  23192438.5444   23192434.1734
       896.0004
   5389415.57549   4179504.43847  22675222.6924   22675217.0524
     -4006.8284
   -253436.36049   -199513.45248  21358112.6774   21358109.5244
       -29.5164
 04  9 16 21  9 45.0010000  0  6G 3G 8G13G19G23G27
   1213724.55049    940402.51547  23080150.7554   23080149.0404
     -1364.0624
  -1998765.23249  -1553955.02048  22268502.8024   22268499.0094
      1142.0004
   2102086.13549   1630252.66948  20603244.3964   20603240.2784
     -1890.8914
  -1856152.77449  -1442694.69047  23189890.3174   23189886.5954
       888.9224
   5449557.51149   4226368.23547  22686666.4034   22686661.8254
     -4012.2974
   -252970.99549   -199150.83248  21358201.4274   21358198.4664
       -32.7344
 04  9 16 21 10  0.0010000  0  6G 3G 8G13G19G23G27
   1234263.42649    956406.82847  23084059.6064   23084057.4544
     -1374.7194
  -2015867.99449  -1567281.83948  22265248.0284   22265245.2944
      1138.1724
   2130517.21949   1652406.75748  20608654.8804   20608650.7634
     -1900.1094
  -1869430.45049  -1453040.89647  23187363.4974   23187359.1424
       881.2194
   5509785.29949   4273298.92947  22698126.9744   22698122.8724
     -4018.2814
   -252453.89649   -198747.89648  21358299.8724   21358296.7514
       -36.4534
 04  9 16 21 10 15.0010000  0  6G 3G 8G13G19G23G27
   1254960.53049    972534.44647  23087997.4584   23087994.9664
     -1384.9224
  -2032915.25949  -1580565.39848  22262003.8174   22262001.1304
      1134.7814
   2159084.62049   1674667.06148  20614090.6614   20614086.7354
     -1908.8444
  -1882594.91649  -1463298.88947  23184858.7474   23184854.5174
       874.0004
   5570100.52349   4320297.76947  22709605.3024   22709600.5484
     -4023.8754
   -251883.32449   -198303.29948  21358408.7944   21358404.8564
       -39.6094
 04  9 16 21 10 30.0010000  0  6G 3G 8G13G19G23G27
   1275812.71949    988782.90847  23091965.3804   23091963.2354
     -1395.1094
  -2049910.40049  -1593808.33748  22258769.5674   22258766.8724
      1131.4694
   2187784.91449   1697030.92148  20619552.3804   20619547.8174
     -1917.5944
  -1895649.11249  -1473470.94547  23182374.4814   23182370.4934
       866.7344
   5630499.70049   4367362.02847  22721099.6774   22721094.5794
     -4029.1564
   -251262.45749   -197819.49948  21358526.5754   21358523.3134
       -42.9224
 04  9 16 21 10 45.0010000  0  6G 3G 8G13G19G23G27
   1296818.92149   1005151.38147  23095962.7944   23095960.4114
     -1405.6254
  -2066854.47549  -1607011.50248  22255545.1224   22255542.2284
      1127.8754
   2216617.16849   1719497.60048  20625038.9274   20625034.6924
     -1926.6724
  -1908593.68849  -1483557.60647  23179911.6064   23179907.1614
       859.1724
   5690981.71549   4414490.83147  22732608.7394   22732603.6344
     -4034.9694
   -250592.39049   -197297.36648  21358654.1464   21358650.3994
       -46.4224
 04  9 16 21 11  0.0010000  0  6G 3G 8G13G19G23G27
   1317980.11249   1021640.62647  23099989.9504   23099988.1224
     -1415.8444
  -2083746.52349  -1620174.12948  22252330.4814   22252328.2044
      1124.4224
   2245582.51049   1742067.99448  20630550.8804   20630546.7044
     -1935.3914
  -1921427.44549  -1493557.90347  23177468.9114   23177464.5914
       851.9064
   5751547.24149   4461684.70047  22744132.8644   22744128.8104
     -4040.3754
   -249871.97849   -196735.99548  21358790.8804   21358788.2354
       -49.6724
 04  9 16 21 11 15.0010000  0  6G 3G 8G13G19G23G27
   1339298.11749   1038252.04447  23104046.5444   23104045.2634
     -1426.2814
  -2100584.45949  -1633294.56048  22249126.1144   22249123.8064
      1120.9224
   2274682.63149   1764743.39748  20636088.7864   20636083.8884
     -1944.4224
  -1934148.26849  -1503470.20147  23175047.7634   23175044.0834
       844.4844
   5812198.08149   4508945.05147  22755674.6534   22755670.6494
     -4046.0164
   -249099.58749   -196134.13348  21358938.4354   21358934.7314
       -53.1094
 04  9 16 21 11 30.0010000  0  6G 3G 8G13G19G23G27
   1360770.28949   1054983.61447  23108132.1304   23108130.9464
     -1436.6564
  -2117370.96449  -1646374.94148  22245932.1694   22245929.2354
      1117.3284
   2303915.05649   1787521.89648  20641651.3024   20641646.9584
     -1953.2504
  -1946758.35149  -1513296.21647  23172648.2554   23172644.7124
       836.9224
   5872931.28049   4556269.56247  22767231.4504   22767227.9744
     -4051.5314
   -248277.62049   -195493.63448  21359094.5134   21359091.3064
       -56.5474
 04  9 16 21 11 45.0010000  0  6G 3G 8G13G19G23G27
   1382398.56849   1071836.81147  23112248.2244   23112246.1734
     -1446.8124
  -2134104.08749  -1659413.73848  22242748.1614   22242745.3724
      1113.9534
   2333281.58449   1810404.89448  20647239.3964   20647234.9194
     -1962.0474
  -1959255.59449  -1523034.29947  23170270.0444   23170266.9194
       829.5944
   5933748.69449   4603659.71747  22778805.3804   22778800.8214
     -4057.1564
   -247404.41649   -194813.20848  21359260.3644   21359257.5214
       -59.7344
 04  9 16 21 12  0.0010000  0  6G 3G 8G13G19G23G27
   1404182.61149   1088811.39047  23116393.7944   23116391.8024
     -1457.3914
  -2150784.08249  -1672411.11048  22239574.2164   22239571.0484
      1110.3444
   2362781.89249   1833392.13648  20652853.0604   20652849.0094
     -1971.0164
  -1971639.95749  -1532684.41947  23167913.3724   23167909.7674
       822.0474
   5994649.65749   4651114.97447  22790395.2084   22790389.9784
     -4062.7034
   -246480.05849   -194092.93448  21359436.9194   21359433.4624
       -63.2664
 04  9 16 21 12 15.0010000  0  6G 3G 8G13G19G23G27
   1426120.58849   1105905.92447  23120568.4814   23120565.7394
     -1467.8754
  -2167412.89049  -1685368.60447  22236409.2084   22236406.2904
      1106.7344
   2392414.26049   1856482.27348  20658491.9034   20658488.2904
     -1980.0784
  -1983912.98749  -1542247.80247  23165578.3254   23165574.5564
       814.3134
   6055632.22449   4698633.81647  22801999.4664   22801994.2514
     -4068.4064
   -245506.37049   -193334.21248  21359621.9424   21359618.5174
       -66.7344
 04  9 16 21 12 30.0010000  0  6G 3G 8G13G19G23G27
   1448214.81449   1123122.19747  23124772.9664   23124770.6924
     -1478.1724
  -2183988.07349  -1698284.32548  22233255.4424   22233252.4814
      1103.1724
   2422181.04549   1879677.16348  20664156.3334   20664152.5324
     -1989.0004
  -1996071.98549  -1551722.31447  23163263.9274   23163260.7004
       806.7344
   6116698.61749   4746217.97047  22813619.9194   22813615.6104
     -4073.8914
   -244481.02349   -192535.23848  21359816.9034   21359813.2904
       -70.1564
 04  9 16 21 12 45.0010000  0  6G 3G 8G13G19G23G27
   1470464.35549   1140459.47247  23129006.2394   23129004.9074
     -1488.5474
  -2200510.43849  -1711158.87648  22230111.4664   22230108.7394
      1099.5784
   2452081.25449   1902976.02048  20669846.0834   20669842.1304
     -1997.9844
  -2008117.56649  -1561108.46247  23160971.7474   23160968.5094
       799.1254
   6177847.71849   4793866.56147  22825255.6384   22825251.9464
     -4079.4534
   -243404.88249   -191696.68848  21360021.8174   21360018.0284
       -73.6094
 04  9 16 21 13  0.0010000  0  6G 3G 8G13G19G23G27
   1492869.17349   1157917.78147  23133270.3724   23133268.5674
     -1498.7974
  -2216979.90349  -1723992.21148  22226977.6384   22226974.8494
      1096.2974
   2482114.94349   1926378.87848  20675561.6384   20675557.4354
     -2006.5474
  -2020049.35849  -1570405.94247  23158701.2244   23158697.6344
       791.7664
   6239079.33049   4841579.47147  22836908.5914   22836903.9814
     -4084.7034
   -242277.96049   -190818.55848  21360236.0754   21360232.8724
       -76.7034
 04  9 16 21 13 15.0010000  0  6G 3G 8G13G19G23G27
   1515425.82849   1175494.38647  23137562.3724   23137560.6574
     -1508.8444
  -2233399.91749  -1736787.01048  22223852.6924   22223849.5714
      1092.9844
   2512278.81249   1949883.19048  20681301.8644   20681297.5794
     -2015.2504
  -2031870.54749  -1579617.24047  23156452.0364   23156448.5674
       784.3754
   6300389.81749   4889353.83647  22848574.7474   22848570.9424
     -4089.8754
   -241103.62549   -189903.48948  21360459.6854   21360456.2514
       -79.8594
 04  9 16 21 13 30.0010000  0  6G 3G 8G13G19G23G27
   1538138.15549   1193192.30447  23141884.6384   23141882.4194
     -1519.2664
  -2249766.81849  -1749540.42248  22220737.6694   22220735.2554
      1089.3444
   2542576.46749   1973491.73548  20687066.8414   20687063.0444
     -2024.2194
  -2043576.98449  -1588739.10147  23154223.8254   23154220.3374
       776.6094
   6361782.86049   4937192.50247  22860257.0524   22860253.5634
     -4095.5784
   -239878.06949   -188948.50448  21360692.9664   21360689.5634
       -83.3284
 04  9 16 21 13 45.0010000  0  6G 3G 8G13G19G23G27
   1561003.30649   1211009.29347  23146235.3964   23146233.9464
     -1529.3754
  -2266083.19549  -1762254.47348  22217633.1774   22217630.5174
      1086.2664
   2573005.06149   1997202.31148  20692857.5994   20692853.1304
     -2032.8444
  -2055171.30049  -1597773.62247  23152017.8414   23152014.4544
       769.3134
   6423255.32349   4985093.08147  22871956.1224   22871951.9234
     -4100.6414
   -238604.14649   -187955.84148  21360935.3024   21360932.0054
       -86.3594
 04  9 16 21 14  0.0010000  0  6G 3G 8G13G19G23G27
   1584023.02749   1228946.74447  23150616.4504   23150614.0244
     -1539.8444
  -2282347.12749  -1774927.64648  22214538.7474   22214535.8764
      1082.5164
   2603566.47149   2021016.38848  20698672.9424   20698669.2824
     -2041.8594
  -2066651.39349  -1606719.12047  23149832.3884   23149829.1884
       761.5634
   6484808.90149   5033056.87347  22883669.2474   22883665.0634
     -4106.2814
   -237279.98849   -186924.02448  21361187.4504   21361184.0754
       -89.8914
 04  9 16 21 14 15.0010000  0  6G 3G 8G13G19G23G27
   1607193.97749   1247002.02047  23155025.5604   23155023.2984
     -1549.8284
  -2298561.95749  -1787562.56048  22211452.3334   22211449.9384
      1079.2664
   2634257.41749   2044931.40848  20704513.2784   20704508.9114
     -2050.4534
  -2078019.97149  -1615577.75047  23147671.0284   23147666.0874
       754.1094
   6546440.14749   5081081.17447  22895396.9664   22895392.4504
     -4111.4064
   -235908.87749   -185855.62748  21361448.1534   21361445.2984
       -93.0314
 04  9 16 21 14 30.0010000  0  6G 3G 8G13G19G23G27
   1630522.50349   1265180.10247  23159464.0054   23159462.2124
     -1560.3284
  -2314721.22749  -1800154.16748  22208377.5054   22208374.4154
      1075.5474
   2665084.39749   2068952.42448  20710379.2784   20710375.3644
     -2059.5004
  -2089270.50749  -1624344.37747  23145528.7164   23145525.0444
       746.2814
   6608155.20349   5129170.78747  22907140.7554   22907137.0674
     -4117.0164
   -234484.35549   -184745.59648  21361719.4274   21361716.1224
       -96.5944
 04  9 16 21 14 45.0010000  0  7G 3G 8G13G19G23G27G10
   1654004.23949   1283477.54847  23163933.2084   23163930.8764
     -1570.3914
  -2330829.42349  -1812706.00848  22205312.3804   22205309.2084
      1072.3134
   2696042.86349   2093075.89348  20716270.9424   20716266.5714
     -2068.1414
  -2100407.16649  -1633022.28947  23143409.1924   23143405.3724
       738.7974
   6669949.43149   5177322.09247  22918900.2164   22918895.8414
     -4122.1254
   -233010.97149   -183597.50948  21361999.8254   21361995.8964
       -99.7344
    -90236.33218                  24363229.646
       852.625
 04  9 16 21 15  0.0010000  0  7G 3G 8G13G19G23G27G10
   1677639.75249   1301894.83347  23168430.5834   23168428.6854
     -1580.4534
  -2346885.83249  -1825217.49348  22202256.8884   22202254.2084
      1069.0314
   2727133.48849   2117302.34448  20722187.0754   20722183.0094
     -2076.8444
  -2111429.04149  -1641610.74647  23141312.1534   23141308.0364
       731.2974
   6731823.40149   5225535.52747  22930674.2784   22930670.3564
     -4127.3124
   -231487.85549   -182410.65748  21362289.7554   21362286.1034
      -102.9064
   -102957.676 8                  24360807.106
       843.859
 04  9 16 21 15 15.0010000  0  7G 3G 8G13G19G23G27G10
   1701430.17449   1320432.80547  23172957.5754   23172956.1184
     -1590.9064
  -2362889.32549  -1837687.72548  22199211.2554   22199208.5564
      1065.4384
   2758357.36949   2141632.62848  20728128.7784   20728124.4354
     -2085.7504
  -2122334.65049  -1650108.61347  23139236.9504   23139233.4664
       723.5474
   6793777.89349   5273811.71047  22942464.1224   22942459.5244
     -4132.5944
   -229913.93149   -181184.22348  21362589.1774   21362585.8334
      -106.2814
   -115544.70048    -68856.31656  24358412.5834   24358410.1184
       834.9224
 04  9 16 21 15 30.0010000  0  7G 3G 8G13G19G23G27G10
   1725374.85649   1339091.01647  23177514.7864   23177512.2944
     -1601.5004
  -2378840.25849  -1850117.00148  22196175.9744   22196173.8134
      1061.5634
   2789714.24049   2166066.53948  20734095.4194   20734091.3924
     -2094.9064
  -2133124.24649  -1658516.07247  23137183.2634   23137180.2004
       715.3594
   6855812.27449   5322150.13747  22954269.2164   22954264.3174
     -4138.3754
   -228289.78249   -179918.65548  21362898.2634   21362894.4624
      -110.0474
   -127997.72349    -78559.94946  24356042.1064   24356040.7904
       825.6564
 04  9 16 21 15 45.0010000  0  7G 3G 8G13G19G23G27G10
   1749472.94749   1357868.75647  23182100.1534   23182097.9664
     -1611.6874
  -2394739.64749  -1862506.12748  22193150.4744   22193147.9074
      1058.1564
   2821202.62649   2190602.92648  20740088.0364   20740083.6884
     -2103.5624
  -2143798.45849  -1666833.62147  23135152.6064   23135148.8804
       707.7504
   6917925.33049   5370549.88247  22966089.2784   22966084.0094
     -4143.5624
   -226616.30849   -178614.64148  21363216.5524   21363212.9744
      -113.2664
   -140317.45449    -88159.76246  24353698.9274   24353696.4274
       816.8284
 04  9 16 21 16  0.0010000  0  7G 3G 8G13G19G23G27G10
   1773724.65549   1376766.18547  23186715.4584   23186713.0524
     -1621.9694
  -2410587.18149  -1874854.84348  22190135.1384   22190131.8374
      1054.6884
   2852823.04949   2215242.21648  20746105.3884   20746101.2514
     -2112.4534
  -2154356.63449  -1675060.77347  23133143.5134   23133139.4584
       699.9844
   6980117.23849   5419011.05447  22977924.2864   22977918.6574
     -4148.7814
   -224893.15949   -177271.92848  21363544.6464   21363541.0794
      -116.6414
   -152503.50649    -97655.40546  24351378.6614   24351377.1224
       807.7974
 04  9 16 21 16 15.0010000  0  7G 3G 8G13G19G23G27G10
   1798130.05949   1395783.38247  23191359.4894   23191357.6304
     -1632.2504
  -2426382.45649  -1887162.84248  22187129.5054   22187125.4854
      1051.1884
   2884575.51649   2239984.38548  20752147.5284   20752143.3454
     -2121.3284
  -2164798.35749  -1683197.16647  23131156.9194   23131152.8334
       692.0784
   7042388.05549   5467533.70947  22989773.2714   22989768.7124
     -4154.1414
   -223120.16249   -175890.37348  21363882.0754   21363878.5404
      -119.9224
   -164555.32149   -107046.39846  24349086.3964   24349083.6144
       798.7974
 04  9 16 21 16 30.0010000  0  7G 3G 8G13G19G23G27G10
   1822691.46049   1414922.12947  23196033.2004   23196031.5404
     -1642.4694
  -2442123.19249  -1899428.34148  22184133.8494   22184130.9504
      1047.6414
   2916462.64549   2264831.49348  20758215.0444   20758211.3534
     -2130.1874
  -2175120.88449  -1691240.67747  23129192.2864   23129188.4074
       684.2974
   7104739.74849   5516119.41147  23001638.4274   23001634.5444
     -4159.2974
   -221294.85849   -174468.05248  21364229.3964   21364226.1034
      -123.3754
   -176470.21349   -116330.73046  24346819.1534   24346816.0134
       789.7814
 04  9 16 21 16 45.0010000  0  7G 3G 8G13G19G23G27G10
   1847405.30349   1434179.67547  23200736.0214   23200734.3064
     -1652.6254
  -2457813.10349  -1911654.22548  22181147.7864   22181145.3174
      1044.3594
   2948480.87549   2289780.74948  20764308.0524   20764303.8924
     -2138.8754
  -2185327.63349  -1699193.97447  23127250.0284   23127245.7204
       676.5944
   7167168.59549   5564765.22247  23013518.4274   23013513.9814
     -4164.4534
   -219420.95849   -173007.86448  21364585.6924   21364582.9274
      -126.5314
   -188251.81949   -125511.18446  24344576.4814   24344574.6264
       780.8444
 04  9 16 21 17  0.0010000  0  7G 3G 8G13G19G23G27G10
   1872271.12149   1453555.63847  23205467.4584   23205465.7784
     -1662.7974
  -2473452.49849  -1923840.75848  22178171.8804   22178168.8174
      1040.9224
   2980629.57349   2314831.67448  20770425.8494   20770421.6464
     -2147.6094
  -2195418.81349  -1707057.22047  23125329.8494   23125325.6224
       668.9064
   7229673.99549   5613470.66947  23025412.1384   23025408.2434
     -4169.6414
   -217498.85449   -171510.12648  21364951.8254   21364947.8604
      -129.7034
   -199900.34349   -134587.94146  24342359.8724   24342357.7554
       772.0784
 04  9 16 21 17 15.0010000  0  7G 3G 8G13G19G23G27G10
   1897291.82349   1473052.30547  23210228.8334   23210227.4154
     -1673.2344
  -2489038.35849  -1935985.57248  22175205.9194   22175202.7864
      1037.2344
   3012911.70749   2339986.57248  20776569.1614   20776565.1464
     -2156.5474
  -2205391.12549  -1714827.81747  23123431.4194   23123427.9154
       660.8284
   7292258.65949   5662237.89347  23037321.7554   23037318.5364
     -4174.9064
   -215525.52549   -169972.45648  21365327.3024   21365323.5404
      -133.3444
   -211412.40849   -143558.37146  24340169.6694   24340166.9894
       762.8284
 04  9 16 21 17 30.0010000  0  7G 3G 8G13G19G23G27G10
   1922465.03449   1492667.79447  23215020.0054   23215017.9974
     -1683.7504
  -2504572.83649  -1948090.35148  22172250.2944   22172247.1964
      1033.5634
   3045325.05249   2365243.71048  20782736.5994   20782733.1144
     -2165.6724
  -2215246.48049  -1722507.30547  23121556.2394   23121553.0604
       652.7034
   7354920.18049   5711065.01847  23049246.7784   23049241.7314
     -4180.3754
   -213503.16649   -168396.59348  21365712.2554   21365708.5524
      -136.9224
   -222790.19249   -152424.15846  24338003.9114   24338001.9934
       753.7194
 04  9 16 21 17 45.0010000  0  7G 3G 8G13G19G23G27G10
   1947794.84449   1512405.32347  23219840.0364   23219837.9704
     -1693.7034
  -2520052.02649  -1960152.04048  22169304.3644   22169301.9784
      1030.2664
   3077873.69249   2390606.26748  20788931.0134   20788926.9784
     -2174.2194
  -2224980.54449  -1730092.26347  23119703.2244   23119699.9934
       645.0944
   7417662.47049   5759955.06047  23061185.1614   23061181.2904
     -4185.3124
   -211427.66749   -166779.31548  21366107.2084   21366103.8414
      -140.0474
   -234029.39149   -161181.95746  24335865.9034   24335863.0444
       744.6564
 04  9 16 21 18  0.0010000  0  8G 3G 8G13G19G23G27G10G28
   1973278.66849   1532262.85147  23224689.6614   23224687.4114
     -1704.0314
  -2535478.08549  -1972172.32548  22166368.6534   22166366.3024
      1026.6094
   3110555.11149   2416072.29648  20795149.6144   20795145.8174
     -2183.1414
  -2234595.38749  -1737584.34447  23117874.4504   23117870.4934
       637.0634
   7480482.97049   5808906.06947  23073139.4894   23073135.7004
     -4190.7034
   -209301.48449   -165122.54048  21366511.6064   21366508.2714
      -143.3914
   -245132.33149   -169833.61846  24333753.0994   24333750.7314
       735.6724
    -89754.42218                  24345466.833
      2228.359
 04  9 16 21 18 15.0010000  0  8G 3G 8G13G19G23G27G10G28
   1998913.16449   1552237.79047  23229566.6224   23229565.5674
     -1714.1724
  -2550854.25549  -1984153.74648  22163442.9584   22163439.7944
      1023.2344
   3143365.96149   2441639.18548  20801393.4194   20801389.4974
     -2191.9064
  -2244094.16849  -1744985.97447  23116066.8564   23116062.5404
       629.2194
   7543377.89949   5857915.04347  23085109.5444   23085104.6534
     -4195.6564
   -207127.93649   -163428.87748  21366925.3414   21366921.5754
      -146.6724
   -256102.12649   -178381.52246  24331665.0604   24331662.9784
       726.7504
   -123157.560 8                  24339110.974
      2225.125
 04  9 16 21 18 30.0010000  0  8G 3G 8G13G19G23G27G10G28
   2024700.23349   1572331.62347  23234473.6464   23234472.4354
     -1724.0314
  -2566178.93549  -1996095.05148  22160527.0834   22160523.3804
      1020.1094
   3176308.12149   2467308.39548  20807661.7394   20807658.1464
     -2200.3594
  -2253474.65949  -1752295.41647  23114282.0604   23114277.8494
       621.5944
   7606349.01649   5906983.40547  23097091.3724   23097087.4854
     -4200.5164
   -204905.12949   -161696.81548  21367347.9814   21367344.8104
      -149.6414
   -266936.59949   -186823.88446  24329604.1224   24329601.3644
       717.8914
   -156508.431 9                  24332764.849
      2222.016
 04  9 16 21 18 45.0010000  0  8G 3G 8G13G19G23G27G10G28
   2050639.39649   1592543.97547  23239410.1064   23239408.2784
     -1734.3124
  -2581452.55949  -2007996.56448  22157619.6464   22157617.5634
      1016.6094
   3209381.07049   2493079.51048  20813955.6854   20813951.8604
     -2209.1254
  -2262737.06749  -1759512.86047  23112519.9584   23112515.4544
       613.6094
   7669395.70049   5956110.65147  23109088.8564   23109085.6344
     -4205.5474
   -202633.55149   -159926.74748  21367780.2714   21367776.8604
      -153.0164
   -277636.20449   -195161.24646  24327566.7864   24327565.7784
       708.8284
   -189807.396 9                  24326427.731
      2218.266
 04  9 16 21 19  0.0010000  0  8G 3G 8G13G19G23G27G10G28
   2076730.10249   1612874.41847  23244375.0754   23244373.3764
     -1744.7344
  -2596675.14649  -2019858.30748  22154723.5524   22154720.7634
      1012.8444
   3242584.47449   2518952.27248  20820274.3644   20820270.0364
     -2218.2034
  -2271881.46149  -1766638.34247  23110779.4504   23110775.3214
       605.4224
   7732517.44449   6005296.36847  23121100.9664   23121096.2394
     -4210.8444
   -200313.41349   -158118.84248  21368221.9424   21368218.6964
      -156.5624
   -288200.98349   -203393.52546  24325557.0214   24325554.9704
       699.5004
   -223054.766 9                  24320100.403
      2214.500
 04  9 16 21 19 15.0010000  0  8G 3G 8G13G19G23G27G10G28
   2102974.40149   1633324.52247  23249368.9584   23249367.3684
     -1754.7664
  -2611844.72749  -2031678.74748  22151837.0214   22151834.0054
      1009.5004
   3275920.37049   2544928.28948  20826617.8494   20826613.8884
     -2226.8594
  -2280905.58049  -1773670.09847  23109062.5994   23109058.5484
       597.5784
   7795716.01249   6054541.95047  23133127.4274   23133123.0754
     -4215.8914
   -197942.71549   -156271.55048  21368672.9894   21368669.5874
      -159.8284
   -298628.72449   -211519.06446  24323571.9744   24323570.7514
       690.5784
   -256248.217 9                  24313784.919
      2211.031
 04  9 16 21 19 30.0010000  0  8G 3G 8G13G19G23G27G10G28
   2129367.67949   1653890.74047  23254391.2554   23254389.4464
     -1764.6414
  -2626965.99949  -2043461.55048  22148959.2864   22148955.8414
      1006.3594
   3309384.08649   2571003.90848  20832985.3884   20832981.7084
     -2235.2974
  -2289813.56649  -1780611.34647  23107367.5054   23107363.1104
       589.9224
   7858986.76449   6103843.78647  23145166.8804   23145163.0214
     -4220.5474
   -195525.98949   -154388.38248  21369133.2004   21369129.6534
      -162.8444
   -308923.73949   -219541.15746  24321613.3024   24321612.2554
       681.7194
   -289392.21949   -214115.22756  24307476.9354   24307476.3254
      2207.7344
 04  9 16 21 19 45.0010000  0  8G 3G 8G13G19G23G27G10G28
   2155914.04049   1674576.21947  23259442.7314   23259441.2044
     -1774.7194
  -2642034.50249  -2055203.23248  22146091.9504   22146088.5284
      1002.9694
   3342979.83849   2597182.40048  20839379.0054   20839374.7634
     -2243.8754
  -2298600.98849  -1787458.65747  23105694.9744   23105690.4354
       581.9694
   7922333.53949   6153204.85847  23157221.7864   23157217.8804
     -4225.4374
   -193058.96449   -152466.02548  21369602.6064   21369598.7474
      -165.9694
   -319081.69049   -227456.44947  24319680.8884   24319678.4384
       672.7664
   -322482.29349   -239899.64546  24301180.1384   24301178.7634
      2204.4534
 04  9 16 21 20  0.0010000  0  8G 3G 8G13G19G23G27G10G28
   2182612.84549   1695380.49947  23264523.7314   23264522.3764
     -1784.9844
  -2657050.81249  -2066904.25348  22143234.3644   22143231.4384
       999.3444
   3376707.03449   2623463.32348  20845796.7634   20845792.8804
     -2252.9064
  -2307268.23749  -1794212.33947  23104045.3964   23104041.0954
       573.7194
   7985755.60049   6202624.59847  23169290.0284   23169286.5754
     -4230.6414
   -190542.23149   -150504.93148  21370081.4814   21370078.2004
      -169.4224
   -329102.95249   -235265.21847  24317773.8104   24317770.9314
       663.5634
   -355518.89849   -265642.35946  24294892.9114   24294892.0874
      2200.7504
 04  9 16 21 20 15.0010000  0  8G 3G 8G13G19G23G27G10G28
   2209464.08249   1716303.56747  23269633.3024   23269631.6184
     -1794.9844
  -2672014.52749  -2078564.27048  22140387.1464   22140384.1734
       996.0314
   3410565.68449   2649846.67448  20852240.2244   20852235.8214
     -2261.5004
  -2315814.73149  -1800871.91047  23102419.1774   23102414.6854
       565.8444
   8049252.93249   6252102.98847  23181373.4504   23181369.3494
     -4235.5004
   -187975.60749   -148504.96348  21370569.6694   21370566.2824
      -172.5944
   -338987.19049   -242967.23047  24315892.9584   24315890.5404
       654.5004
   -388501.65449   -291343.18446  24288616.7244   24288615.4544
      2197.0784
 04  9 16 21 20 30.0010000  0  8G 3G 8G13G19G23G27G10G28
   2236466.49049   1737344.40947  23274771.5994   23274769.7394
     -1805.0474
  -2686927.34949  -2090184.64648  22137549.4274   22137546.6774
       992.6094
   3444554.45749   2676331.42148  20858708.4274   20858704.1264
     -2270.1564
  -2324241.72649  -1807438.35947  23100815.2314   23100810.9504
       557.8754
   8112823.95449   6301638.80347  23193470.9974   23193467.0564
     -4240.4534
   -185360.55349   -146467.25348  21371067.1614   21371064.0174
      -175.7974
   -348735.62749   -250563.40047  24314038.0444   24314035.4354
       645.4844
   -421431.81449   -317002.98046  24282350.6384   24282349.1534
      2193.5784
 04  9 16 21 20 45.0010000  0  8G 3G 8G13G19G23G27G10G28
   2263619.87249   1758502.90447  23279939.5674   23279936.7284
     -1815.6254
  -2701789.25649  -2101765.34048  22134720.9814   22134718.1854
       988.7194
   3478673.41049   2702917.60248  20865200.4354   20865196.5324
     -2279.2344
  -2332548.78849  -1813911.36247  23099233.7634   23099230.3174
       549.4534
   8176468.43649   6351231.84447  23205582.5214   23205578.5404
     -4245.6874
   -182696.93349   -144391.70648  21371574.2164   21371570.6924
      -179.5474
   -358348.01349   -258053.54347  24312208.7554   24312206.8374
       635.9064
   -454309.26949   -342621.67146  24276094.0994   24276092.9854
      2189.7664
 04  9 16 21 21  0.0010000  0  8G 3G 8G13G19G23G27G10G28
   2290924.22249   1779779.03847  23285134.7554   23285132.7044
     -1825.1564
  -2716600.01549  -2113306.17648  22131902.6694   22131899.5404
       985.8914
   3512922.46649   2729605.16948  20871717.9744   20871713.5994
     -2287.3914
  -2340735.57549  -1820290.65447  23097676.3104   23097672.4314
       542.0164
   8240186.33449   6400882.11447  23217707.3724   23217703.3454
     -4250.0314
   -179984.58349   -142278.18148  21372090.1304   21372086.4464
      -182.2344
   -367824.10449   -265437.52647  24310405.3104   24310403.0054
       627.4064
   -487133.60249   -368199.00446  24269847.7004   24269846.7514
      2186.7814
 04  9 16 21 21 15.0010000  0  8G 3G 8G13G19G23G27G10G28
   2318378.46049   1801171.97447  23290359.1534   23290357.4034
     -1835.3444
  -2731360.65849  -2124807.96648  22129093.9034   22129091.1184
       982.3444
   3547300.61749   2756393.31748  20878259.6924   20878256.0674
     -2296.2194
  -2348803.02449  -1826576.94447  23096141.7244   23096137.2784
       533.7504
   8303976.21949   6450588.44447  23229846.3964   23229841.1034
     -4255.1094
   -177224.65149   -140127.58748  21372615.5284   21372612.0014
      -185.6564
   -377164.77949   -272715.97247  24308627.5054   24308625.4114
       618.1724
   -519905.84349   -393735.76046  24263611.6144   24263610.6734
      2182.9534
 04  9 16 21 21 30.0010000  0  8G 3G 8G13G19G23G27G10G28
   2345981.45049   1822680.78947  23295612.0134   23295609.9504
     -1845.1254
  -2746072.34749  -2136271.61048  22126294.0604   22126290.9974
       979.1094
   3581806.58949   2783281.06948  20884826.4894   20884822.3134
     -2304.6874
  -2356751.95349  -1832770.88047  23094628.4114   23094624.4544
       525.9694
   8367836.74049   6500349.84347  23241998.9274   23241994.8174
     -4259.7034
   -174418.27249   -137940.80148  21373149.9814   21373146.0094
      -188.6254
   -386370.94349   -279889.56747  24306875.9664   24306873.4074
       609.1724
   -552626.90249   -419232.59746  24257384.2474   24257384.1574
      2179.6724
 04  9 16 21 21 45.0010000  0  8G 3G 8G13G19G23G27G10G28
   2373736.89649   1844308.43447  23300893.1304   23300891.2984
     -1855.2974
  -2760731.11349  -2147694.00148  22123504.2944   22123501.7944
       975.5474
   3616444.30649   2810271.50148  20891417.4894   20891413.2514
     -2313.4694
  -2364578.23649  -1838869.22947  23093139.3564   23093135.3644
       517.7504
   8431771.68049   6550169.22047  23254164.9274   23254160.8724
     -4264.7194
   -171561.37649   -135714.64448  21373693.3104   21373690.0324
      -192.0624
   -395438.50749   -286955.18947  24305150.2314   24305148.1534
       599.9224
   -585292.63349   -444686.35147  24251168.3564   24251166.7284
      2175.8914
 04  9 16 21 22  0.0010000  0  8G 3G 8G13G19G23G27G10G28
   2401642.85549   1866053.36447  23306204.0134   23306201.2714
     -1865.2194
  -2775338.78349  -2159076.58048  22120724.8174   22120721.8134
       972.3134
   3651211.73949   2837363.00048  20898033.4504   20898029.1964
     -2322.0004
  -2372283.45149  -1844873.26847  23091673.2084   23091668.8334
       509.8134
   8495778.76349   6600044.82047  23266344.7784   23266341.0794
     -4269.3444
   -168655.95649   -133450.67148  21374245.9504   21374242.9424
      -195.1564
   -404369.29649   -293914.27447  24303450.3334   24303448.9114
       590.9694
   -617904.83549   -470098.37947  24244962.8724   24244961.5914
      2172.5784
 04  9 16 21 22 15.0010000  0  8G 3G 8G13G19G23G27G10G28
   2429698.64849   1887915.02747  23311542.6694   23311540.8604
     -1875.5944
  -2789895.88949  -2170419.77548  22117954.4814   22117951.5794
       968.5474
   3686108.35149   2864555.14248  20904674.3104   20904670.0284
     -2330.9374
  -2379867.84949  -1850783.15147  23090228.9034   23090225.7984
       501.3754
   8559857.44749   6649976.20247  23278538.5754   23278534.7944
     -4274.4844
   -165702.55449   -131149.32248  21374808.1924   21374804.8684
      -198.7194
   -413163.66549   -300766.97547  24301777.5444   24301775.2084
       581.5474
   -650463.81949   -495468.94047  24238766.8964   24238765.6464
      2168.5944
 04  9 16 21 22 30.0010000  0  8G 3G 8G13G19G23G27G10G28
   2457906.31449   1909895.04447  23316910.3884   23316908.5444
     -1885.7344
  -2804400.33549  -2181721.93748  22115194.7244   22115191.3644
       965.1254
   3721136.19449   2891849.54848  20911339.8024   20911335.5834
     -2339.6724
  -2387329.07649  -1856597.06147  23088809.4424   23088805.9704
       493.1884
   8624009.47049   6699964.74747  23290746.6304   23290743.0874
     -4279.3284
   -162699.00249   -128808.89048  21375379.3964   21375376.0674
      -201.9534
   -421819.35249   -307511.65947  24300129.5364   24300128.1264
       572.3754
   -682967.40649   -520796.34047  24232581.2714   24232580.2984
      2164.8594
 04  9 16 21 22 45.0010000  0  8G 3G 8G13G19G23G27G10G28
   2486262.18049   1931990.54247  23322306.6384   23322304.1264
     -1895.5164
  -2818855.54749  -2192985.74048  22112443.9584   22112441.5404
       961.8284
   3756291.69449   2919243.42448  20918029.2474   20918026.0914
     -2348.1564
  -2394670.60749  -1862317.69947  23087412.7554   23087408.8214
       485.2664
   8688231.01649   6750007.44947  23302967.6144   23302963.5014
     -4283.9694
   -159649.03349   -126432.29748  21375960.2084   21375956.3334
      -205.1254
   -430339.77649   -314150.93247  24298508.9424   24298506.6264
       563.2034
   -715419.12949   -546083.31447  24226405.8104   24226404.6304
      2161.4844
 04  9 16 21 23  0.0010000  0  8G 3G 8G13G19G23G27G10G28
   2514765.92049   1954201.25147  23327730.6384   23327727.7354
     -1905.3124
  -2833261.93449  -2204211.47848  22109702.0674   22109700.1814
       958.7664
   3791574.60449   2946736.59648  20924743.6924   20924739.6854
     -2356.5004
  -2401892.27249  -1867944.93547  23086038.6304   23086034.5674
       477.3754
   8752521.73449   6800104.06347  23315202.0524   23315197.6534
     -4288.4374
   -156552.65149   -124019.52748  21376549.1224   21376545.5444
      -208.0164
   -438725.05449   -320684.92547  24296913.2634   24296911.2314
       554.4384
   -747818.82949   -571329.78347  24220240.6224   24220239.1064
      2158.1564
 04  9 16 21 23 15.0010000  0  8G 3G 8G13G19G23G27G10G28
   2543418.32849   1976527.82447  23333181.6774   23333180.6104
     -1915.2194
  -2847618.40549  -2215398.32548  22106970.4504   22106967.0284
       955.2664
   3826985.60549   2974329.57848  20931481.8564   20931478.6694
     -2365.2814
  -2408993.01949  -1873477.95447  23084688.0364   23084682.7084
       469.1094
   8816882.24249   6850255.06247  23327448.0994   23327445.8534
     -4293.3284
   -153408.99549   -121569.92148  21377147.4114   21377143.8884
      -211.3284
   -446974.09249   -327112.73847  24295343.8724   24295341.2354
       545.1884
   -780165.69549   -596535.04447  24214084.8644   24214084.1574
      2154.4844
 04  9 16 21 23 30.0010000  0  8G 3G 8G13G19G23G27G10G28
   2572221.61049   1998971.95147  23338663.6144   23338661.8884
     -1925.0474
  -2861922.77649  -2226544.58648  22104248.2714   22104244.8564
       952.0784
   3862526.89649   3002024.07948  20938245.2864   20938241.4034
     -2373.5784
  -2415970.31049  -1878914.76147  23083359.2314   23083355.6534
       461.2814
   8881314.40049   6900461.88447  23339710.5604   23339706.0524
     -4297.6724
   -150215.84049   -119081.74748  21377755.3644   21377751.5954
      -214.3594
   -455084.47849   -333432.52147  24293800.1854   24293797.5954
       536.2664
   -812457.16949   -621697.15647  24207940.4504   24207939.5094
      2151.1254
 04  9 16 21 23 45.0010000  0  8G 3G 8G13G19G23G27G10G28
   2601172.95149   2021531.44947  23344172.6924   23344170.8534
     -1935.1724
  -2876177.58749  -2237652.22048  22101535.9974   22101533.2784
       948.5314
   3898195.86849   3029818.06548  20945032.9814   20945028.8604
     -2382.3124
  -2422826.51049  -1884257.23847  23082054.8104   23082050.8294
       452.8444
   8945815.48749   6950722.41847  23351984.7784   23351980.5714
     -4302.5474
   -146975.80549   -116557.04848  21378371.5364   21378368.1614
      -217.6874
   -463058.63949   -339646.15247  24292282.6304   24292280.0134
       526.9384
   -844695.73649   -646818.04747  24201805.3884   24201804.3174
      2147.2664
 04  9 16 21 24  0.0010000  0  8G 3G 8G13G19G23G27G10G28
   2630270.33149   2044204.74347  23349709.6384   23349708.2204
     -1944.7034
  -2890384.75449  -2248722.72048  22098831.9744   22098829.3994
       945.5314
   3933990.51849   3057709.99148  20951844.8564   20951840.7824
     -2390.4694
  -2429563.23549  -1889506.60447  23080772.9114   23080768.9854
       445.1564
   9010383.50249   7001035.07947  23364271.2554   23364267.2554
     -4306.7814
   -143690.78049   -113997.28248  21378996.9354   21378993.3724
      -220.5004
   -470898.33349   -345754.97447  24290791.1534   24290788.3964
       518.1254
   -876883.14349   -671899.09247  24195680.8564   24195678.9464
      2144.0314
 04  9 16 21 24 15.0010000  0  8G 3G 8G13G19G23G27G10G28
   2659514.46949   2066992.39247  23355274.8644   23355273.2864
     -1954.4064
  -2904543.40049  -2259755.42848  22096137.8334   22096134.7984
       942.3914
   3969911.54349   3085700.38548  20958680.0134   20958676.0364
     -2398.8594
  -2436179.54349  -1894662.13447  23079515.0994   23079509.4854
       437.1094
   9075018.83649   7051400.23147  23376571.3104   23376567.1034
     -4311.1724
   -140359.97549   -111401.84448  21379630.5674   21379626.8534
      -223.5314
   -478602.67449   -351758.35047  24289324.7864   24289322.7634
       509.1564
   -909018.49149   -696939.53947  24189565.5754   24189564.0714
      2140.6564
 04  9 16 21 24 30.0010000  0  8G 3G 8G13G19G23G27G10G28
   2688903.05149   2089892.58347  23360867.6464   23360866.3104
     -1963.7344
  -2918655.94349  -2270752.20148  22093452.3644   22093449.1064
       939.6884
   4005956.57749   3113787.40848  20965539.6534   20965535.5244
     -2406.7974
  -2442677.48249  -1899725.42747  23078276.9424   23078272.8724
       429.5784
   9139719.11249   7101815.97547  23388883.6384   23388879.3294
     -4315.1414
   -136985.61649   -108772.47548  21380273.0214   21380269.3104
      -226.0944
   -486173.69949   -357657.83847  24287884.3024   24287881.5634
       500.6724
   -941103.94849   -721941.14347  24183458.8414   24183458.5634
      2137.7194
 04  9 16 21 24 45.0010000  0  8G 3G 8G13G19G23G27G10G28
   2718436.88049   2112905.97047  23366486.7554   23366486.1494
     -1973.7974
  -2932721.28849  -2281712.19348  22090775.6854   22090772.7164
       936.1564
   4042126.62249   3141971.85048  20972422.3174   20972418.5444
     -2415.4844
  -2449055.72249  -1904695.45847  23077063.1614   23077059.3994
       421.1884
   9204484.97349   7152282.81747  23401207.5994   23401203.5604
     -4319.9534
   -133566.68649   -106108.36648  21380923.5524   21380919.9584
      -229.4224
   -493610.33149   -363452.61947  24286468.5834   24286466.5214
       491.2664
   -973138.28149   -746902.87447  24177363.2864   24177362.2514
      2133.8914
 04  9 16 21 25  0.0010000  0  8G 3G 8G13G19G23G27G10G28
   2748119.37349   2136035.20947  23372135.6854   23372133.9384
     -1984.0784
  -2946735.83249  -2292632.60948  22088108.9274   22088106.2204
       932.3444
   4078425.26049   3170256.48048  20979329.5134   20979325.5674
     -2424.4694
  -2455310.45049  -1909569.24547  23075872.7784   23075869.1384
       412.5634
   9269319.81849   7202803.43347  23413546.2714   23413541.2394
     -4324.8754
   -130099.65149   -103406.78448  21381583.0214   21381579.7944
      -233.0004
   -500908.96349   -369139.84447  24285079.9354   24285078.0244
       481.7504
  -1005117.73349   -771821.86947  24171277.9894   24171276.5794
      2129.7504
 04  9 16 21 25 15.0010000  0  8G 3G 8G13G19G23G27G10G28
   2777950.24049   2159280.05147  23377812.9424   23377810.6064
     -1993.5164
  -2960699.69349  -2303513.52148  22085451.4504   22085448.8884
       929.3444
   4114852.21049   3198641.10048  20986261.5444   20986257.5674
     -2432.5314
  -2461441.59049  -1914346.72947  23074706.2244   23074702.4464
       404.7504
   9334223.23049   7253377.47347  23425896.6064   23425892.1964
     -4328.9694
   -126584.60849   -100667.78448  21382252.1774   21382248.6494
      -235.7664
   -508069.37949   -374719.36147  24283717.7474   24283715.1694
       472.8754
  -1037042.38649   -796698.14247  24165202.0134   24165201.3884
      2126.6564
 04  9 16 21 25 30.0010000  0  8G 3G 8G13G19G23G27G10G28
   2807922.35049   2182634.95347  23383516.3724   23383514.4504
     -2002.6564
  -2974620.04449  -2314360.54148  22082802.6614   22082799.3844
       926.7814
   4151400.06749   3227119.94148  20993216.5444   20993212.6264
     -2440.4224
  -2467456.18549  -1919033.40947  23073562.1854   23073557.6694
       397.2344
   9399187.78149   7303999.12847  23438258.6854   23438255.0714
     -4332.7974
   -123028.69349    -97896.93648  21382928.3334   21382924.7594
      -238.2194
   -515098.72949   -380196.76247  24282380.0834   24282377.5284
       464.5004
  -1068919.20949   -821537.15747  24159136.8024   24159135.7674
      2123.7194
 04  9 16 21 25 45.0010000  0  8G 3G 8G13G19G23G27G10G28
   2838035.26449   2206099.56947  23389246.4194   23389244.9464
     -2012.0944
  -2988497.02849  -2325173.75648  22080161.6854   22080158.6344
       923.7974
   4188068.69149   3255692.88248  21000193.9354   21000190.3064
     -2448.4844
  -2473354.06449  -1923629.14347  23072440.2164   23072435.4194
       389.4064
   9464213.09949   7354668.16047  23450633.1694   23450628.6854
     -4336.8914
   -119432.16549    -95094.45248  21383613.2394   21383609.3604
      -241.0164
   -521997.01649   -385572.04646  24281066.4584   24281064.8064
       455.6724
  -1100748.24149   -846338.96147  24153079.5994   24153078.3604
      2120.4384
 04  9 16 21 26  0.0010000  0  8G 3G 8G13G19G23G27G10G28
   2868294.33849   2229678.07947  23395004.7784   23395002.3644
     -2021.8754
  -3002325.15149  -2335948.90348  22077530.1064   22077527.1184
       920.5314
   4224863.41549   3284364.07548  21007195.9274   21007192.2044
     -2456.8754
  -2479129.72849  -1928129.62847  23071340.8174   23071336.3064
       381.2504
   9529304.40649   7405388.60547  23463019.3884   23463014.8604
     -4341.2974
   -115789.45449    -92255.97548  21384306.0054   21384302.6424
      -244.1094
   -528758.71649   -390840.86246  24279780.2784   24279777.4384
       446.5634
  -1132523.95349   -871099.18047  24147032.7714   24147031.3294
      2116.8444
 04  9 16 21 26 15.0020000  0  8G 3G 8G13G19G23G27G10G28
   2898700.19349   2253370.95447  23400790.2994   23400788.5494
     -2031.5784
  -3016106.61749  -2346687.68848  22074908.1044   22074905.1784
       917.2194
   4261785.41649   3313134.44948  21014221.7444   21014217.9004
     -2465.3124
  -2484784.35549  -1932535.82147  23070264.1894   23070260.3894
       373.0004
   9594464.50449   7456162.64447  23475418.5724   23475415.9674
     -4345.7194
   -112101.74349    -89382.41748  21385007.8074   21385004.8264
      -247.1724
   -535385.31949   -396004.44047  24278518.4324   24278517.2444
       437.2664
  -1164249.60549   -895820.41847  24140995.6824   24140994.7174
      2113.2664
 04  9 16 21 26 30.0020000  0  8G 3G 8G13G19G23G27G10G28
   2929251.40249   2277177.09447  23406604.5574   23406602.0104
     -2041.6724
  -3029836.85249  -2357386.56748  22072295.2834   22072291.9324
       913.6884
   4298832.41949   3342002.22848  21021272.1044   21021267.7604
     -2474.1094
  -2490314.37549  -1936844.90547  23069212.9394   23069208.4204
       364.3914
   9659687.14749   7506985.43547  23487830.2914   23487826.6624
     -4350.4374
   -108366.72349    -86472.02448  21385718.6824   21385715.1354
      -250.5944
   -541873.14049   -401059.91146  24277284.5804   24277282.2324
       427.8594
  -1195917.97749   -920497.00847  24134969.7754   24134968.5844
      2109.2814
 04  9 16 21 26 45.0020000  0  8G 3G 8G13G19G23G27G10G28
   2959945.58849   2301094.64047  23412444.6974   23412443.3734
     -2050.6724
  -3043521.05449  -2368049.57548  22069691.2994   22069689.2754
       911.0784
   4336002.47649   3370965.89648  21028344.9084   21028341.2994
     -2481.8284
  -2495724.23549  -1941060.36947  23068182.9714   23068178.7134
       356.9534
   9724972.19149   7557856.83947  23500253.6354   23500249.3144
     -4354.0164
   -104588.31949    -83527.80648  21386437.6044   21386434.2874
      -253.0784
   -548226.78149   -406010.75447  24276075.3694   24276073.6394
       419.4384
  -1227535.40449   -945133.92047  24128952.8144   24128951.1744
      2106.4224
 04  9 16 21 27  0.0020000  0  8G 3G 8G13G19G23G27G10G28
   2990782.47149   2325123.39347  23418313.5644   23418311.4514
     -2060.5944
  -3057159.33049  -2378676.79048  22067096.1974   22067093.1934
       907.6884
   4373295.49349   3400025.37648  21035442.0024   21035437.9864
     -2490.3914
  -2501013.75249  -1945182.05247  23067176.1744   23067171.8574
       348.5944
   9790319.31449   7608776.59447  23512688.1274   23512685.9324
     -4358.6254
   -100766.74449    -80549.94548  21387164.8464   21387161.4434
      -256.2504
   -554446.24649   -410857.08046  24274892.2834   24274889.6784
       410.0944
  -1259101.79749   -969731.08147  24122945.9794   24122944.8114
      2102.6724
 04  9 16 21 27 15.0020000  0  8G 3G 8G13G19G23G27G10G28
   3021764.26349   2349265.04947  23424208.9324   23424206.9634
     -2070.2504
  -3070749.26549  -2389266.33348  22064509.9244   22064506.3774
       904.3914
   4410713.68649   3429182.40148  21042562.0804   21042558.3464
     -2498.7194
  -2506180.37249  -1949207.96147  23066192.8074   23066189.1934
       340.3594
   9855730.55949   7659746.35647  23525135.7214   23525133.0064
     -4362.8754
    -96899.61649    -77536.59748  21387901.1354   21387897.3654
      -259.3284
   -560529.05949   -415596.94846  24273734.4394   24273732.4864
       400.8914
  -1290614.71349   -994286.54247  24116949.7684   24116948.4004
      2099.0944
 04  9 16 21 27 30.0020000  0  8G 3G 8G13G19G23G27G10G28
   3052890.76649   2373519.48847  23430132.3544   23430129.8144
     -2079.8444
  -3084290.89249  -2399818.24048  22061932.6194   22061930.0254
       901.2504
   4448256.64749   3458436.64248  21049706.0884   21049702.4674
     -2506.9694
  -2511223.96749  -1953138.02847  23065233.0184   23065229.0494
       332.1564
   9921205.55749   7710765.76347  23537594.8464   23537592.5924
     -4367.0474
    -92987.04949    -74487.83748  21388645.4324   21388642.0024
      -262.3124
   -566475.23449   -420230.33447  24272603.3694   24272600.4004
       391.8594
  -1322074.18249  -1018800.36247  24110962.6744   24110960.9944
      2095.5784
 04  9 16 21 27 45.0020000  0  8G 3G 8G13G19G23G27G10G28
   3084163.34149   2397887.74447  23436083.1194   23436081.5414
     -2089.7344
  -3097782.99349  -2410331.54848  22059365.4944   22059362.2834
       897.7034
   4485925.85649   3487789.26248  21056874.5964   21056870.4514
     -2515.5624
  -2516142.94449  -1956970.98947  23064297.5964   23064292.6974
       323.6884
   9986745.59849   7761835.89347  23550066.1744   23550063.4904
     -4371.5944
    -89027.58449    -71402.53948  21389398.7914   21389395.3184
      -265.5944
   -572283.10049   -424755.92247  24271498.3464   24271495.4674
       382.4694
  -1353478.58149  -1043271.27547  24104986.7684   24104984.1664
      2091.7664
 04  9 16 21 28  0.0020000  0  8G 3G 8G13G19G23G27G10G28
   3115578.53749   2422367.12347  23442061.6354   23442059.1544
     -2099.2194
  -3111228.61349  -2420808.64248  22056807.0334   22056803.7484
       894.7504
   4523718.01249   3517237.68648  21064066.2524   21064062.3424
     -2523.6724
  -2520940.26649  -1960709.13447  23063384.9164   23063380.0254
       315.6414
  10052347.22849   7812953.98647  23562550.4474   23562547.3894
     -4375.6564
    -85024.32149    -68283.10948  21390160.7444   21390156.8894
      -268.4224
   -577955.60049   -429176.05447  24270417.9004   24270415.9364
       373.5474
  -1384830.83049  -1067701.55747  24099019.9794   24099018.2484
      2088.3134
 04  9 16 21 28 15.0020000  0  8G 3G 8G13G19G23G27G10G28
   3147137.46749   2446958.51947  23448066.0184   23448064.1274
     -2108.4374
  -3124626.42449  -2431248.48648  22054257.2684   22054254.3384
       891.7194
   4561634.33249   3546782.86348  21071281.6194   21071277.1934
     -2531.6874
  -2525614.51649  -1964351.38447  23062493.8074   23062490.0924
       307.7034
  10118011.44149   7864120.81547  23575045.9394   23575044.0214
     -4379.5314
    -80976.13349    -65128.67348  21390930.7994   21390927.4794
      -271.2814
   -583491.55349   -433489.79347  24269365.5884   24269362.4324
       364.6414
  -1416129.67849  -1092090.17647  24093064.2834   24093063.0024
      2084.9384
 04  9 16 21 28 30.0020000  0  8G 3G 8G13G19G23G27G10G28
   3178838.14249   2471660.33947  23454099.0254   23454096.5574
     -2118.2504
  -3137978.40949  -2441652.61048  22051716.4084   22051713.6394
       888.5004
   4599672.90949   3576423.29648  21078520.0254   21078515.8544
     -2540.0474
  -2530167.23149  -1967898.94047  23061627.8694   23061623.9324
       299.3914
  10183736.05749   7915334.76047  23587553.0804   23587549.6394
     -4383.7504
    -76884.74149    -61940.58148  21391709.4394   21391706.1704
      -274.3284
   -588892.76849   -437698.53947  24268336.4944   24268334.7094
       355.4844
  -1447376.75249  -1116438.48647  24087118.3854   24087116.5614
      2081.2344
 04  9 16 21 28 45.0020000  0  8G 3G 8G13G19G23G27G10G28
   3210680.98849   2496472.94747  23460158.8544   23460156.3734
     -2127.3754
  -3151283.75049  -2452020.39548  22049184.6974   22049181.8504
       885.7034
   4637834.12649   3606159.29648  21085781.7294   21085777.6704
     -2547.9534
  -2534597.59249  -1971351.15647  23060786.2134   23060780.9164
       291.4694
  10249521.40949   7966596.02047  23600073.3074   23600068.7364
     -4387.4844
    -72749.79649    -58718.53848  21392496.3304   21392493.1114
      -276.8284
   -594158.45349   -441801.66047  24267335.3464   24267332.9044
       346.7664
  -1478571.53149  -1140746.05847  24081181.2684   24081180.3774
      2078.0784
 04  9 16 21 29  0.0020000  0  8G 3G 8G13G19G23G27G10G28
   3242666.56749   2521396.79947  23466245.1664   23466242.7364
     -2137.1414
  -3164541.74149  -2462351.29148  22046661.8074   22046658.5804
       882.3134
   4676118.70249   3635991.41748  21093066.9474   21093063.0144
     -2556.4534
  -2538904.73249  -1974707.35747  23059965.3694   23059961.4004
       282.9534
  10315368.07149   8017905.03247  23612602.8934   23612599.5764
     -4391.8594
    -68570.29049    -55461.77548  21393291.3464   21393287.7324
      -280.2034
   -599287.63349   -445798.40647  24266359.0884   24266356.4004
       337.3754
  -1509713.06149  -1165012.13647  24075255.6274   24075253.9164
      2074.2344
 04  9 16 21 29 15.0020000  0  8G 3G 8G13G19G23G27G10G28
   3274795.98749   2546432.71747  23472359.1434   23472357.5214
     -2147.0784
  -3177751.12249  -2472644.31248  22044148.2134   22044145.4364
       878.8134
   4714527.68749   3665920.48448  21100376.1894   21100372.2874
     -2564.9534
  -2543087.26949  -1977966.44847  23059169.5574   23059165.5494
       274.5004
  10381276.87249   8069262.47447  23625144.9324   23625141.9634
     -4396.1414
    -64345.20849    -52169.50448  21394095.5254   21394091.9554
      -283.3754
   -604279.18549   -449687.93247  24265409.3304   24265406.7954
       327.9844
  -1540800.04949  -1189235.70747  24069340.3544   24069338.1274
      2070.4534
 04  9 16 21 29 30.0020000  0  8G 3G 8G13G19G23G27G10G28
   3307069.23449   2571580.69347  23478500.6504   23478498.6274
     -2156.2034
  -3190911.89349  -2482899.44848  22041643.8544   22041640.8464
       875.7504
   4753061.21349   3695946.58948  21107709.0644   21107704.7094
     -2572.9694
  -2547144.79749  -1981128.14347  23058397.6974   23058393.2444
       266.3914
  10447247.85949   8120668.39347  23637698.6194   23637694.6004
     -4400.0624
    -60074.32449    -48841.54948  21394908.5024   21394905.0294
      -286.1874
   -609132.72749   -453469.89347  24264485.6824   24264483.3224
       319.0164
  -1571832.13849  -1213416.52147  24063434.7524   24063432.9634
      2067.0784
 04  9 16 21 29 45.0020000  0  8G 3G 8G13G19G23G27G10G28
   3339483.68449   2596838.73747  23484668.8074   23484667.2444
     -2165.4374
  -3204026.49149  -2493118.59948  22039147.9554   22039145.0644
       872.9534
   4791716.71649   3726067.74548  21115064.9004   21115060.4904
     -2580.9694
  -2551079.37549  -1984194.01847  23057649.1354   23057644.3894
       258.4224
  10513278.31949   8172120.61347  23650263.5024   23650260.4284
     -4403.8284
    -55759.96049    -45479.69548  21395729.3144   21395726.1234
      -288.8914
   -613850.60749   -457146.16347  24263587.2684   24263585.5024
       310.2344
  -1602811.50949  -1237556.25147  24057539.5964   24057537.2684
      2063.7504
 04  9 16 21 30  0.0020000  0  8G 3G 8G13G19G23G27G10G28
   3372041.69749   2622208.60747  23490864.8224   23490862.4714
     -2175.4064
  -3217092.46449  -2503299.85948  22036661.8224   22036658.7054
       869.4064
   4830496.47849   3756285.72448  21122444.2214   21122440.1864
     -2589.4694
  -2554888.60749  -1987162.22547  23056924.6274   23056919.7754
       249.7194
  10579370.34149   8223620.84447  23662840.7444   23662837.7714
     -4408.2504
    -51399.76549    -42082.13248  21396559.1744   21396555.2484
      -292.2814
   -618430.29749   -460714.74147  24262717.1824   24262714.2014
       300.7194
  -1633735.76349  -1261653.03047  24051655.3774   24051653.5964
      2059.7344
 04  9 16 21 30 15.0020000  0  8G 3G 8G13G19G23G27G10G28
   3404744.39249   2647691.23947  23497087.3934   23497085.7134
     -2184.9224
  -3230108.30349  -2513442.06748  22034184.7834   22034181.8854
       866.2034
   4869401.69349   3786601.46248  21129847.8304   21129843.9594
     -2597.7344
  -2558570.91049  -1990031.53047  23056222.2994   23056218.7214
       241.3914
  10645525.02249   8275169.85347  23675429.6894   23675426.1544
     -4412.2194
    -46992.36849    -38647.79748  21397398.1114   21397394.5104
      -295.2194
   -622870.37749   -464174.53947  24261871.6974   24261868.8224
       291.4384
  -1664603.37049  -1285705.65247  24045780.6744   24045779.3504
      2056.0164
 04  9 16 21 30 30.0020000  0  8G 3G 8G13G19G23G27G10G28
   3437585.62549   2673281.81947  23503336.5104   23503335.0064
     -2194.1254
  -3243080.29049  -2523550.08948  22031716.1744   22031713.1824
       863.2814
   4908426.31149   3817010.23748  21137273.8544   21137269.8574
     -2605.7974
  -2562131.99849  -1992806.39147  23055545.2524   23055541.1394
       233.2194
  10711736.10249   8326762.86647  23688029.7914   23688026.6504
     -4416.1094
    -42543.75949    -35181.34748  21398244.5104   21398240.9514
      -298.1414
   -627176.67749   -467530.08547  24261052.4324   24261049.5254
       282.5314
  -1695420.21449  -1309718.71447  24039916.9084   24039915.3854
      2052.6094
 04  9 16 21 30 45.0020000  0  8G 3G 8G13G19G23G27G10G28
   3470566.07649   2698980.88847  23509612.9324   23509611.2014
     -2203.7664
  -3256007.37849  -2533623.13448  22029256.4324   22029253.0494
       859.9384
   4947571.07849   3847512.65348  21144722.9244   21144719.2954
     -2614.0004
  -2565570.99849  -1995486.09147  23054891.2834   23054886.7834
       224.8444
  10778004.15649   8378400.23847  23700639.7754   23700635.5144
     -4420.0944
    -38053.17549    -31682.18048  21399099.0184   21399095.2524
      -301.1254
   -631348.29649   -470780.65547  24260257.5724   24260255.1894
       273.2034
  -1726185.34649  -1333691.48547  24034061.9164   24034060.1394
      2048.9224
 04  9 16 21 31  0.0020000  0  8G 3G 8G13G19G23G27G10G28
   3503688.73149   2724790.73847  23515916.0964   23515913.9554
     -2212.8444
  -3268886.34649  -2543658.68048  22026805.3384   22026802.6114
       857.0004
   4986839.02949   3878111.03748  21152195.6114   21152191.3934
     -2621.9374
  -2568884.47449  -1998067.99947  23054260.1664   23054255.8184
       216.7344
  10844332.11549   8430084.28947  23713261.5884   23713258.7364
     -4423.7664
    -33517.39649    -28147.81548  21399961.9164   21399958.4004
      -303.8124
   -635382.01049   -473923.77747  24259490.6194   24259487.8854
       264.3754
  -1756895.43449  -1357621.34547  24028218.1664   24028216.5294
      2045.5004
 04  9 16 21 31 15.0020000  0  8G 3G 8G13G19G23G27G10G28
   3536953.03949   2750711.00247  23522246.2834   23522243.9904
     -2222.2194
  -3281717.60149  -2553657.04048  22024363.3544   22024360.7054
       853.9694
   5026229.59949   3908804.97948  21159691.2134   21159686.9904
     -2629.9694
  -2572072.53149  -2000552.17247  23053654.0334   23053649.3264
       208.5634
  10910719.34849   8481814.56247  23725894.5334   23725890.5684
     -4427.6564
    -28936.79049    -24578.50648  21400833.7604   21400830.3144
      -306.7034
   -639278.01749   -476959.60547  24258748.3074   24258746.6744
       255.3444
  -1787550.75549  -1381508.55647  24022384.5884   24022383.3734
      2042.0634
 04  9 16 21 31 30.0020000  0  8G 3G 8G13G19G23G27G10G28
   3570359.22749   2776741.81047  23528602.7754   23528600.8184
     -2231.6564
  -3294500.70549  -2563617.90448  22021931.0964   22021927.7014
       850.7344
   5065743.27949   3939594.83948  21167210.5184   21167206.5644
     -2638.1874
  -2575134.54049  -2002938.12147  23053071.2914   23053066.6234
       200.1094
  10977165.94449   8533591.05747  23738539.2524   23738535.7794
     -4431.5314
    -24310.91549    -20973.91848  21401714.0804   21401710.3894
      -309.7344
   -643035.85149   -479887.76847  24258034.8074   24258032.1044
       246.1414
  -1818150.69149  -1405352.60647  24016561.2834   24016560.2604
      2038.2974
 04  9 16 21 31 45.0020000  0  8G 3G 8G13G19G23G27G10G28
   3603906.55949   2802882.59047  23534986.4474   23534984.8964
     -2240.9534
  -3307236.24649  -2573541.67948  22019507.7524   22019504.6824
       847.5784
   5105379.25049   3970480.01148  21174752.5804   21174748.7834
     -2646.3284
  -2578070.95649  -2005226.20447  23052511.9944   23052508.1624
       191.7194
  11043671.23349   8585413.30447  23751194.6584   23751191.3034
     -4435.5474
    -19640.41749    -17334.57248  21402602.7524   21402599.3964
      -312.7034
   -646655.88249   -482708.56547  24257345.2684   24257342.4634
       236.8754
  -1848695.77849  -1429153.89347  24010749.2604   24010746.9004
      2034.6564
 04  9 16 21 32  0.0020000  0  8G 3G 8G13G19G23G27G10G28
   3637595.71149   2829133.86947  23541397.5494   23541395.6074
     -2250.5004
  -3319923.58649  -2583427.93048  22017093.3934   22017090.2604
       844.3284
   5145138.06349   4001460.88448  21182318.5414   21182314.7054
     -2654.5624
  -2580880.96349  -2007415.79947  23051977.8614   23051973.3854
       183.3134
  11110235.51949   8637281.48547  23763862.1434   23763858.1664
     -4439.4694
    -14924.54849    -13659.86048  21403500.1044   21403496.6274
      -315.7664
   -650137.50649   -485421.50347  24256682.6194   24256679.9284
       227.6414
  -1879185.20849  -1452911.86247  24004946.8854   24004945.6274
      2030.8914
 04  9 16 21 32 15.0020000  0  8G 3G 8G13G19G23G27G10G28
   3671428.07949   2855496.75847  23547835.7364   23547833.9284
     -2260.2814
  -3332560.86949  -2593275.13948  22014688.5024   22014685.3574
       840.8284
   5185021.31949   4032538.73848  21189908.1114   21189904.3694
     -2663.0314
  -2583562.59449  -2009505.34047  23051467.5494   23051462.7174
       174.5004
  11176860.28149   8689196.83347  23776540.6044   23776536.6074
     -4443.6094
    -10161.53949     -9948.42648  21404406.7364   21404402.6664
      -319.0784
   -653478.84849   -488025.14047  24256047.2754   24256044.3734
       218.0314
  -1909617.22049  -1476625.05647  23999156.0494   23999153.7094
      2026.9384
 04  9 16 21 32 30.0020000  0  8G 3G 8G13G19G23G27G10G28
   3705403.29349   2881970.94547  23554300.2684   23554298.5024
     -2269.6414
  -3345148.05349  -2603083.32248  22012293.2214   22012290.2754
       837.4844
   5225028.83649   4063713.41748  21197521.2834   21197517.7994
     -2671.3594
  -2586115.78249  -2011494.81048  23050981.3144   23050977.3464
       165.9694
  11243545.20649   8741159.03547  23789229.7684   23789225.4594
     -4447.6094
     -5351.66149     -6200.46248  21405321.6194   21405318.4164
      -322.1874
   -656679.94549   -490519.49747  24255437.6894   24255435.0644
       208.6724
  -1939991.79149  -1500293.48647  23993375.9554   23993373.9124
      2023.1094
 04  9 16 21 32 45.0020000  0  8G 3G 8G13G19G23G27G10G28
   3739517.64349   2908553.57147  23560792.1744   23560790.4364
     -2279.0624
  -3357689.01949  -2612855.49248  22009907.0644   22009903.6704
       834.3444
   5265156.73049   4094981.89348  21205157.4164   21205153.6154
     -2679.4694
  -2588543.88549  -2013386.80848  23050518.8934   23050514.8114
       157.5474
  11310286.21249   8793164.94147  23801929.6664   23801926.7174
     -4451.5164
      -498.42749     -2418.72548  21406245.4084   21406242.1934
      -325.2034
   -659744.47249   -492907.43647  24254854.1274   24254851.5024
       199.5004
  -1970312.43149  -1523919.91047  23987605.9324   23987604.4904
      2019.3754
 04  9 16 21 33  0.0020000  0  8G 3G 8G13G19G23G27G10G28
   3773777.41449   2935249.49547  23567311.8544   23567309.9594
     -2288.5164
  -3370177.31949  -2622586.62648  22007530.4244   22007526.9824
       831.1094
   5305411.44249   4126349.18448  21212818.2214   21212814.0104
     -2687.5474
  -2590840.22649  -2015176.13248  23050082.5334   23050078.1234
       148.9844
  11377089.70049   8845219.54647  23814641.6274   23814638.5294
     -4455.3284
      4404.67049      1401.87048  21407178.3854   21407174.6824
      -328.1874
   -662665.67049   -495183.69847  24254298.4164   24254296.1154
       190.2664
  -2000572.41049  -1547499.05647  23981847.6584   23981845.8034
      2015.6414
 04  9 16 21 33 15.0020000  0  8G 3G 8G13G19G23G27G10G28
   3808175.62049   2962053.29547  23573858.3934   23573855.8304
     -2297.7814
  -3382619.73949  -2632282.00448  22005162.5024   22005159.9204
       827.9694
   5345786.10849   4157809.95348  21220500.5104   21220496.9554
     -2695.6094
  -2593011.58749  -2016868.04248  23049669.1584   23049665.2364
       140.6564
  11443948.49949   8897317.25747  23827364.5644   23827362.3464
     -4459.0944
      9350.70549      5255.94148  21408119.4794   21408116.0644
      -331.0944
   -665450.36249   -497353.59647  24253768.1894   24253766.3184
       181.1414
  -2030778.46249  -1571036.16747  23976099.4474   23976098.0374
      2011.9534
 04  9 16 21 33 30.0020000  0  8G 3G 8G13G19G23G27G10G28
   3842714.56749   2988966.76047  23580429.9864   23580428.9394
     -2307.2034
  -3395013.55749  -2641939.51548  22002804.4324   22002801.1504
       824.6884
   5386283.07449   4189366.01648  21228207.5884   21228202.9904
     -2703.8594
  -2595055.25549  -2018460.50748  23049279.9714   23049275.7294
       132.0314
  11510864.87549   8949459.79147  23840099.5254   23840095.3694
     -4462.9374
     14342.32449      9145.51048  21409069.3144   21409065.6784
      -334.2504
   -668095.92149   -499415.07147  24253265.2994   24253262.8184
       171.8284
  -2060928.06149  -1594529.29047  23970361.5414   23970360.3424
      2008.1414
 04  9 16 21 33 45.0020000  0  8G 3G 8G13G19G23G27G10G28
   3877392.90449   3015988.85547  23587029.6434   23587027.9634
     -2316.6094
  -3407359.91449  -2651560.04948  22000454.7834   22000451.2644
       821.4384
   5426900.97549   4221016.32048  21235936.5104   21235932.4124
     -2711.9534
  -2596972.25849  -2019954.22247  23048915.2994   23048910.8774
       123.4844
  11577837.39949   9001646.09647  23852843.0104   23852840.2604
     -4466.7344
     19378.34049     13069.68548  21410027.9164   21410024.4944
      -337.2974
   -670603.37649   -501368.91447  24252788.4634   24252785.6004
       162.4224
  -2091022.19449  -1617979.22147  23964635.5334   23964633.4904
      2004.3914
 04  9 16 21 34  0.0020000  0  8G 3G 8G13G19G23G27G10G28
   3912213.44249   3043121.71647  23593655.8614   23593653.3344
     -2326.2814
  -3419655.95149  -2661141.35648  21998114.7834   21998111.7444
       817.8914
   5467642.85849   4252763.22448  21243689.1354   21243685.4824
     -2720.4534
  -2598759.32649  -2021346.70647  23048574.8614   23048570.5574
       114.6094
  11644868.79249   9053878.29147  23865598.7214   23865595.6354
     -4470.8594
     24461.78149     17030.80648  21410995.0644   21410991.6544
      -340.6564
   -672969.58149   -503212.68747  24252337.6584   24252335.3184
       152.8754
  -2121057.64549  -1641383.39747  23958919.9554   23958917.8544
      2000.2504
 04  9 16 21 34 15.0020000  0  8G 3G 8G13G19G23G27G10G28
   3947174.20949   3070363.87347  23600308.8144   23600306.5884
     -2335.5624
  -3431903.52749  -2670684.91848  21995784.7754   21995781.2604
       814.7664
   5508506.61149   4284605.10448  21251465.5414   21251461.8344
     -2728.4534
  -2600418.10249  -2022639.21248  23048259.3774   23048255.3964
       106.1724
  11711956.99749   9106154.74247  23878366.3074   23878362.6274
     -4474.5624
     29590.71849     21027.38448  21411971.0254   21411967.6154
      -343.5624
   -675196.41249   -504947.89047  24251913.7294   24251911.8654
       143.7974
  -2151036.16149  -1664743.22947  23953215.2364   23953213.1504
      1996.5474
 04  9 16 21 34 30.0020000  0  8G 3G 8G13G19G23G27G10G28
   3982273.46949   3097713.94947  23606987.8304   23606986.0454
     -2344.5784
  -3444104.20749  -2680191.93548  21993462.6974   21993459.4594
       811.7664
   5549490.63649   4316540.69148  21259264.6354   21259260.8114
     -2736.3444
  -2601950.09049  -2023832.94147  23047967.7294   23047963.5924
        97.8914
  11779100.06049   9158473.92747  23891142.4084   23891139.6314
     -4478.0004
     34763.64049     25058.24348  21412955.4394   21412951.7444
      -346.3594
   -677285.25249   -506575.55147  24251516.5884   24251513.7794
       134.5474
  -2180959.28149  -1688059.89947  23947520.6584   23947519.1464
      1992.9844
 04  9 16 21 34 45.0020000  0  8G 3G 8G13G19G23G27G10G28
   4017513.93649   3125174.03947  23613694.1584   23613691.6504
     -2353.8594
  -3456255.23349  -2689660.25948  21991150.2914   21991147.1824
       808.5944
   5590597.58749   4348572.07248  21267086.9554   21267083.1744
     -2744.3754
  -2603352.15649  -2024925.42448  23047701.0334   23047697.0144
        89.3134
  11846300.61849   9210837.92847  23903930.1044   23903926.8614
     -4481.7504
     39983.38749     29125.57848  21413948.5024   21413945.0924
      -349.3594
   -679233.26549   -508093.46747  24251145.4084   24251143.5024
       125.3134
  -2210823.97749  -1711331.02347  23941838.3694   23941835.8734
      1989.3134
 04  9 16 21 35  0.0020000  0  8G 3G 8G13G19G23G27G10G28
   4052894.57749   3152743.37347  23620426.4324   23620424.6044
     -2363.3914
  -3468357.20349  -2699090.36248  21988847.5184   21988844.8224
       805.1884
   5631826.62849   4380698.58548  21274932.7834   21274928.6864
     -2752.6724
  -2604624.78449  -2025917.04547  23047458.8384   23047454.6354
        80.5164
  11913557.75549   9263246.00747  23916728.6504   23916726.3224
     -4485.7504
     45249.35649     33228.93148  21414950.6114   21414946.9824
      -352.6874
   -681041.08949   -509502.14747  24250801.3144   24250799.2754
       115.7344
  -2240630.85149  -1734557.10747  23936165.9794   23936164.5764
      1985.2344
 04  9 16 21 35 15.0020000  0  8G 3G 8G13G19G23G27G10G28
   4088414.92349   3180421.55147  23627185.1664   23627183.6544
     -2372.5944
  -3480410.18349  -2708482.28348  21986553.7604   21986550.6784
       802.0164
   5673177.40649   4412919.95248  21282801.5644   21282797.9794
     -2760.6564
  -2605768.13749  -2026807.93447  23047241.2834   23047237.2564
        72.0474
  11980871.01549   9315697.84247  23929538.2604   23929535.1784
     -4489.3284
     50561.18249     37368.00948  21415961.9794   21415958.1704
      -355.5474
   -682708.97149   -510801.76447  24250483.9474   24250481.9714
       106.6414
  -2270380.16549  -1757738.30347  23930504.9164   23930502.5964
      1981.5314
 04  9 16 21 35 30.0020000  0  8G 3G 8G13G19G23G27G10G28
   4124074.88049   3208208.52747  23633971.0184   23633969.4394
     -2381.9224
  -3492414.31649  -2717836.13448  21984269.4714   21984266.3144
       798.7814
   5714649.62649   4445235.95448  21290693.4244   21290689.6864
     -2768.7344
  -2606782.02249  -2027597.92847  23047048.1434   23047044.2564
        63.3914
  12048240.04849   9368193.09547  23942358.7214   23942355.8184
     -4492.9844
     55918.80449     41542.79648  21416981.4634   21416977.7094
      -358.5624
   -684236.69349   -511992.19347  24250192.8384   24250191.2054
        97.3754
  -2300071.68949  -1780874.50647  23924854.1194   23924851.9864
      1977.6564
 04  9 16 21 35 45.0020000  0  8G 3G 8G13G19G23G27G10G28
   4159875.30749   3236104.97847  23640783.6894   23640782.1784
     -2391.1724
  -3504368.35249  -2727150.96048  21981994.4164   21981991.2794
       795.4064
   5756244.18449   4477647.29648  21298608.4944   21298604.6234
     -2776.8914
  -2607665.15249  -2028286.05147  23046880.5644   23046875.8574
        54.6564
  12115665.57949   9420732.38347  23955189.2604   23955186.4204
     -4496.8284
     61323.43549     45754.20348  21418009.8464   21418006.0574
      -361.7814
   -685623.17949   -513072.56647  24249929.4794   24249927.4164
        87.7814
  -2329704.33449  -1803964.83347  23919215.0644   23919213.6504
      1973.7194
 04  9 16 21 36  0.0020000  0  8G 3G 8G13G19G23G27G10G28
   4195816.06949   3264110.75647  23647623.3614   23647621.5924
     -2400.8284
  -3516272.17149  -2736426.66648  21979729.4164   21979726.1934
       791.7814
   5797961.15949   4510154.01148  21306546.6434   21306542.7294
     -2785.3444
  -2608417.51749  -2028872.27447  23046737.2994   23046732.5614
        45.7344
  12183147.29749   9473315.46847  23968030.6354   23968027.2214
     -4500.7814
     66775.01049     50002.18248  21419047.1894   21419043.0764
      -365.2034
   -686868.43749   -514042.89147  24249692.1824   24249690.6704
        78.1564
  -2359277.93949  -1827009.14947  23913588.2054   23913586.4324
      1969.4844
 04  9 16 21 36 15.0020000  0  8G 3G 8G13G19G23G27G10G28
   4231900.27049   3292228.30847  23654490.1974   23654487.8264
     -2410.3284
  -3528122.70449  -2745660.82448  21977474.5724   21977471.1154
       788.2194
   5839803.81549   4542758.67248  21314509.6114   21314505.4944
     -2793.7504
  -2609035.55649  -2029353.82447  23046620.0644   23046614.9594
        36.6254
  12250688.54749   9525944.93547  23980883.6504   23980880.0684
     -4504.8284
     72276.96049     54289.42548  21420093.9474   21420090.2644
      -368.5944
   -687968.96349   -514900.43047  24249483.3464   24249480.9044
        68.5634
  -2388788.97149  -1850004.69747  23907971.7214   23907970.1044
      1965.2664
 04  9 16 21 36 30.0020000  0  8G 3G 8G13G19G23G27G10G28
   4268125.97749   3320456.14147  23661383.5414   23661381.3574
     -2419.6874
  -3539921.67249  -2754854.82548  21975229.0884   21975225.9864
       785.0004
   5881770.31949   4575459.83348  21322495.0964   21322491.4904
     -2801.8594
  -2609520.70949  -2029731.82447  23046526.3774   23046522.2874
        27.9534
  12318287.17749   9578619.10847  23993747.2444   23993743.9904
     -4508.3914
     77827.59049     58614.58748  21421150.3934   21421146.7484
      -371.5784
   -688926.37849   -515646.45247  24249301.0024   24249298.7014
        59.0944
  -2418239.02149  -1872952.72647  23902367.2444   23902365.9164
      1961.3754
 04  9 16 21 36 45.0020000  0  8G 3G 8G13G19G23G27G10G28
   4304491.10949   3348792.58647  23668303.5884   23668301.6274
     -2429.1724
  -3551670.84349  -2764010.01148  21972992.8774   21972989.4284
       781.3914
   5923858.57049   4608255.85848  21330504.6194   21330500.3384
     -2810.2034
  -2609874.59649  -2030007.55748  23046459.5964   23046455.4004
        18.9694
  12385941.07249   9631336.35447  24006621.1354   24006618.0254
     -4512.3914
     83425.05149     62976.24848  21422215.4164   21422212.3504
      -375.0004
   -689742.50949   -516282.39047  24249145.3854   24249143.1194
        49.4844
  -2447629.87849  -1895854.64447  23896775.0724   23896773.0884
      1957.1724
 04  9 16 21 37  0.0020000  0  8G 3G 8G13G19G23G27G10G28
   4340995.25149   3377237.37447  23675249.6744   23675248.3774
     -2438.3444
  -3563370.47749  -2773126.60848  21970766.9634   21970763.1544
       778.1564
   5966068.17049   4641146.43848  21338536.8614   21338532.9554
     -2818.0784
  -2610097.41149  -2030181.14848  23046417.5644   23046413.0334
        10.3444
  12453649.73949   9684096.26447  24019505.9714   24019503.4084
     -4515.8754
     89069.15849     67374.26548  21423289.6274   21423286.1974
      -377.9534
   -690417.56549   -516808.40247  24249017.3464   24249015.3774
        40.1094
  -2476961.68249  -1918710.52647  23891193.1044   23891190.9904
      1953.3754
 04  9 16 21 37 15.0020000  0  8G 3G 8G13G19G23G27G10G28
   4377639.71049   3405791.49147  23682223.0964   23682221.5144
     -2447.3594
  -3575019.18249  -2782203.51348  21968550.4164   21968547.4754
       775.0474
   6008400.49649   4674132.66448  21346592.0804   21346588.6044
     -2826.0624
  -2610187.57149  -2030251.35848  23046400.1584   23046396.1004
         1.7504
  12521414.41349   9736899.83747  24032401.6114   24032398.0374
     -4519.3754
     94761.26449     71809.68148  21424372.6114   21424369.1504
      -380.8594
   -690949.99249   -517223.26947  24248915.7684   24248913.6114
        30.8914
  -2506232.83549  -1941519.16447  23885622.8464   23885620.8144
      1949.5314
 04  9 16 21 37 30.0020000  0  8G 3G 8G13G19G23G27G10G28
   4414423.06249   3434453.83447  23689222.1274   23689220.7484
     -2456.8284
  -3586617.91949  -2791241.47748  21966343.1194   21966339.8544
       771.6414
   6050854.03949   4707213.32848  21354670.6974   21354667.0374
     -2834.2034
  -2610146.09249  -2030219.00147  23046407.9474   23046403.7754
        -7.0944
  12589233.57649   9789745.85647  24045306.7524   24045304.0644
     -4523.1724
    100500.20149     76281.57948  21425464.9794   21425461.1044
      -384.1254
   -691340.98649   -517527.96047  24248841.5574   24248839.6234
        21.4694
  -2535444.38349  -1964281.36547  23880063.6434   23880061.9824
      1945.4534
 04  9 16 21 37 45.0020000  0  8G 3G 8G13G19G23G27G10G28
   4451344.14349   3463223.50747  23696248.2754   23696246.7214
     -2466.1874
  -3598167.74349  -2800241.33348  21964144.7834   21964141.2524
       768.2664
   6093427.84249   4740387.70948  21362772.5724   21362768.5574
     -2842.3124
  -2609973.74449  -2030084.66147  23046440.5574   23046436.5574
       -15.9534
  12657105.95349   9842633.34447  24058222.4864   24058219.1664
     -4526.7814
    106284.98549     80789.21348  21426565.4864   21426561.8504
      -387.3124
   -691591.38349   -517723.06447  24248794.1114   24248791.9044
        11.9694
  -2564597.23849  -1986997.81947  23874516.2994   23874515.0804
      1941.4224
 04  9 16 21 38  0.0020000  0  8G 3G 8G13G19G23G27G10G28
   4488404.76249   3492101.91747  23703300.9554   23703299.0844
     -2475.5784
  -3609666.57149  -2809201.44548  21961956.7604   21961953.8184
       764.6884
   6136123.86549   4773657.31848  21370896.7524   21370893.5104
     -2850.6254
  -2609668.33349  -2029846.65847  23046498.3774   23046494.1704
       -24.9534
  12725033.31149   9895563.66047  24071149.1114   24071145.7714
     -4530.4694
    112117.72849     85334.21448  21427675.3854   21427672.0374
      -390.6414
   -691699.00949   -517806.92247  24248773.3694   24248771.0804
         2.2194
  -2593689.20849  -2009666.83247  23868980.6664   23868978.3144
      1937.2344
 04  9 16 21 38 15.0020000  0  8G 3G 8G13G19G23G27G10G28
   4525604.82049   3521088.96047  23710379.7834   23710377.6864
     -2484.5164
  -3621114.31649  -2818121.74948  21959778.4634   21959775.4044
       761.6724
   6178942.00449   4807022.08948  21379045.2604   21379041.6114
     -2858.4694
  -2609229.57549  -2029504.72547  23046581.5884   23046577.3964
       -33.5624
  12793015.47149   9948536.70447  24084085.2364   24084082.5764
     -4533.7664
    117998.59649     89916.70448  21428794.7604   21428790.9904
      -393.5314
   -691663.86749   -517779.52347  24248780.3544   24248778.3224
        -6.9534
  -2622720.25049  -2032288.37347  23863456.0574   23863453.3074
      1933.5944
 04  9 16 21 38 30.0020000  0  8G 3G 8G13G19G23G27G10G28
   4562942.70449   3550183.42847  23717484.9634   23717483.2294
     -2493.7504
  -3632512.31449  -2827003.29948  21957609.4004   21957606.0024
       758.2034
   6221880.68049   4840480.78548  21387216.0724   21387212.6394
     -2866.5784
  -2608658.85449  -2029059.98047  23046691.0964   23046686.3774
       -42.4534
  12861050.91649  10001551.23947  24097032.1664   24097029.7524
     -4537.5784
    123926.12449     94535.57048  21429922.7604   21429918.9394
      -396.7344
   -691487.16349   -517641.83747  24248813.4864   24248811.8504
       -16.5314
  -2651691.45749  -2054863.27847  23857943.3544   23857940.9364
      1929.4064
 04  9 16 21 38 45.0020000  0  8G 3G 8G13G19G23G27G10G28
   4600418.97349   3579385.69447  23724616.8694   23724615.0214
     -2502.9374
  -3643859.78849  -2835845.48648  21955450.0804   21955446.9864
       754.7974
   6264940.50549   4874033.88348  21395410.3544   21395406.2604
     -2874.5944
  -2607955.10349  -2028511.57947  23046824.4004   23046820.3424
       -51.3754
  12929139.91249  10054607.52947  24109989.0184   24109985.9554
     -4541.0314
    129901.06849     99191.36348  21431059.5184   21431055.7644
      -399.8754
   -691168.12249   -517393.19547  24248874.6274   24248872.2994
       -25.9374
  -2680601.95349  -2077390.90147  23852441.5494   23852439.3074
      1925.3594
 04  9 16 21 39  0.0020000  0  8G 3G 8G13G19G23G27G10G28
   4638031.97649   3608694.52647  23731774.6584   23731772.5294
     -2512.2814
  -3655157.90349  -2844649.20348  21953300.2834   21953297.2754
       751.4064
   6308119.97749   4907680.20548  21403627.2294   21403623.1354
     -2882.7664
  -2607119.58049  -2027860.48348  23046983.9864   23046979.5844
       -60.2504
  12997280.83849  10107704.25647  24122955.3304   24122953.1074
     -4544.5474
    135922.11449    103883.09748  21432205.2834   21432201.8964
      -403.1094
   -690708.03449   -517034.70247  24248961.8304   24248959.6434
       -35.5784
  -2709453.07149  -2099872.23547  23846951.3614   23846949.0144
      1921.2194
 04  9 16 21 39 15.0020000  0  8G 3G 8G13G19G23G27G10G28
   4675783.01149   3638110.92747  23738958.1974   23738956.5614
     -2521.0314
  -3666405.45449  -2853413.51848  21951159.9554   21951156.5924
       748.4224
   6351420.34349   4941420.74648  21411866.8544   21411863.1864
     -2890.4224
  -2606150.64849  -2027105.44848  23047168.0644   23047163.8384
       -68.7344
  13065475.06749  10160842.56347  24135933.2134   24135929.8144
     -4547.8284
    141990.73649    108611.89448  21433359.7994   21433356.4904
      -405.8914
   -690105.42349   -516565.12747  24249076.3384   24249074.6354
       -44.6254
  -2738243.30349  -2122306.12347  23841473.0644   23841470.8034
      1917.6094
 04  9 16 21 39 30.0020000  0  8G 3G 8G13G19G23G27G10G28
   4713672.00249   3667634.79347  23746168.0804   23746166.3614
     -2530.2664
  -3677602.41449  -2862138.39948  21949028.7054   21949026.1584
       745.0314
   6394841.55549   4975255.44248  21420129.7054   21420125.9124
     -2898.5624
  -2605048.10849  -2026246.29648  23047378.0804   23047373.6114
       -77.6874
  13133722.30249  10214022.13147  24148919.9394   24148916.5214
     -4551.3444
    148106.92549    113377.76448  21434523.8934   21434520.5574
      -409.1564
   -689360.18949   -515984.42047  24249218.3224   24249216.0024
       -54.1414
  -2766972.40049  -2144692.39547  23836005.4004   23836003.7214
      1913.4534
 04  9 16 21 39 45.0020000  0  8G 3G 8G13G19G23G27G10G28
   4751696.76449   3697264.48147  23753403.9794   23753402.4124
     -2539.7344
  -3688750.42349  -2870825.15248  21946907.5104   21946904.2604
       741.4844
   6438381.66349   5009182.77848  21428414.7524   21428411.1004
     -2906.8124
  -2603813.71649  -2025284.41147  23047612.9394   23047608.3694
       -86.7814
  13202020.28849  10267241.26147  24161916.1974   24161914.1824
     -4554.9694
    154268.98349    118179.35848  21435696.8614   21435692.9364
      -412.5004
   -688474.16849   -515293.99847  24249386.6894   24249384.4324
       -63.8754
  -2795642.18649  -2167032.43247  23830549.6274   23830547.5534
      1909.2814
 04  9 16 21 40  0.0020000  0  8G 3G 8G13G19G23G27G10G28
   4789856.56149   3726999.37547  23760665.2914   23760663.1894
     -2548.3914
  -3699850.05349  -2879474.21348  21944795.3774   21944792.6274
       738.4064
   6482039.93749   5043202.20248  21436723.0024   21436719.4554
     -2914.5004
  -2602447.80549  -2024220.03747  23047872.5574   23047868.2404
       -95.4224
  13270368.26949  10320499.34447  24174923.3384   24174919.8144
     -4558.1254
    160476.25849    123016.20448  21436877.8544   21436874.1194
      -415.2974
   -687447.84749   -514494.27147  24249581.7604   24249579.9864
       -73.0624
  -2824253.08749  -2189326.59347  23825105.5414   23825103.7834
      1905.4694
 04  9 16 21 40 15.0020000  0  8G 3G 8G13G19G23G27G10G28
   4828154.70649   3756842.09347  23767952.9554   23767951.2134
     -2557.8444
  -3710897.90049  -2888082.91748  21942693.1434   21942690.2914
       734.7034
   6525819.76949   5077316.34348  21445053.9394   21445050.5254
     -2922.7814
  -2600946.76249  -2023050.36248  23048158.3464   23048153.6824
      -104.6414
  13338769.61749  10373799.01747  24187939.8074   24187936.7444
     -4562.0624
    166732.31749    127891.05448  21438068.2914   21438064.6864
      -418.7814
   -686277.55149   -513582.35247  24249804.7214   24249802.5614
       -82.9844
  -2852801.34049  -2211571.95147  23819672.7684   23819670.0534
      1901.0474
 04  9 16 21 40 30.0020000  0  8G 3G 8G13G19G23G27G10G28
   4866589.57249   3786791.32047  23775267.1434   23775264.8034
     -2566.9844
  -3721895.38949  -2896652.37548  21940600.4164   21940597.5064
       731.4384
   6569719.42149   5111523.85248  21453407.4394   21453403.9714
     -2930.6874
  -2599311.97749  -2021776.48348  23048469.3614   23048465.1154
      -113.5004
  13407222.45049  10427138.79247  24200965.5804   24200962.8034
     -4565.2504
    173035.58849    132802.68948  21439267.8854   21439264.5574
      -421.8284
   -684964.85749   -512559.44547  24250055.1114   24250052.5184
       -92.2664
  -2881288.52949  -2233769.68947  23814251.8934   23814249.3074
      1897.0474
 04  9 16 21 40 45.0020000  0  8G 3G 8G13G19G23G27G10G28
   4905161.44449   3816847.30847  23782606.9634   23782605.3224
     -2576.0474
  -3732841.99449  -2905182.19048  21938517.3544   21938514.4434
       728.0314
   6613739.35149   5145825.09248  21461784.1894   21461780.9714
     -2938.7034
  -2597542.70449  -2020397.80448  23048805.9084   23048801.6974
      -122.4844
  13475727.11049  10480518.95247  24214001.7214   24213998.6504
     -4568.6724
    179386.77149    137751.66748  21440476.5024   21440472.8854
      -425.0474
   -683509.21449   -511425.19347  24250331.6664   24250329.5764
      -101.7344
  -2909713.95549  -2255919.32547  23808842.2214   23808840.5104
      1892.9064
 04  9 16 21 41  0.0020000  0  8G 3G 8G13G19G23G27G10G28
   4943868.88149   3847008.94647  23789973.0184   23789971.4364
     -2584.9534
  -3743738.77949  -2913673.17948  21936443.4554   21936440.4244
       724.8594
   6657878.27149   5180219.04348  21470183.6194   21470179.7834
     -2946.4534
  -2595639.92849  -2018915.08747  23049168.3074   23049163.3894
      -131.2344
  13544282.03749  10533938.29547  24227046.8384   24227044.8034
     -4571.9374
    185784.69749    142737.05548  21441693.6274   21441690.1274
      -427.9694
   -681911.71949   -510180.37547  24250635.3694   24250632.9714
      -111.1414
  -2938078.58649  -2278021.58947  23803444.9474   23803442.8034
      1888.9694
 04  9 16 21 41 15.0020000  0  8G 3G 8G13G19G23G27G10G28
   4982711.60349   3877276.00647  23797365.1354   23797363.2644
     -2594.0314
  -3754585.80849  -2922125.40648  21934379.6194   21934376.1664
       721.4384
   6702135.94149   5214705.52848  21478605.8694   21478601.8964
     -2954.4534
  -2593603.58649  -2017328.31047  23049555.6044   23049551.0254
      -140.2664
  13612886.95649  10587396.56747  24240102.3774   24240100.6234
     -4575.2974
    192229.27549    147758.81448  21442920.2214   21442916.6544
      -431.2034
   -680172.34249   -508825.03547  24250966.6584   24250964.6314
      -120.7664
  -2966382.50049  -2300076.52047  23798058.4864   23798056.1234
      1884.8754
 04  9 16 21 41 30.0020000  0  8G 3G 8G13G19G23G27G10G28
   5021689.01949   3907648.00247  23804781.7834   23804780.3654
     -2602.8754
  -3765383.37249  -2930539.08248  21932324.8074   21932321.6784
       718.3444
   6746511.71349   5249284.03748  21487050.3464   21487046.7364
     -2962.2664
  -2591433.95449  -2015637.66948  23049968.4324   23049963.3894
      -148.9224
  13681541.16249  10640893.26847  24253167.1504   24253163.7954
     -4578.4844
    198720.11549    152816.61048  21444155.1354   21444151.7564
      -434.1414
   -678291.47849   -507359.44247  24251325.0104   24251322.4324
      -130.0314
  -2994625.85149  -2322084.28847  23792684.2754   23792681.3964
      1880.9844
 04  9 16 21 41 45.0020000  0  8G 3G 8G13G19G23G27G10G28
   5060797.67249   3938122.25947  23812224.0964   23812222.3384
     -2611.6874
  -3776134.66549  -2938916.70348  21930278.8854   21930276.2174
       715.1254
   6791002.16849   5283951.91048  21495516.8544   21495513.2134
     -2969.8754
  -2589134.16949  -2013845.60248  23050405.9004   23050401.3184
      -157.7344
  13750241.21449  10694425.68447  24266239.1664   24266237.7444
     -4581.6254
    205254.03649    157907.97448  21445398.6744   21445395.2134
      -437.0474
   -676272.25949   -505786.01047  24251708.6274   24251706.6004
      -139.2344
  -3022811.88449  -2344047.38447  23787320.3774   23787317.8734
      1877.0944
 04  9 16 21 42  0.0020000  0  8G 3G 8G13G19G23G27G10G28
   5100043.46949   3968703.40947  23819692.2914   23819690.3544
     -2620.8284
  -3786833.78549  -2947253.66648  21928243.0494   21928239.8934
       711.7034
   6835613.41149   5318713.90648  21504005.8854   21504002.5104
     -2977.9534
  -2586697.89549  -2011947.17547  23050869.0024   23050865.0414
      -166.8754
  13818992.96049  10747998.37647  24279323.8614   24279321.1544
     -4585.0944
    211837.13849    163037.67148  21446651.3074   21446647.6784
      -440.4064
   -674108.51449   -504099.99447  24252121.2444   24252118.5764
      -148.8754
  -3050934.28349  -2365960.86547  23781968.8934   23781967.1074
      1872.8134
 04  9 16 21 42 15.0020000  0  8G 3G 8G13G19G23G27G10G28
   5139424.24549   3999389.71147  23827186.0724   23827183.9084
     -2629.6414
  -3797482.49149  -2955551.35648  21926216.6194   21926213.6274
       708.4224
   6880343.40849   5353568.43948  21512517.6824   21512513.6894
     -2985.7034
  -2584126.88649  -2009943.77048  23051358.9944   23051354.3934
      -175.6564
  13887794.26549  10801609.71647  24292415.2524   24292412.8854
     -4588.1564
    218467.65749    168204.30748  21447913.2524   21447909.7524
      -443.3594
   -671802.09949   -502302.76447  24252559.0024   24252557.7564
      -158.3124
  -3078994.87149  -2387826.20947  23776629.2444   23776626.7324
      1868.8594
 04  9 16 21 42 30.0020000  0  8G 3G 8G13G19G23G27G10G28
   5178938.93449   4030180.36647  23834705.2364   23834703.7134
     -2638.7344
  -3808081.42749  -2963810.26048  21924199.4554   21924196.9944
       704.9694
   6925191.03849   5388514.62548  21521051.9164   21521048.0454
     -2993.7194
  -2581421.90249  -2007835.96748  23051872.7604   23051868.9364
      -184.7814
  13956643.92949  10855258.68947  24305517.7364   24305515.5454
     -4591.5164
    225144.71049    173407.21148  21449183.8074   21449180.0214
      -446.6564
   -669353.89149   -500395.06647  24253025.6434   24253023.1504
      -167.8914
  -3106994.48849  -2409644.05747  23771300.8614   23771299.0844
      1864.7034
 04  9 16 21 42 45.0020000  0  8G 3G 8G13G19G23G27G10G28
   5218588.11949   4061075.83047  23842250.3694   23842249.0254
     -2647.8124
  -3818629.94149  -2972029.87548  21922192.2524   21922189.3424
       701.4844
   6970156.90849   5423552.94248  21529608.5724   21529604.7054
     -3001.7194
  -2578581.96149  -2005623.00748  23052413.9634   23052409.3734
      -193.7814
  14025542.31149  10908945.65747  24318628.2444   24318625.8224
     -4594.8284
    231869.01049    178646.91848  21450463.4944   21450459.8144
      -449.9064
   -666763.17849   -498376.33847  24253518.7294   24253516.3934
      -177.5164
  -3134932.20449  -2431413.64247  23765984.8464   23765982.2214
      1860.4064
 04  9 16 21 43  0.0020000  0  8G 3G 8G13G19G23G27G10G28
   5258373.09849   4092077.09747  23849821.2834   23849819.5214
     -2656.9374
  -3829126.43349  -2980208.94848  21920194.8544   21920192.0964
       698.0004
   7015242.55649   5458684.60248  21538187.8544   21538184.2094
     -3009.7664
  -2575605.32049  -2003303.51748  23052980.7134   23052975.8934
      -203.0944
  14094490.84949  10962671.68747  24331749.1434   24331746.2994
     -4598.2504
    238642.22349    183924.75148  21451752.4324   21451748.5414
      -453.2194
   -664028.27049   -496245.24747  24254039.0024   24254036.9164
      -187.2814
  -3162806.23249  -2453133.60547  23760680.2834   23760678.0924
      1856.0944
 04  9 16 21 43 15.0020000  0  8G 3G 8G13G19G23G27G10G28
   5298291.01449   4123181.97147  23857417.2054   23857416.0024
     -2665.6724
  -3839573.64049  -2988349.61448  21918206.6664   21918203.8034
       694.8134
   7060444.99249   5493907.27448  21546789.6194   21546786.3144
     -3017.3754
  -2572494.60849  -2000879.56947  23053571.8694   23053567.4944
      -211.8444
  14163486.73649  11016434.63447  24344879.4634   24344876.6114
     -4601.2814
    245461.70249    189238.63548  21453049.8774   21453046.1864
      -456.2034
   -661151.81249   -494003.84647  24254586.2294   24254584.1864
      -196.5784
  -3190619.08449  -2474805.91147  23755387.5574   23755385.1044
      1852.1414
 04  9 16 21 43 30.0020000  0  8G 3G 8G13G19G23G27G10G28
   5338343.16549   4154391.42147  23865038.7994   23865036.4204
     -2674.8124
  -3849970.02549  -2996450.69048  21916228.5254   21916225.6354
       691.2664
   7105765.69049   5529222.08448  21555413.9084   21555410.6784
     -3025.5314
  -2569248.24249  -1998349.90348  23054189.9864   23054185.4754
      -221.1094
  14232531.08149  11070235.32747  24358017.4084   24358014.8114
     -4604.8124
    252328.98249    194589.76448  21454356.8694   21454353.0494
      -459.5944
   -658132.15849   -491650.87347  24255159.9864   24255158.7134
      -206.1564
  -3218369.32749  -2496429.43847  23750107.4164   23750104.8144
      1847.7664
 04  9 16 21 43 45.0020000  0  8G 3G 8G13G19G23G27G10G28
   5378528.36949   4185704.56347  23872686.5334   23872683.8614
     -2683.6254
  -3860316.45449  -3004512.83648  21914259.6434   21914256.6704
       687.9224
   7151203.54749   5564628.18548  21564060.3694   21564057.3224
     -3033.2344
  -2565867.05849  -1995715.19948  23054833.4324   23054828.9004
      -230.1414
  14301622.59749  11124072.76947  24371165.2604   24371163.0614
     -4607.9224
    259243.01649    199977.32048  21455672.5184   21455668.8504
      -462.7504
   -654970.25049   -489187.04147  24255762.6044   24255760.6314
      -215.7194
  -3246057.84649  -2518004.85147  23744838.3384   23744835.8464
      1843.6414
 04  9 16 21 44  0.0020000  0  8G 3G 8G13G19G23G27G10G28
   5418846.41749   4217121.21947  23880357.9324   23880356.3854
     -2692.1094
  -3870612.75449  -3012535.92048  21912300.1824   21912297.2254
       684.9534
   7196758.40749   5600125.46648  21572729.8304   21572726.0254
     -3040.6724
  -2562350.70149  -1992975.15848  23055502.2754   23055498.2954
      -238.7194
  14370761.13049  11177946.84847  24384321.8304   24384320.2014
     -4610.5784
    266204.11649    205401.54948  21456996.9004   21456993.2604
      -465.4694
   -651665.93749   -486612.25547  24256391.2134   24256389.0574
      -224.8284
  -3273684.21649  -2539531.84747  23739580.8774   23739578.6044
      1839.8914
 04  9 16 21 44 15.0020000  0  8G 3G 8G13G19G23G27G10G28
   5459292.78449   4248637.86847  23888055.2054   23888053.3224
     -2701.1094
  -3880863.10749  -3020523.19748  21910349.6584   21910346.5804
       681.5004
   7242425.87749   5635710.48648  21581419.6354   21581416.0614
     -3048.6414
  -2558703.32249  -1990133.01848  23056196.5414   23056192.3464
      -247.9374
  14439942.16049  11231854.05347  24397486.3854   24397484.3574
     -4613.8754
    273207.90749    210859.05348  21458329.9164   21458326.4364
      -468.7194
   -648223.63449   -483929.93047  24257046.9394   24257044.1234
      -234.5164
  -3301252.79749  -2561013.79847  23734334.9634   23734332.6464
      1835.5474
 04  9 16 21 44 30.0020000  0  8G 3G 8G13G19G23G27G10G28
   5499872.43549   4280258.36747  23895777.3144   23895775.5374
     -2709.5474
  -3891062.47649  -3028470.75248  21908409.5024   21908405.5024
       678.5474
   7288210.95549   5671387.16148  21590132.5964   21590128.5254
     -3056.0314
  -2554919.71249  -1987184.73247  23056916.9554   23056912.1274
      -256.5314
  14509170.52649  11285798.11947  24410661.2364   24410658.2834
     -4616.5624
    280259.52849    216353.82448  21459671.6194   21459667.9794
      -471.5004
   -644638.15749   -481136.01247  24257729.1664   24257726.6544
      -243.4844
  -3328758.27249  -2582446.59347  23729100.5964   23729097.4674
      1831.8754
 04  9 16 21 44 45.0020000  0  8G 3G 8G13G19G23G27G10G28
   5540583.48449   4311981.25847  23903524.2914   23903522.0924
     -2718.6874
  -3901212.42949  -3036379.80348  21906477.6434   21906474.0764
       674.7504
   7334111.80349   5707154.03148  21598866.6584   21598862.9674
     -3064.1094
  -2551001.31849  -1984131.41648  23057662.0884   23057657.4674
      -265.8914
  14578444.39549  11339777.66847  24423842.4634   24423840.3424
     -4620.0004
    287357.45949    221884.68548  21461022.5414   21461018.6154
      -474.9694
   -640911.00849   -478231.76147  24258437.3464   24258435.9514
      -253.4064
  -3356202.23949  -2603831.47047  23723878.2134   23723875.8264
      1827.3594
 04  9 16 21 45  0.0020000  0  8G 3G 8G13G19G23G27G10G28
   5581429.76249   4343809.52747  23911297.1044   23911294.4244
     -2727.4064
  -3911308.99949  -3044247.24948  21904556.3774   21904552.8854
       671.4384
   7380132.08549   5743013.98648  21607623.9554   21607620.5534
     -3071.8594
  -2546944.17949  -1980969.99447  23058434.1744   23058429.4324
      -274.8914
  14647767.43749  11393795.53347  24437034.8074   24437031.5884
     -4623.0784
    294505.69549    227454.74348  21462382.6504   21462379.0024
      -478.0944
   -637038.31949   -475214.07547  24259174.1664   24259172.8734
      -263.0004
  -3383580.62449  -2625165.21847  23718668.0254   23718665.4474
      1823.1254
 04  9 16 21 45 15.0020000  0  8G 3G 8G13G19G23G27G10G28
   5622406.81849   4375739.69847  23919095.0644   23919092.4164
     -2736.0784
  -3921356.49549  -3052076.46248  21902644.1744   21902641.1464
       668.3134
   7426267.68349   5778963.79248  21616403.8934   21616399.9904
     -3079.4374
  -2542752.21649  -1977703.49548  23059232.2214   23059227.4164
      -283.8284
  14717135.08849  11447848.11147  24450235.7684   24450233.7404
     -4625.8594
    301699.90949    233060.62948  21463751.8224   21463748.4754
      -481.0784
   -633024.20949   -472086.20547  24259938.0334   24259936.1004
      -272.2504
  -3410897.49949  -2646451.04847  23713469.7444   23713467.2994
      1819.1414
 04  9 16 21 45 30.0020000  0  8G 3G 8G13G19G23G27G10G28
   5663512.70949   4407770.25447  23926917.1354   23926914.4164
     -2744.5474
  -3931356.11149  -3059868.35548  21900741.2604   21900738.0924
       665.1724
   7472516.80749   5815002.05348  21625204.5644   21625200.7174
     -3086.9374
  -2538426.90749  -1974333.09747  23060055.1114   23060050.7054
      -292.7034
  14786545.56649  11501934.13047  24463443.0184   24463440.9674
     -4628.6414
    308938.69249    238701.23848  21465129.4084   21465125.7404
      -484.0164
   -628870.24049   -468849.34147  24260729.5724   24260726.9284
      -281.4534
  -3438154.42549  -2667690.16147  23708283.1114   23708280.2794
      1815.2504
 04  9 16 21 45 45.0020000  0  8G 3G 8G13G19G23G27G10G28
   5704749.48149   4439902.79447  23934762.8854   23934762.1154
     -2753.5944
  -3941305.99149  -3067621.50548  21898847.9714   21898843.8504
       661.5474
   7518881.40049   5851130.28448  21634027.5494   21634023.8964
     -3094.9224
  -2533966.02449  -1970857.06047  23060904.1894   23060899.4554
      -301.9694
  14856000.72749  11556054.92747  24476660.7444   24476658.1744
     -4631.9374
    316224.30549    244378.34548  21466515.5104   21466512.2404
      -487.3754
   -624574.07849   -465501.70547  24261546.5964   24261544.6624
      -291.2664
  -3465348.99249  -2688880.68747  23703108.0024   23703105.7444
      1810.7664
 04  9 16 21 46  0.0020000  0  8G 3G 8G13G19G23G27G10G28
   5746120.40649   4472139.87747  23942636.5644   23942635.1044
     -2762.2344
  -3951202.20549  -3075332.82948  21896964.4244   21896961.5884
       658.2344
   7565364.94449   5887351.21148  21642873.2604   21642869.4324
     -3102.6254
  -2529365.83249  -1967272.48347  23061779.1894   23061774.7254
      -311.0004
  14925503.95849  11610213.17047  24489886.9394   24489885.1544
     -4634.8754
    323560.28849    250094.69948  21467911.5644   21467908.3304
      -490.4374
   -620132.24449   -462040.54247  24262392.1114   24262389.3694
      -300.6874
  -3492477.51649  -2710019.74447  23697945.1354   23697943.3114
      1806.6724
 04  9 16 21 46 15.0020000  0  8G 3G 8G13G19G23G27G10G28
   5787621.62049   4504478.47647  23950534.3934   23950531.7794
     -2771.0314
  -3961048.56649  -3083005.31748  21895090.8694   21895088.3614
       654.7504
   7611963.25549   5923661.56348  21651740.0254   21651736.6624
     -3110.3284
  -2524629.86149  -1963582.09147  23062680.2754   23062675.6664
      -320.2034
  14995051.34149  11664405.83247  24503120.9084   24503118.5764
     -4637.9224
    330942.99949    255847.46148  21469316.4714   21469312.9394
      -493.7034
   -615548.23849   -458468.64447  24263264.4004   24263262.0374
      -310.1564
  -3519543.54949  -2731110.12547  23692794.5964   23692791.8344
      1802.3444
 04  9 16 21 46 30.0020000  0  8G 3G 8G13G19G23G27G10G28
   5829254.98849   4536920.06147  23958456.7054   23958453.9204
     -2780.3754
  -3970842.83349  -3090637.20248  21893227.0644   21893223.9634
       650.8134
   7658678.46249   5960063.00048  21660630.0104   21660626.7684
     -3118.6414
  -2519755.87049  -1959784.15348  23063607.9794   23063603.0374
      -329.8914
  15064644.63749  11718634.27647  24516364.1744   24516362.0844
     -4641.5004
    338374.54849    261638.28548  21470730.8774   21470727.2954
      -497.4694
   -610820.15749   -454784.37547  24264163.4164   24264162.4324
      -320.3444
  -3546544.82149  -2752150.02647  23687656.4084   23687654.0804
      1797.5474
 04  9 16 21 46 45.0020000  0  8G 3G 8G13G19G23G27G10G28
   5871019.96249   4569464.19147  23966403.4474   23966402.3184
     -2788.6094
  -3980585.39949  -3098228.80548  21891372.6664   21891370.1824
       647.9224
   7705510.33349   5996555.35048  21669541.9244   21669538.1974
     -3125.8754
  -2514744.02249  -1955878.79847  23064561.8074   23064557.1664
      -338.5784
  15134283.26049  11772898.02047  24529616.3224   24529614.2644
     -4643.9064
    345854.57349    267466.87048  21472153.7914   21472150.1544
      -500.2034
   -605948.23849   -450988.07047  24265091.1584   24265088.9474
      -329.4064
  -3573481.73749  -2773139.78147  23682530.8224   23682528.3654
      1793.7344
 04  9 16 21 47  0.0020000  0  8G 3G 8G13G19G23G27G10G28
   5912912.75749   4602107.90347  23974376.1194   23974374.3894
     -2797.1094
  -3990279.69449  -3105782.79548  21889528.3224   21889525.4324
       644.7194
   7752455.19849   6033135.75948  21678475.0184   21678471.4594
     -3133.4224
  -2509597.70149  -1951868.65648  23065540.7294   23065536.2994
      -347.6414
  15203963.51649  11827194.23747  24542876.0574   24542873.4904
     -4646.6724
    353379.89749    273330.76848  21473585.6274   21473582.3854
      -503.2194
   -600935.86749   -447082.33347  24266045.0334   24266042.4434
      -338.7504
  -3600357.44549  -2794081.82947  23677416.5804   23677414.1894
      1789.6564
 04  9 16 21 47 15.0020000  0  8G 3G 8G13G19G23G27G10G28
   5954933.40749   4634851.26147  23982372.0724   23982370.5924
     -2805.5314
  -3999925.50349  -3113298.99848  21887693.0804   21887689.6744
       641.5004
   7799512.91549   6069804.09648  21687429.7294   21687426.5414
     -3140.8594
  -2504316.70849  -1947753.57947  23066545.4474   23066541.5534
      -356.4374
  15273685.21849  11881522.68847  24556144.2214   24556141.9554
     -4649.3444
    360950.41749    279229.86648  21475026.4944   21475023.0684
      -506.1254
   -595782.90649   -443067.01147  24267025.6824   24267023.0644
      -348.0784
  -3627171.88449  -2814976.16147  23672313.7524   23672310.4714
      1785.6564
 04  9 16 21 47 30.0020000  0  8G 3G 8G13G19G23G27G10G28
   5997084.97049   4667696.62447  23990393.4714   23990391.6354
     -2814.2664
  -4009519.42849  -3120774.78148  21885867.1584   21885864.0574
       638.0004
   7846686.65749   6106562.84348  21696406.8384   21696403.2444
     -3148.6874
  -2498897.51049  -1943530.80248  23067577.0414   23067572.2484
      -365.6564
  15343451.52249  11935885.94947  24569419.9634   24569418.4044
     -4652.3754
    368569.74649    285167.02148  21476476.6114   21476473.1544
      -509.3914
   -590485.99349   -438939.55847  24268033.5494   24268031.3264
      -357.7504
  -3653921.49949  -2835819.95747  23667223.4634   23667221.0804
      1781.2664
 04  9 16 21 47 45.0020000  0  8G 3G 8G13G19G23G27G10G28
   6039359.87249   4700638.09947  23998438.2294   23998436.3384
     -2822.6724
  -4019068.65649  -3128215.73348  21884050.4084   21884047.0454
       634.8134
   7893968.90149   6143406.13348  21705404.6664   21705400.7404
     -3156.0784
  -2493347.37649  -1939206.00548  23068632.8934   23068628.2404
      -374.6094
  15413254.81449  11990278.00747  24582702.7294   24582701.0454
     -4655.0784
    376230.43449    291136.38048  21477934.4944   21477930.7994
      -512.4224
   -585052.53849   -434705.69647  24269067.2444   24269065.9004
      -367.0784
  -3680613.55949  -2856618.91647  23662144.5644   23662141.0104
      1777.3134
 04  9 16 21 48  0.0020000  0  8G 3G 8G13G19G23G27G10G28
   6081764.12349   4733680.36147  24006508.0334   24006505.9474
     -2831.2194
  -4028567.05349  -3135617.07348  21882242.9634   21882239.3694
       631.5314
   7941365.71949   6180338.71048  21714423.9714   21714420.1544
     -3163.5784
  -2487659.74449  -1934774.07148  23069715.1664   23069711.0024
      -383.7974
  15483101.02749  12044703.51047  24595994.6974   24595991.7054
     -4657.8754
    383938.90749    297142.98948  21479401.1974   21479397.8934
      -515.4374
   -579476.09449   -430360.36747  24270127.9394   24270125.8734
      -376.5164
  -3707241.70149  -2877368.09847  23657077.0884   23657073.9594
      1773.0474
 04  9 16 21 48 15.0020000  0  8G 3G 8G13G19G23G27G10G28
   6124299.11349   4766824.48747  24014601.9394   24014600.1394
     -2840.1874
  -4038012.77649  -3142977.38048  21880445.4394   21880441.4474
       627.7664
   7988878.61849   6217361.72648  21723464.8614   21723461.3734
     -3171.5624
  -2481832.90549  -1930233.66248  23070824.0964   23070819.5964
      -393.2344
  15552991.49249  12099163.55247  24609293.9634   24609291.8934
     -4660.9224
    391696.85549    303188.14948  21480877.5574   21480873.8184
      -518.9694
   -573755.18849   -425902.54547  24271216.7294   24271215.5574
      -386.3754
  -3733804.18049  -2898066.07547  23652022.3934   23652019.4124
      1768.5164
 04  9 16 21 48 30.0020000  0  8G 3G 8G13G19G23G27G10G28
   6166961.20249   4800067.66147  24022719.5724   24022718.2644
     -2848.5004
  -4047409.39849  -3150299.41548  21878657.3144   21878653.8894
       624.6254
   8036503.87349   6254472.30148  21732527.9394   21732524.2054
     -3178.8754
  -2475870.39249  -1925587.53148  23071959.0644   23071954.4634
      -402.1094
  15622922.44349  12153655.07247  24622601.0494   24622600.1354
     -4663.5314
    399500.65149    309269.01848  21482362.8854   21482359.1194
      -521.9224
   -567893.20649   -421334.77547  24272332.5804   24272330.9004
      -395.7344
  -3760304.37549  -2918715.55047  23646979.5414   23646976.9594
      1764.4224
 04  9 16 21 48 45.0020000  0  8G 3G 8G13G19G23G27G10G28
   6209749.53049   4833409.20347  24030862.5494   24030860.8424
     -2856.8124
  -4056757.50549  -3157583.64148  21876878.0334   21876874.7364
       621.5634
   8084240.87649   6291669.94648  21741612.1114   21741608.3544
     -3186.2194
  -2469772.55149  -1920835.94347  23073119.4084   23073114.7324
      -411.0164
  15692893.30449  12208177.68547  24635917.1584   24635915.1394
     -4666.1414
    407349.92449    315385.34848  21483856.2134   21483852.9324
      -524.8914
   -561890.69249   -416657.49247  24273474.8544   24273473.1044
      -404.9064
  -3786742.68349  -2939316.76247  23641948.0724   23641945.6394
      1760.4694
 04  9 16 21 49  0.0020000  0  8G 3G 8G13G19G23G27G10G28
   6252663.51049   4866848.64047  24039028.9554   24039026.6314
     -2865.1414
  -4066057.18149  -3164830.13948  21875108.7524   21875105.1544
       618.4064
   8132089.18649   6328954.32848  21750717.2444   21750713.8344
     -3193.5784
  -2463539.51749  -1915979.02848  23074304.9244   23074300.7324
      -420.0624
  15762903.36649  12262730.88647  24649239.0724   24649237.0024
     -4668.6564
    415244.42649    321536.90148  21485358.5494   21485354.7364
      -527.7814
   -555747.87249   -411870.87047  24274643.4554   24274641.7174
      -414.1874
  -3813119.23549  -2959869.89647  23636928.8774   23636926.5764
      1756.3284
 04  9 16 21 49 15.0020000  0  8G 3G 8G13G19G23G27G10G28
   6295707.52949   4900389.41447  24047219.0574   24047217.6544
     -2873.9844
  -4075303.85149  -3172035.32948  21873348.5414   21873345.8464
       614.6564
   8180053.11549   6366328.79348  21759844.4324   21759840.8344
     -3201.4374
  -2457166.64149  -1911013.13648  23075518.0494   23075513.7644
      -429.5314
  15832956.93849  12317317.95047  24662569.8464   24662567.8814
     -4671.7664
    423188.68849    327727.23548  21486870.1274   21486866.2994
      -531.2814
   -549460.20449   -406971.38747  24275840.3774   24275838.4044
      -423.9694
  -3839429.54049  -2980371.39447  23631922.9084   23631919.4554
      1751.7814
 04  9 16 21 49 30.0020000  0  8G 3G 8G13G19G23G27G10G28
   6338879.36549   4934029.78147  24055434.5494   24055433.0644
     -2882.6254
  -4084499.37749  -3179200.65948  21871598.7994   21871596.0534
       611.1564
   8228130.61049   6403791.74748  21768992.9794   21768989.9044
     -3209.1564
  -2450655.69349  -1905939.65148  23076757.0184   23076752.5184
      -438.8284
  15903051.75549  12371937.16947  24675908.8614   24675907.0294
     -4674.6094
    431180.90449    333954.92648  21488391.3384   21488387.3504
      -534.6564
   -543029.64849   -401960.53447  24277064.2214   24277061.8114
      -433.6254
  -3865675.51049  -3000822.74447  23626928.1894   23626924.7294
      1747.3284
 04  9 16 21 49 45.0020000  0  8G 3G 8G13G19G23G27G10G28
   6382179.76049   4967770.32247  24063674.7364   24063673.8814
     -2890.9374
  -4093642.52849  -3186325.18348  21869859.1434   21869855.3264
       607.6884
   8276322.53649   6441343.89248  21778163.7754   21778160.3734
     -3216.6724
  -2444005.59749  -1900757.73848  23078022.9714   23078017.8264
      -448.0314
  15973188.64249  12426589.18347  24689255.6894   24689253.3854
     -4677.2814
    439222.11549    340220.82048  21489921.3614   21489917.8964
      -537.7344
   -536455.15349   -396837.54347  24278315.4324   24278313.3264
      -443.2034
  -3891855.71649  -3021222.86747  23621946.0024   23621942.5534
      1743.0944
 04  9 16 21 50  0.0020000  0  8G 3G 8G13G19G23G27G10G28
   6425607.16749   5001609.83147  24071938.7914   24071937.3964
     -2899.2974
  -4102735.00849  -3193410.22748  21868128.9634   21868125.1584
       604.5164
   8324627.40349   6478984.02648  21787355.9864   21787352.4864
     -3223.9534
  -2437217.62849  -1895468.39748  23079314.0964   23079309.8464
      -457.0314
  16043365.97749  12481272.69747  24702610.2604   24702607.8894
     -4679.7194
    447310.98249    346523.83048  21491460.8384   21491457.0964
      -540.7664
   -529737.98549   -391603.40147  24279593.5964   24279591.2834
      -452.5474
  -3917971.50549  -3041572.79647  23616976.2914   23616973.0804
      1739.0164
 04  9 16 21 50 15.0020000  0  8G 3G 8G13G19G23G27G10G28
   6469157.34249   5035545.03747  24080226.8544   24080224.7524
     -2907.8914
  -4111780.55849  -3200458.70548  21866407.7604   21866403.9824
       601.0164
   8373040.78949   6516708.71948  21796568.5964   21796565.5064
     -3231.7034
  -2430295.66849  -1890074.66048  23080631.6504   23080626.8144
      -466.4374
  16113579.36449  12535984.31747  24715971.8694   24715969.6044
     -4682.5624
    455443.44049    352860.81348  21493007.8934   21493004.2914
      -544.0474
   -522882.17649   -386261.21147  24280897.8614   24280895.9514
      -462.1254
  -3944026.93749  -3061875.67847  23612017.7364   23612015.3384
      1734.5634
 04  9 16 21 50 30.0020000  0  8G 3G 8G13G19G23G27G10G28
   6512839.43349   5069582.99047  24088538.6114   24088536.7874
     -2916.2344
  -4120769.95149  -3207463.41748  21864696.9714   21864693.3894
       597.7194
   8421571.93349   6554525.18348  21805804.0334   21805800.3614
     -3239.0944
  -2423230.35749  -1884569.19948  23081975.6894   23081971.6044
      -475.5624
  16183837.95449  12590731.11847  24729340.7914   24729339.7954
     -4685.1874
    463628.94349    359239.12048  21494565.6044   21494561.7134
      -547.2034
   -515878.48949   -380803.78347  24282230.8544   24282228.9864
      -471.5784
  -3970012.32549  -3082123.99147  23607073.2214   23607069.9904
      1730.2974
 04  9 16 21 50 45.0020000  0  8G 3G 8G13G19G23G27G10G28
   6556643.90349   5103716.32347  24096874.3854   24096872.2054
     -2924.3124
  -4129712.19649  -3214431.39148  21862995.2364   21862992.1624
       594.6564
   8470211.43649   6592426.08348  21815059.5644   21815056.0804
     -3246.1874
  -2416030.83649  -1878959.17648  23083346.1664   23083341.3304
      -484.4224
  16254132.15949  12645505.69347  24742717.4794   24742715.8934
     -4687.3124
    471858.35649    365651.66048  21496131.9714   21496128.3424
      -550.0314
   -508736.23749   -375238.38347  24283590.1354   24283587.7834
      -480.7504
  -3995936.79349  -3102324.84047  23602140.3774   23602136.8304
      1726.3914
 04  9 16 21 51  0.0020000  0  8G 3G 8G13G19G23G27G10G28
   6600573.50349   5137947.14647  24105234.1434   24105232.4634
     -2932.8444
  -4138604.24749  -3221360.25248  21861302.9084   21861299.9714
       591.1564
   8518962.24149   6630413.70548  21824336.9944   21824333.1394
     -3253.7814
  -2408693.79949  -1873241.98548  23084742.6894   23084737.4244
      -493.7344
  16324464.80349  12700310.25347  24756100.9474   24756099.7364
     -4690.1874
    480134.78749    372100.82348  21497706.5414   21497703.1154
      -553.3444
   -501452.28649   -369562.56047  24284976.0574   24284974.0104
      -490.3284
  -4021797.29549  -3122475.83047  23597218.6114   23597215.8034
      1721.8754
 04  9 16 21 51 15.0030000  0  8G 3G 8G13G19G23G27G10G28
   6644630.73649   5172277.44247  24113618.2494   24113616.9834
     -2941.2504
  -4147446.93449  -3228250.64948  21859620.2964   21859616.8084
       587.7034
   8567827.09249   6668490.19648  21833635.4524   21833631.8314
     -3261.2344
  -2401218.97249  -1867417.44448  23086165.2184   23086159.9134
      -502.9064
  16394840.07049  12755148.07647  24769493.7654   24769491.8904
     -4692.7194
    488458.55149    378586.87548  21499290.4374   21499287.0114
      -556.5314
   -494026.25449   -363776.03947  24286389.6794   24286387.0114
      -499.9064
  -4047595.72849  -3142578.46847  23592309.1474   23592306.4174
      1717.5314
 04  9 16 21 51 30.0030000  0  8G 3G 8G13G19G23G27G10G28
   6688810.33049   5206703.08947  24122025.1634   24122023.5464
     -2949.3124
  -4156238.21449  -3235100.99248  21857947.3904   21857944.3124
       584.4694
   8616800.21749   6706651.05748  21842954.8904   21842951.1164
     -3268.5164
  -2393606.34749  -1861485.51448  23087613.1084   23087608.2184
      -512.0004
  16465249.33749  12810012.19347  24782892.6794   24782891.0464
     -4695.1874
    496829.43249    385109.63248  21500883.3044   21500879.3704
      -559.4694
   -486458.46149   -357879.08047  24287828.7964   24287826.4334
      -509.0784
  -4073327.78649  -3162629.39047  23587412.5694   23587410.1634
      1713.4384
 04  9 16 21 51 45.0030000  0  8G 3G 8G13G19G23G27G10G28
   6733116.68649   5241227.50347  24130455.3824   24130454.2334
     -2957.9844
  -4164976.94049  -3241910.38448  21856284.4134   21856281.5774
       580.8284
   8665886.41849   6744900.03048  21852295.5224   21852292.3784
     -3276.1874
  -2385853.56049  -1855444.37448  23089088.3904   23089083.5654
      -521.4374
  16535698.51849  12864907.55447  24796298.2184   24796296.6014
     -4697.8754
    505249.75549    391670.92748  21502485.7184   21502482.2374
      -562.9224
   -478746.66649   -351869.87947  24289297.3514   24289294.6204
      -518.7974
  -4098993.33949  -3182628.48747  23582529.1014   23582525.5424
      1708.9534
 04  9 16 21 52  0.0030000  0  8G 3G 8G13G19G23G27G10G28
   6777549.26149   5275850.24147  24138912.1324   24138909.8314
     -2966.3594
  -4173663.28849  -3248678.95248  21854631.2654   21854628.6204
       577.3444
   8715085.26849   6783236.78748  21861657.7024   21861654.1794
     -3283.6874
  -2377960.79949  -1849294.15448  23090589.9294   23090585.4374
      -530.8284
  16606187.18549  12919833.70747  24809712.1244   24809710.4604
     -4700.5784
    513719.30949    398270.59248  21504097.5074   21504094.1044
      -566.2344
   -470891.06249   -345748.60947  24290791.1874   24290789.1674
      -528.4844
  -4124592.46749  -3202575.80947  23577657.6164   23577655.3744
      1704.3754
 04  9 16 21 52 15.0030000  0  8G 3G 8G13G19G23G27G10G28
   6822106.35549   5310570.05147  24147389.9684   24147388.4684
     -2974.4844
  -4182298.55249  -3255407.72048  21852988.3274   21852985.3514
       574.1564
   8764395.07249   6821659.99648  21871041.5154   21871037.4794
     -3290.9064
  -2369929.46949  -1843035.95748  23092118.6244   23092114.3194
      -539.9064
  16676713.61349  12974789.21847  24823132.7884   24823131.3544
     -4702.8914
    522236.71549    404907.52648  21505718.3194   21505714.7764
      -569.2814
   -462893.17249   -339516.51547  24292313.5154   24292310.8474
      -537.7664
  -4150126.62949  -3222472.50947  23572798.2184   23572795.5654
      1700.2194
 04  9 16 21 52 30.0030000  0  8G 3G 8G13G19G23G27G10G28
   6866785.18749   5345384.67547  24155891.8124   24155890.8744
     -2982.6414
  -4190885.16449  -3262098.57248  21851354.1874   21851351.2884
       570.7344
   8813813.15849   6860167.57048  21880444.9764   21880441.3474
     -3298.2034
  -2361761.98249  -1836671.67648  23093673.2574   23093668.0034
      -549.1254
  16747275.10849  13029772.07447  24836560.4914   24836558.6754
     -4705.3284
    530799.57349    411579.88448  21507348.0624   21507344.2574
      -572.3754
   -454755.45049   -333175.39447  24293862.3354   24293860.0894
      -547.2034
  -4175598.12049  -3242320.38947  23567950.6794   23567948.9404
      1696.0004
 04  9 16 21 52 45.0030000  0  8G 3G 8G13G19G23G27G10G28
   6911588.61749   5380296.42847  24164417.7964   24164416.4484
     -2991.1254
  -4199419.89849  -3268749.01448  21849730.5384   21849726.6904
       567.2344
   8863342.34449   6898761.72148  21889870.0774   21889866.8274
     -3305.7194
  -2353455.16849  -1830198.81648  23095253.4524   23095248.8784
      -558.4844
  16817874.33149  13084784.30947  24849994.8434   24849993.2844
     -4707.9534
    539410.82849    418289.95248  21508986.4214   21508982.8194
      -575.7344
   -446474.85849   -326723.00947  24295437.2024   24295436.0344
      -556.8284
  -4201003.89149  -3262117.05647  23563116.1874   23563113.5464
      1691.5004
 04  9 16 21 53  0.0030000  0  8G 3G 8G13G19G23G27G10G28
   6956516.51749   5415305.13647  24172967.5774   24172966.0894
     -2999.2504
  -4207902.71149  -3275358.99348  21848116.1794   21848113.2334
       563.9064
   8912982.75049   6937442.54648  21899316.4134   21899313.0734
     -3312.9694
  -2345008.82349  -1823617.24048  23096860.8584   23096856.2454
      -567.5784
  16888511.18949  13139825.89847  24863436.9764   24863435.2884
     -4710.2974
    548070.77749    425037.96548  21510634.8434   21510630.6834
      -578.8284
   -438051.31549   -320159.19847  24297041.0624   24297038.9054
      -566.1254
  -4226343.65249  -3281862.27647  23558295.1554   23558292.5974
      1687.1724
 04  9 16 21 53 15.0030000  0  8G 3G 8G13G19G23G27G10G28
   7001565.34249   5450408.09647  24181540.7884   24181538.7104
     -3007.4694
  -4216336.97549  -3281931.13848  21846511.0154   21846508.0464
       560.5004
   8962730.95249   6976207.35748  21908783.2184   21908779.8824
     -3320.2974
  -2336425.93649  -1816929.25948  23098494.0624   23098489.5934
      -576.9534
  16959182.21149  13194894.10647  24876885.4834   24876883.9174
     -4712.7664
    556776.28149    431821.48448  21512291.2414   21512287.3784
      -582.0004
   -429488.09449   -313486.57647  24298670.7494   24298667.9294
      -575.7034
  -4251620.34449  -3301558.38347  23553483.8974   23553481.2764
      1682.8134
 04  9 16 21 53 30.0030000  0  7G 3G 8G13G19G27G10G28
   7046737.92849   5485607.47447  24190136.6244   24190134.7454
     -3016.0944
  -4224719.54049  -3288462.99148  21844915.7494   21844912.1904
       556.6414
   9012589.63849   7015058.25448  21918271.0624   21918267.6634
     -3328.0004
  -2327703.63349  -1810132.64748  23100153.8744   23100149.4334
      -586.7034
    565530.22249    438642.73448  21513956.9444   21513953.1474
      -585.6414
   -420782.21249   -306702.77147  24300327.2264   24300325.0344
      -585.5784
  -4276831.04649  -3321203.03047  23548687.2024   23548684.8864
      1678.0004
 04  9 16 21 53 45.0030000  0  7G 3G 8G13G19G27G10G28
   7092033.90849   5520903.04447  24198755.9914   24198754.6944
     -3023.7344
  -4233050.22849  -3294954.43048  21843330.5934   21843327.6284
       553.7504
   9062558.63749   7053995.12348  21927779.6554   21927776.1044
     -3334.8594
  -2318841.75349  -1803227.26948  23101840.7724   23101835.5344
      -595.3914
    574332.79549    445501.88748  21515631.9054   21515628.1714
      -588.3124
   -411933.58949   -299807.75847  24302010.8274   24302008.3394
      -594.5164
  -4301975.63849  -3340796.17947  23543902.4604   23543899.2334
      1674.2194
 04  9 16 21 54  0.0030000  0  7G 3G 8G13G19G27G10G28
   7137449.60949   5556291.86747  24207397.6474   24207397.1044
     -3031.6724
  -4241332.49449  -3301408.13048  21841754.2964   21841751.4294
       550.6254
   9112634.41149   7093015.18748  21937309.3354   21937305.3434
     -3341.8594
  -2309843.57849  -1796215.69448  23103552.5074   23103548.0194
      -604.3754
    583180.53149    452396.23048  21517315.5774   21517312.0264
      -591.2664
   -402945.74449   -292804.24647  24303721.4054   24303718.7334
      -603.7504
  -4327057.54049  -3360340.47547  23539129.7494   23539126.6244
      1670.1094
 04  9 16 21 54 15.0030000  0  7G 3G 8G13G19G27G10G28
   7182986.56749   5591775.18547  24216063.2334   24216062.2414
     -3039.9224
  -4249564.56449  -3307822.73248  21840188.4054   21840184.8234
       547.0784
   9162818.51149   7132119.65748  21946858.5694   21946855.1124
     -3349.2344
  -2300707.28249  -1789096.49148  23105291.7334   23105286.3784
      -613.8444
    592075.30549    459327.21648  21519008.0934   21519004.8514
      -594.5314
   -393816.85949   -285690.85047  24305457.9604   24305456.4874
      -613.3444
  -4352074.77649  -3379834.38247  23534368.9994   23534366.0224
      1665.6094
 04  9 16 21 54 30.0030000  0  7G 3G 8G13G19G27G10G28
   7228647.79449   5627355.33447  24224752.4054   24224750.6124
     -3048.1874
  -4257743.09149  -3314195.60248  21838631.4214   21838628.2264
       543.4224
   9213114.01249   7171310.93248  21956429.8434   21956426.3784
     -3356.6874
  -2291429.58149  -1781867.11948  23107056.9214   23107052.4294
      -623.2034
    601020.34749    466297.37948  21520710.5774   21520706.7414
      -597.9534
   -384543.76649   -278465.06047  24307223.4524   24307221.0034
      -622.9374
  -4377024.03949  -3399275.32747  23529620.7184   23529617.5154
      1661.0474
 04  9 16 21 54 45.0030000  0  7G 3G 8G13G19G27G10G28
   7274431.09849   5663030.61847  24233464.9134   24233463.5384
     -3056.0474
  -4265869.98249  -3320528.23848  21837085.2024   21837081.7374
       540.2664
   9263518.69249   7210587.29248  21966021.6874   21966018.1474
     -3363.7194
  -2282012.21849  -1774528.89648  23108848.3904   23108843.9954
      -632.2664
    610013.89349    473305.34248  21522421.8744   21522418.6284
      -600.9064
   -375128.41449   -271128.40447  24309014.2804   24309012.6284
      -632.2504
  -4401907.10849  -3418664.69747  23524885.3194   23524882.8044
      1656.8594
 04  9 16 21 55  0.0030000  0  7G 3G 8G13G19G27G10G28
   7320330.89749   5698796.68247  24242200.0934   24242198.3044
     -3064.1094
  -4273950.52649  -3326824.75348  21835547.4524   21835544.2884
       536.9534
   9314026.97649   7249944.37948  21975632.9214   21975629.3824
     -3370.8754
  -2272460.54449  -1767086.00948  23110666.2804   23110661.3234
      -641.4374
    619050.56449    480346.90548  21524141.5304   21524138.1014
      -604.1564
   -365576.18849   -263685.13947  24310832.1474   24310830.0504
      -641.6414
  -4426729.31749  -3438006.63747  23520161.9764   23520158.7924
      1652.5634
 04  9 16 21 55 15.0030000  0  7G 3G 8G13G19G27G10G28
   7366354.39149   5734659.11347  24250958.4604   24250956.0734
     -3072.2814
  -4281977.02449  -3333079.15348  21834020.1324   21834017.3744
       533.4224
   9364646.32849   7289388.00248  21985265.2574   21985261.5974
     -3378.2814
  -2262766.87849  -1759532.49748  23112510.8514   23112505.8434
      -650.9374
    628137.94049    487427.97748  21525871.1014   21525867.3824
      -607.4534
   -355879.59449   -256129.33447  24312677.9444   24312675.2184
      -651.2194
  -4451483.01549  -3457295.19447  23515451.8354   23515448.6044
      1648.0314
 04  9 16 21 55 30.0030000  0  7G 3G 8G13G19G27G10G28
   7412500.64849   5770617.22447  24259739.0774   24259736.7104
     -3080.3444
  -4289950.18549  -3339292.00048  21832502.7654   21832500.1044
       529.9384
   9415375.81949   7328917.45648  21994918.5304   21994915.3744
     -3385.4534
  -2252931.91649  -1751868.88348  23114382.8044   23114377.4174
      -660.2344
    637275.42449    494548.09548  21527609.0384   21527605.6084
      -610.6564
   -346039.35349   -248461.59547  24314549.7264   24314548.0384
      -660.6094
  -4476168.77849  -3476530.82347  23510753.6244   23510750.6834
      1643.5784
 04  9 16 21 55 45.0030000  0  7G 3G 8G13G19G27G10G28
   7458767.59449   5806669.37347  24268543.6164   24268541.4564
     -3088.5314
  -4297871.80849  -3345464.69648  21830995.1714   21830992.0224
       526.3284
   9466213.43849   7368531.16448  22004592.9764   22004589.4914
     -3392.8124
  -2242957.36549  -1744096.48848  23116280.9604   23116275.9014
      -669.7504
    646461.30849    501705.92748  21529357.4994   21529354.0544
      -614.1094
   -336057.19349   -240683.31547  24316449.4524   24316447.6164
      -670.3594
  -4500788.37449  -3495714.88747  23506068.9994   23506066.4214
      1638.9694
 04  9 16 21 56  0.0030000  0  7G 3G 8G13G19G27G10G28
   7505157.78449   5842817.54547  24277370.9834   24277369.7964
     -3096.7664
  -4305738.87449  -3351594.87448  21829498.3194   21829494.6084
       522.5944
   9517161.95849   7408231.28148  22014287.7334   22014284.4564
     -3400.3124
  -2232840.21949  -1736212.98948  23118205.4604   23118200.8744
      -679.3124
    655698.48149    508903.72848  21531115.5074   21531111.6834
      -617.6094
   -325930.35949   -232792.28147  24318376.8824   24318374.4794
      -680.0314
  -4525338.76349  -3514845.04947  23501397.6014   23501394.2574
      1634.4064
 04  9 16 21 56 15.0030000  0  7G 3G 8G13G19G27G10G28
   7551666.18249   5879057.84647  24286221.7334   24286219.4214
     -3104.8914
  -4313556.35549  -3357686.40848  21828010.4294   21828007.8824
       519.1254
   9568216.18449   7448013.77948  22024003.9914   22024000.3624
     -3407.4534
  -2222585.35349  -1728222.17548  23120157.4444   23120152.4994
      -688.6874
    664982.04449    516137.67148  21532881.6634   21532878.4644
      -620.8124
   -315663.67549   -224792.27847  24320330.5854   24320328.6124
      -689.4374
  -4549824.69749  -3533924.95347  23496738.0624   23496734.0854
      1629.9064
 04  9 16 21 56 30.0030000  0  7G 3G 8G13G19G27G10G28
   7598292.58449   5915390.09447  24295094.4054   24295092.3154
     -3112.4374
  -4321323.90449  -3363739.02948  21826532.1554   21826529.1874
       516.0314
   9619376.13049   7487878.65148  22033739.6794   22033735.9174
     -3414.2664
  -2212192.40949  -1720123.77048  23122135.0774   23122130.5624
      -697.5624
    674312.34849    523408.04348  21534657.5384   21534653.4484
      -623.6414
   -305256.97349   -216683.15547  24322311.1714   24322308.4014
      -698.5314
  -4574245.94249  -3552954.46447  23492090.6474   23492087.6634
      1625.7664
 04  9 16 21 56 45.0030000  0  7G 3G 8G13G19G27G10G28
   7645037.13749   5951814.41847  24303988.6714   24303986.6944
     -3120.0164
  -4329041.07349  -3369752.41348  21825063.8824   21825060.7144
       513.0634
   9670642.02549   7527826.08448  22043494.8434   22043491.1244
     -3421.0784
  -2201660.96849  -1711917.43148  23124138.8974   23124134.3354
      -706.4694
    683689.79449    530715.14848  21536441.5694   21536438.0154
      -626.5944
   -294709.97649   -208464.69847  24324317.7184   24324315.3944
      -707.5784
  -4598602.01749  -3571933.18447  23487455.4524   23487452.1944
      1621.7344
 04  9 16 21 57  0.0030000  0  7G 3G 8G13G19G27G10G28
   7691899.59949   5988330.61547  24312906.3974   24312904.9994
     -3128.5474
  -4336707.87449  -3375726.52948  21823604.9054   21823602.2104
       508.9534
   9722013.72849   7567855.95848  22053270.3664   22053266.8354
     -3428.7974
  -2190990.91349  -1703603.10848  23126169.1714   23126164.8514
      -716.4694
    693114.45649    538059.03148  21538235.4374   21538231.8274
      -630.4224
   -284022.68849   -200136.96447  24326351.2804   24326348.7374
      -717.6254
  -4622892.85049  -3590861.07547  23482833.5624   23482830.4874
      1616.6254
 04  9 16 21 57 15.0030000  0  7G 3G 8G13G19G27G10G28
   7738884.78149   6024942.43347  24321847.9684   24321846.2764
     -3136.5314
  -4344318.95349  -3381657.22948  21822156.6874   21822152.9404
       505.5474
   9773495.96649   7607971.97548  22063067.2574   22063063.7024
     -3435.8914
  -2180177.20349  -1695176.83348  23128226.7964   23128222.2924
      -725.8284
    702591.29449    545443.59748  21540038.5854   21540035.1794
      -633.6094
   -273190.07349   -191695.93847  24328412.7414   24328410.1984
      -727.0944
  -4647113.33049  -3609734.13947  23478224.6084   23478221.5424
      1612.2504
 04  9 16 21 57 30.0030000  0  7G 3G 8G13G19G27G10G28
   7785988.67749   6061646.75347  24330811.8274   24330809.2884
     -3144.3754
  -4351878.06249  -3387547.44348  21820718.4444   21820715.3864
       502.0784
   9825084.85249   7648171.09148  22072883.8124   22072880.6904
     -3442.9374
  -2169223.42449  -1686641.40548  23130311.6084   23130307.2334
      -735.0784
    712116.98849    552866.20548  21541851.3194   21541847.6444
      -636.8124
   -262215.96849   -183144.70947  24330501.7724   24330498.8394
      -736.4534
  -4671266.86449  -3628555.05147  23473628.0384   23473625.1984
      1607.7974
 04  9 16 21 57 45.0030000  0  7G 3G 8G13G19G27G10G28
   7833211.73649   6098443.95647  24339797.7884   24339795.8434
     -3152.2344
  -4359384.56349  -3393396.66248  21819289.9834   21819286.7374
       498.5634
   9876781.03149   7688453.80448  22082721.7494   22082718.2654
     -3450.0164
  -2158128.79349  -1677996.24348  23132422.7024   23132417.8624
      -744.4224
    721692.04049    560327.28848  21543673.4684   21543669.6474
      -640.0314
   -251099.58249   -174482.54747  24332616.4914   24332614.3824
      -745.8594
  -4695352.77449  -3647323.24747  23469044.2654   23469040.8864
      1603.3914
 04  9 16 21 58  0.0030000  0  7G 3G 8G13G19G27G10G28
   7880554.80749   6135334.63647  24348806.0694   24348804.7764
     -3160.1564
  -4366837.30949  -3399203.98948  21817871.2654   21817868.1514
       495.0784
   9928585.41449   7728820.82648  22092579.7654   22092576.1514
     -3457.2194
  -2146892.13249  -1669240.39348  23134560.9444   23134556.1124
      -753.8284
    731317.64749    567827.75548  21545504.9444   21545501.6474
      -643.3754
   -239839.92949   -165708.81947  24334759.5464   24334756.5894
      -755.2664
  -4719369.80449  -3666037.80147  23464474.2414   23464470.9174
      1598.8594
 04  9 16 21 58 15.0030000  0  7G 3G 8G13G19G27G10G28
   7928012.82949   6172314.93647  24357837.9524   24357836.3624
     -3167.4694
  -4374240.65549  -3404972.81648  21816462.8194   21816459.9564
       492.1724
   9980492.96549   7769268.25448  22102457.3434   22102453.8784
     -3463.6874
  -2135518.08049  -1660377.47448  23136725.6244   23136720.4604
      -762.6094
    740989.34649    575364.15648  21547345.3274   21547341.9644
      -646.0474
   -228441.65749   -156827.04047  24336927.9764   24336925.4054
      -764.2664
  -4743322.62149  -3684702.28847  23459915.9214   23459913.1324
      1594.9384
 04  9 16 21 58 30.0030000  0  7G 3G 8G13G19G27G10G28
   7975586.76149   6209385.51247  24366890.3824   24366889.1014
     -3175.5004
  -4381593.55349  -3410702.33448  21815063.4374   21815060.4134
       488.4694
  10032504.78749   7809796.92748  22112354.6324   22112351.5464
     -3470.9374
  -2124005.41349  -1651406.57948  23138916.1164   23138911.1984
      -772.2034
    750708.22749    582937.30848  21549194.7654   21549191.4214
      -649.5164
   -216903.65549   -147836.39147  24339123.7654   24339120.9764
      -773.8594
  -4767209.97249  -3703315.77347  23455370.4214   23455367.5694
      1590.2344
 04  9 16 21 58 45.0030000  0  7G 3G 8G13G19G27G10G28
   8023279.14049   6246548.42447  24375966.8584   24375964.3974
     -3183.3594
  -4388893.15149  -3416390.34248  21813674.3974   21813670.7064
       485.0004
  10084623.35149   7850408.76148  22122272.4444   22122269.1474
     -3477.9844
  -2112351.25949  -1642325.41248  23141133.9764   23141129.5074
      -781.4844
    760477.12649    590549.43548  21551053.8354   21551050.6124
      -652.7504
   -205223.24049   -138734.77447  24341346.7804   24341344.3544
      -783.2814
  -4791028.99149  -3721876.02847  23450837.4914   23450834.3544
      1585.7974
 04  9 16 21 59  0.0030000  0  7G 3G 8G13G19G27G10G28
   8071089.28049   6283803.07347  24385063.4834   24385062.6474
     -3191.2194
  -4396139.74749  -3422037.03348  21812295.6874   21812292.7724
       481.2974
  10136848.17749   7891103.40748  22132210.8354   22132207.5504
     -3485.2664
  -2100555.87949  -1633134.20448  23143378.9994   23143374.0384
      -791.0624
    770295.82049    598200.36048  21552922.5304   21552919.1554
      -656.2034
   -193400.90849   -129522.57447  24343596.5624   24343594.4174
      -792.9374
  -4814779.88949  -3740383.18247  23446318.4994   23446315.3354
      1581.1254
 04  9 16 21 59 15.0030000  0  7G 3G 8G13G19G27G10G28
   8119018.38349   6321150.41447  24394184.9294   24394183.2414
     -3198.9374
  -4403331.84649  -3427641.24548  21810926.5464   21810923.4954
       477.9844
  10189180.55149   7931881.85848  22142169.1404   22142166.1714
     -3492.1414
  -2088617.74849  -1623831.76748  23145650.4994   23145645.4404
      -800.3594
    780165.70249    605891.17748  21554800.5854   21554797.3704
      -659.4064
   -181435.08449   -120198.54047  24345873.2654   24345871.1944
      -802.1874
  -4838461.03449  -3758835.98747  23441811.9294   23441808.6944
      1576.7344
 04  9 16 21 59 30.0030000  0  7G 3G 8G13G19G27G10G28
   8167064.21949   6358588.74447  24403327.3664   24403326.2334
     -3206.7814
  -4410471.50049  -3433204.62048  21809568.2264   21809565.2064
       474.3594
  10241618.20649   7972742.34748  22152147.6324   22152144.2454
     -3499.2034
  -2076538.79149  -1614419.59448  23147949.0074   23147943.8864
      -809.8754
    790084.98849    613620.50148  21556688.0074   21556684.4294
      -662.8914
   -169327.78049   -110764.30347  24348177.3274   24348174.4874
      -811.8284
  -4862074.47349  -3777236.05647  23437318.6164   23437315.3864
      1572.1254
 04  9 16 21 59 45.0030000  0  7G 3G 8G13G19G27G10G28
   8215227.06849   6396118.24547  24412492.7184   24412490.4134
     -3214.8284
  -4417557.92749  -3438726.49748  21808219.3434   21808216.8744
       470.6254
  10294161.58049   8013685.20848  22162146.2414   22162143.0154
     -3506.4064
  -2064318.43849  -1604897.22648  23150274.1474   23150269.6984
      -819.4064
    800054.27849    621388.77548  21558585.1244   21558581.9684
      -666.3124
   -157078.56849   -101219.46047  24350508.6404   24350505.7534
      -821.4064
  -4885619.55349  -3795582.83147  23432837.9134   23432834.3864
      1567.3594
 04  9 16 22  0  0.0030000  0  7G 3G 8G13G19G27G10G28
   8263505.92949   6433738.13247  24421680.4994   24421678.4404
     -3222.6564
  -4424591.68849  -3444207.35848  21806881.2654   21806878.0734
       467.0314
  10346809.59749   8054709.61348  22172164.9374   22172161.9724
     -3513.5314
  -2051957.42549  -1595265.26947  23152626.7024   23152621.4484
      -828.9374
    810072.87949    629195.48248  21560491.6014   21560488.6514
      -669.7194
   -144688.25249    -91564.64847  24352866.1554   24352864.0194
      -830.9534
  -4909096.93349  -3813876.87147  23428369.7574   23428367.3474
      1562.6884
 04  9 16 22  0 15.0030000  0  7G 3G 8G13G19G27G10G28
   8311902.45449   6471449.71947  24430889.4684   24430887.9334
     -3230.6094
  -4431571.04349  -3449645.81348  21805553.4764   21805550.6674
       463.3134
  10399564.00449   8095816.92248  22182203.9684   22182201.0384
     -3520.8124
  -2039453.70649  -1585522.11248  23155006.3194   23155000.7334
      -838.6094
    820142.71549    637042.10548  21562407.8744   21562404.4834
      -673.2344
   -132154.89049    -81798.39547  24355251.0854   24355248.9564
      -840.6094
  -4932504.49949  -3832116.50547  23423915.9294   23423913.5034
      1557.8754
 04  9 16 22  0 30.0030000  0  7G 3G 8G13G19G27G10G28
   8360418.98949   6509254.79747  24440121.8974   24440119.9994
     -3238.2194
  -4438493.17049  -3455039.67048  21804236.0304   21804232.4174
       459.7814
  10452427.33649   8137009.10148  22192263.7414   22192260.4334
     -3527.6564
  -2026804.49849  -1575665.57647  23157412.4914   23157408.0544
      -847.8914
    830266.58349    644930.83548  21564334.4914   21564330.5194
      -676.5624
   -119475.90049    -71918.69447  24357663.4994   24357661.7614
      -849.9374
  -4955839.51349  -3850299.61147  23419475.6944   23419472.4604
      1553.4224
 04  9 16 22  0 45.0030000  0  7G 3G 8G13G19G27G10G28
   8409050.72849   6547149.67747  24449375.8584   24449374.4764
     -3246.1874
  -4445362.46249  -3460392.35448  21802928.5304   21802925.4484
       455.9844
  10505394.85349   8178282.46648  22202343.0624   22202340.0034
     -3534.9694
  -2014014.32249  -1565699.21348  23159846.8274   23159842.1944
      -857.5624
    840439.97549    652858.15648  21566270.3514   21566267.1404
      -680.1254
   -106655.91849    -61929.05747  24360103.2574   24360100.4404
      -859.5474
  -4979106.51149  -3868429.69647  23415047.5544   23415044.6794
      1548.6884
 04  9 16 22  1  0.0030000  0  7G 3G 8G13G19G27G10G28
   8457794.62149   6585131.93747  24458651.9764   24458650.2534
     -3253.2664
  -4452181.55549  -3465705.93348  21801631.3904   21801627.9914
       452.9064
  10558463.56149   8219634.68848  22212441.4214   22212438.4834
     -3541.2664
  -2001085.90249  -1555625.10148  23162307.0624   23162302.4524
      -866.4534
    850660.23949    660822.00148  21568215.4444   21568211.6364
      -682.8914
    -93697.78449    -51831.87547  24362569.4134   24362566.4484
      -868.4694
  -5002308.07749  -3886508.81647  23410632.3044   23410629.0974
      1544.6884
 04  9 16 22  1 15.0030000  0  7G 3G 8G13G19G27G10G28
   8506653.23949   6623203.58547  24467949.8664   24467947.4764
     -3261.1874
  -4458947.50649  -3470978.09348  21800343.1324   21800339.9954
       449.1564
  10611636.09649   8261067.80548  22222560.0304   22222556.9914
     -3548.4224
  -1988016.41649  -1545441.07947  23164794.3974   23164788.9404
      -876.1414
    860930.16849    668824.53848  21570169.4214   21570165.8154
      -686.5004
    -80598.69349    -41624.79047  24365061.6084   24365059.6754
      -877.9844
  -5025441.32449  -3904534.68247  23406230.4684   23406227.8124
      1539.8134
 04  9 16 22  1 30.0030000  0  7G 3G 8G13G19G27G10G28
   8555627.78849   6661365.56247  24477268.9834   24477266.7694
     -3268.7814
  -4465658.92049  -3476207.76348  21799066.5624   21799063.5654
       445.6564
  10664913.74849   8302582.84948  22232698.5224   22232694.7804
     -3555.2664
  -1974804.26049  -1535145.88748  23167308.3274   23167303.3044
      -885.5314
    871251.43149    676867.08448  21572133.7884   21572130.2694
      -689.7664
    -67357.12549    -31306.68747  24367581.8274   24367579.9334
      -887.3754
  -5048504.60049  -3922506.05347  23401841.5854   23401838.7694
      1535.2814
 04  9 16 22  1 45.0030000  0  7G 3G 8G13G19G27G10G28
   8604716.16149   6699616.25447  24486610.5154   24486608.2294
     -3276.5944
  -4472317.53249  -3481396.27548  21797799.3514   21797796.2534
       441.9694
  10718294.59049   8344178.27448  22242856.3514   22242853.3704
     -3562.4374
  -1961451.10849  -1524740.81148  23169849.1164   23169844.2614
      -895.0944
    881622.32449    684948.30048  21574107.1794   21574103.6514
      -693.2664
    -53974.92349    -20878.96447  24370128.6474   24370126.3864
      -897.0164
  -5071499.66949  -3940424.25647  23397465.7494   23397462.6554
      1530.4384
 04  9 16 22  2  0.0030000  0  7G 3G 8G13G19G27G10G28
   8653922.72949   6737959.01647  24495973.2804   24495972.0734
     -3284.1874
  -4478918.60949  -3486539.97048  21796543.1084   21796540.4914
       438.2974
  10771782.82049   8385857.40648  22253034.4214   22253031.7334
     -3569.2664
  -1947952.41549  -1514222.34147  23172418.0224   23172413.0464
      -904.6724
    892047.44649    693071.76548  21576090.9134   21576087.4834
      -696.6564
    -40447.64549    -10338.24847  24372701.9374   24372699.7414
      -906.4534
  -5094421.86649  -3958285.67847  23393104.3354   23393101.0264
      1525.8914
 04  9 16 22  2 15.0030000  0  7G 3G 8G13G19G27G10G28
   8703247.00449   6776393.49747  24505359.7264   24505358.9954
     -3292.0004
  -4485462.10749  -3491638.80048  21795298.0544   21795294.6164
       434.4064
  10825378.20349   8427620.01948  22263234.4054   22263230.4604
     -3576.5164
  -1934308.25149  -1503590.51247  23175014.7104   23175009.3944
      -914.3754
    902526.83649    701237.52648  21578085.0464   21578081.4174
      -700.3124
    -26775.47049       315.37347  24375303.6474   24375300.9794
      -916.2034
  -5117271.15949  -3976090.28447  23388756.1084   23388752.8084
      1520.9844
 04  9 16 22  2 30.0030000  0  7G 3G 8G13G19G27G10G28
   8752686.06749   6814917.41747  24514768.3274   24514765.7024
     -3299.7194
  -4491950.84149  -3496694.94148  21794063.3194   21794059.6904
       430.7034
  10879077.70349   8469463.76548  22273452.4524   22273449.0734
     -3583.4844
  -1920521.31949  -1492847.43248  23177638.1244   23177633.0694
      -923.9224
    913057.69049    709443.38748  21580089.2654   21580085.9794
      -703.7974
    -12961.06949     11079.83647  24377933.5854   24377930.5304
      -925.7344
  -5140050.18649  -3993840.15547  23384421.2724   23384418.1674
      1516.2194
 04  9 16 22  2 45.0030000  0  7G 3G 8G13G19G27G10G28
   8802238.64749   6853529.82847  24524197.1244   24524195.3904
     -3307.4064
  -4498386.01449  -3501709.35748  21792838.8664   21792835.8394
       427.1414
  10932880.16749   8511387.74548  22283690.8434   22283687.6204
     -3590.3284
  -1906592.59649  -1481993.85647  23180288.4374   23180283.2414
      -933.3284
    923639.03049    717688.58748  21582102.5854   21582099.5424
      -707.1724
       994.35449     21954.18647  24380588.5694   24380586.1474
      -935.0474
  -5162760.05249  -4011536.10447  23380100.2654   23380096.5814
      1511.5784
 04  9 16 22  3  0.0030000  0  7G 3G 8G13G19G27G10G28
   8851904.59749   6892230.57047  24533648.7804   24533646.3394
     -3315.0314
  -4504767.17549  -3506681.68248  21791624.2334   21791620.6364
       423.4064
  10986785.82049   8553392.13148  22293949.2334   22293945.4294
     -3597.3914
  -1892521.63149  -1471029.45448  23182965.8514   23182961.0734
      -943.0314
    934271.39449    725973.54448  21584125.6244   21584122.5624
      -710.7194
     15091.06949     32938.62447  24383271.3274   24383268.8124
      -944.6724
  -5185400.28549  -4029177.82547  23375791.6084   23375788.1834
      1506.7814
 04  9 16 22  3 15.0030000  0  7G 3G 8G13G19G27G10G28
   8901687.26749   6931022.22947  24543121.8824   24543120.1284
     -3322.6874
  -4511090.24549  -3511608.75748  21790421.3274   21790417.7724
       419.7034
  11040797.84149   8595479.39548  22304227.0694   22304223.5154
     -3604.2504
  -1878304.85849  -1459951.42848  23185670.6794   23185666.3194
      -952.5474
    944958.28149    734300.98948  21586159.5694   21586155.8624
      -714.1874
     29332.64349     44035.96647  24385981.3354   24385978.8624
      -954.1724
  -5207967.18549  -4046762.38647  23371496.6084   23371493.0774
      1502.1094
 04  9 16 22  3 30.0030000  0  7G 3G 8G13G19G27G10G28
   8951578.34449   6969898.37047  24552615.5854   24552614.0154
     -3330.1094
  -4517363.22149  -3516496.76948  21789227.5544   21789223.7414
       416.0004
  11094908.01949   8637643.14348  22314524.2264   22314520.6594
     -3611.1724
  -1863950.34449  -1448766.07848  23188403.4834   23188398.4484
      -962.0624
    955691.91149    742664.84948  21588202.0304   21588198.6944
      -717.5944
     43710.86849     55239.76747  24388716.9764   24388714.8154
      -963.5624
  -5230468.68249  -4064296.00147  23367215.1474   23367212.3394
      1497.4064
 04  9 16 22  3 45.0030000  0  7G 3G 8G13G19G27G10G28
   9001583.83449   7008863.68147  24562131.8824   24562130.1674
     -3337.0784
  -4523579.85849  -3521340.89348  21788044.5774   21788041.3784
       413.0474
  11149122.46749   8679888.15848  22324840.5934   22324837.4014
     -3617.2504
  -1849451.76149  -1437468.44948  23191161.6874   23191157.3704
      -970.8284
    966478.36549    751069.88748  21590254.5624   21590251.5694
      -720.3754
     58231.97349     66554.92447  24391480.4444   24391478.0974
      -972.3284
  -5252898.43449  -4081773.68847  23362946.6164   23362943.7334
      1493.3754
 04  9 16 22  4  0.0030000  0  7G 3G 8G13G19G27G10G28
   9051698.87349   7047914.33747  24571667.8584   24571667.0464
     -3344.6874
  -4529744.92849  -3526144.84748  21786871.1554   21786867.9644
       409.2344
  11203436.40849   8722210.68348  22335176.0224   22335172.8514
     -3624.2344
  -1834813.53149  -1426062.02548  23193947.9684   23193942.6794
      -980.5314
    977313.28849    759512.67548  21592316.6084   21592313.2104
      -723.9534
     72891.33849     77977.79747  24394270.3194   24394268.1204
      -981.8914
  -5275260.99249  -4099199.03147  23358691.1014   23358687.6324
      1488.6564
 04  9 16 22  4 15.0030000  0  7G 3G 8G13G19G27G10G28
   9101925.80749   7087052.20147  24581226.4214   24581224.2654
     -3352.2344
  -4535855.77549  -3530906.53248  21785708.4764   21785705.2414
       405.5314
  11257852.09149   8764612.50048  22345531.1244   22345527.5814
     -3631.1874
  -1820033.17049  -1414544.82948  23196760.3824   23196755.2334
      -990.2344
    988199.26249    767995.26948  21594388.0774   21594384.4794
      -727.5004
     87691.34649     89510.26647  24397086.1404   24397083.9134
      -991.4064
  -5297553.67749  -4116569.92547  23354448.4834   23354445.6674
      1483.8134
 04  9 16 22  4 30.0030000  0  7G 3G 8G13G19G27G10G28
   9152264.16849   7126276.87947  24590805.2494   24590802.9174
     -3359.6564
  -4541912.11749  -3535625.74948  21784556.0694   21784552.8194
       401.9064
  11312369.35049   8807093.46248  22355905.3514   22355902.1084
     -3637.9374
  -1805110.77149  -1402916.96548  23199599.2964   23199594.6364
      -999.5944
    999136.27049    776517.60548  21596469.1244   21596465.5504
      -730.8444
    102632.04149    101152.36247  24399929.3904   24399926.2374
     -1000.7664
  -5319776.42649  -4133886.32747  23350219.8194   23350216.8354
      1479.0784
 04  9 16 22  4 45.0030000  0  7G 3G 8G13G19G27G10G28
   9202718.95049   7165592.25147  24600406.6014   24600404.8584
     -3367.3124
  -4547908.60649  -3540298.33748  21783414.6794   21783411.4914
       397.9384
  11366993.09549   8849657.38248  22366299.5774   22366296.2454
     -3644.9694
  -1790040.93249  -1391174.21148  23202466.9134   23202463.1514
     -1009.4224
   1010129.70249    785083.92648  21598561.1164   21598557.8044
      -734.6254
    117718.58949    112908.12647  24402800.7184   24402798.3274
     -1010.4844
  -5341923.97349  -4151144.12147  23346005.3664   23346002.4834
      1474.1884
 04  9 16 22  5  0.0030000  0  7G 3G 8G13G19G27G10G28
   9253285.74749   7204994.92647  24610029.0304   24610027.5774
     -3374.8754
  -4553849.59149  -3544927.67648  21782284.7024   21782280.4564
       394.2664
  11421719.05349   8892300.97148  22376713.5854   22376710.6594
     -3651.7974
  -1774827.75349  -1379319.75348  23205362.0934   23205357.4644
     -1018.9534
   1021175.59349    793691.10148  21600663.0074   21600659.7334
      -738.0784
    132946.74849    124774.19747  24405698.1714   24405695.5344
     -1019.8444
  -5364000.19149  -4168346.34447  23341804.2574   23341801.7654
      1469.3914
 04  9 16 22  5 15.0030000  0  7G 3G 8G13G19G27G10G28
   9303964.37649   7244484.75047  24619672.5544   24619671.0074
     -3382.6094
  -4559734.67549  -3549513.43748  21781164.2184   21781161.0424
       390.2504
  11476547.06049   8935024.07048  22387147.2654   22387144.2964
     -3658.8594
  -1759471.11249  -1367353.52047  23208284.4214   23208279.5974
     -1028.8444
   1032274.08749    802339.27548  21602775.5154   21602771.8004
      -741.8594
    148316.59649    136750.73947  24408623.3434   24408620.8864
     -1029.6414
  -5386005.02449  -4185492.93647  23337616.7104   23337613.7494
      1464.3284
 04  9 16 22  5 30.0030000  0  7G 3G 8G13G19G27G10G28
   9354754.60349   7284061.53847  24629337.5854   24629335.6834
     -3389.5624
  -4565563.70549  -3554055.53648  21780055.1634   21780052.1714
       386.9534
  11531477.06749   8977826.65048  22397600.3824   22397597.1754
     -3665.2344
  -1743970.82649  -1355275.35948  23211234.3904   23211229.5344
     -1038.0004
   1043425.27449    811028.51548  21604897.2724   21604893.9724
      -744.9844
    163828.02049    148837.54147  24411575.6474   24411572.1124
     -1038.6414
  -5407938.21749  -4202583.71247  23333442.9134   23333439.8434
      1460.0164
 04  9 16 22  5 45.0030000  0  7G 3G 8G13G19G27G10G28
   9405654.82949   7323724.00147  24639023.5544   24639022.3944
     -3397.2504
  -4571338.17049  -3558555.10248  21778956.0624   21778953.0654
       382.9064
  11586507.49049   9020707.47648  22408072.6244   22408069.0464
     -3672.2194
  -1728328.29449  -1343086.33748  23214211.0304   23214206.0974
     -1047.7664
   1054627.89349    819757.82848  21607028.9374   21607025.5344
      -748.6874
    179479.53149    161033.52847  24414553.3194   24414550.8514
     -1048.2034
  -5429801.11249  -4219619.69347  23329282.6794   23329279.7454
      1454.9694
 04  9 16 22  6  0.0030000  0  7G 3G 8G13G19G27G10G28
   9456666.74649   7363473.53547  24648731.0304   24648729.3314
     -3404.4374
  -4577055.84549  -3563010.43048  21777868.3124   21777864.6794
       379.4064
  11641640.18749   9063668.00448  22418563.3744   22418560.3514
     -3678.8284
  -1712541.50349  -1330784.92348  23217215.3044   23217210.4444
     -1057.1094
   1065884.06349    828528.86948  21609171.1014   21609167.6794
      -752.0944
    195273.10549    173340.21147  24417558.7804   24417556.2614
     -1057.4694
  -5451591.56249  -4236599.23647  23325135.8194   23325134.0194
      1450.3134
 04  9 16 22  6 15.0030000  0  7G 3G 8G13G19G27G10G28
   9507788.95649   7403308.99747  24658459.1324   24658458.1324
     -3411.9064
  -4582717.45749  -3567422.07448  21776791.0224   21776787.6164
       375.5164
  11696873.80849   9106707.16748  22429074.3354   22429070.8974
     -3685.6414
  -1696611.48849  -1318371.90248  23220246.4524   23220241.1324
     -1066.8914
   1077192.70449    837340.79548  21611322.8974   21611319.7574
      -755.7504
    211207.63449    185756.69347  24420591.2964   24420588.5384
     -1067.0784
  -5473310.68249  -4253523.20647  23321003.5384   23320999.9174
      1445.4534
 04  9 16 22  6 30.0030000  0  7G 3G 8G13G19G27G10G28
   9559022.34549   7443231.07847  24668208.7884   24668207.3194
     -3419.2664
  -4588322.09749  -3571789.31548  21775724.0854   21775720.5854
       371.7344
  11752209.18549   9149825.61948  22439604.2414   22439600.9874
     -3692.4694
  -1680537.04849  -1305846.34148  23223304.2964   23223300.3124
     -1076.4224
   1088555.12249    846194.62448  21613484.9994   21613481.6474
      -759.2974
    227284.14849    198283.84247  24423650.2884   24423647.6284
     -1076.5784
  -5494957.20049  -4270390.59147  23316883.9214   23316880.9644
      1440.6094
 04  9 16 22  6 45.0030000  0  7G 3G 8G13G19G27G10G28
   9610366.51549   7483239.50147  24677979.1474   24677977.7144
     -3426.4844
  -4593869.60049  -3576112.04248  21774668.7414   21774665.2534
       368.0944
  11807646.11249   9193023.21148  22450153.7414   22450150.3154
     -3699.0314
  -1664318.18949  -1293208.24448  23226391.0074   23226386.4954
     -1085.8754
   1099971.35349    855090.39548  21615657.4994   21615653.9254
      -762.7504
    243502.65849    210921.66747  24426735.9374   24426734.1944
     -1085.8124
  -5516530.97949  -4287201.29447  23312778.8824   23312775.5934
      1436.0004
 04  9 16 22  7  0.0030000  0  7G 3G 8G13G19G27G10G28
   9661819.37349   7523332.62947  24687770.3044   24687769.3154
     -3433.7664
  -4599361.74749  -3580391.62748  21773623.4214   21773620.6444
       364.3134
  11863182.43849   9236298.25348  22460721.6474   22460718.7184
     -3705.7344
  -1647956.86949  -1280459.14548  23229504.6554   23229499.8474
     -1095.5624
   1111439.48649    864026.60148  21617839.6634   21617836.3744
      -766.2664
    259860.98249    223668.38647  24429849.8354   24429847.3974
     -1095.2194
  -5538033.96049  -4303956.83047  23308686.9374   23308683.3974
      1431.1414
 04  9 16 22  7 15.0030000  0  7G 3G 8G13G19G27G10G28
   9713381.25949   7563510.66447  24697582.1244   24697580.6944
     -3441.1254
  -4604797.96249  -3584627.63448  21772589.1244   21772585.9054
       360.5314
  11918818.59649   9279651.07648  22471308.9054   22471305.7764
     -3712.4374
  -1631452.44649  -1267598.54548  23232645.1324   23232640.7614
     -1105.0944
   1122960.25549    873003.81048  21620032.4214   21620028.7924
      -769.8124
    276359.78449    236524.58347  24432989.1874   24432986.5854
     -1104.5474
  -5559465.41149  -4320656.63447  23304608.4834   23304605.1984
      1426.3754
 04  9 16 22  7 30.0030000  0  7G 3G 8G13G19G27G10G28
   9765053.41649   7603774.66647  24707415.6244   24707413.4444
     -3448.8124
  -4610176.50249  -3588818.69948  21771565.7414   21771561.7574
       356.4224
  11974556.08449   9323082.87448  22481915.1874   22481912.1984
     -3719.4064
  -1614803.24049  -1254625.11948  23235814.1714   23235809.1124
     -1114.9844
   1134535.42349    882023.42248  21622234.7184   21622231.2534
      -773.6874
    293000.57849    249491.44347  24436155.7334   24436152.8624
     -1114.3594
  -5580823.61449  -4337299.37147  23300544.6324   23300541.3584
      1421.1884
 04  9 16 22  7 45.0030000  0  7G 3G 8G13G19G27G10G28
   9816833.96349   7644123.11647  24717268.7724   24717266.8784
     -3455.6094
  -4615498.82949  -3592965.96748  21770552.8194   21770549.7694
       352.9844
  12030392.90849   9366592.06748  22492540.7884   22492537.7224
     -3725.7504
  -1598010.87049  -1241540.13947  23239009.4684   23239004.3944
     -1124.2504
   1146163.31449    891084.12248  21624447.8824   21624444.1014
      -776.9694
    309781.53849    262567.46247  24439348.8274   24439346.3784
     -1123.3754
  -5602110.12549  -4353886.22547  23296493.4684   23296490.7024
      1416.7194
 04  9 16 22  8  0.0030000  0  7G 3G 8G13G19G27G10G28
   9868724.77449   7684557.48547  24727142.6794   24727141.1634
     -3463.2194
  -4620763.16949  -3597068.04148  21769551.2184   21769547.8664
       348.8754
  12086331.07049   9410180.22448  22503185.7334   22503182.3944
     -3732.6874
  -1581073.16949  -1228341.91548  23242232.6324   23242227.8234
     -1134.1564
   1157846.20549    900187.66848  21626671.0464   21626667.4644
      -780.8594
    326704.73549    275754.37347  24442568.8044   24442567.1634
     -1133.0944
  -5623322.68149  -4370415.47047  23292456.2574   23292453.9764
      1411.5784
 04  9 16 22  8 15.0030000  0  7G 3G 8G13G19G27G10G28
   9920727.23749   7725078.87447  24737038.6404   24737037.8624
     -3470.5944
  -4625967.19749  -3601123.13048  21768560.6944   21768557.4404
       344.9384
  12142371.91549   9453848.39048  22513849.9684   22513846.5464
     -3739.4224
  -1563988.38849  -1215029.07848  23245483.4294   23245478.6364
     -1143.8754
   1169585.90649    909335.49348  21628904.7654   21628901.0894
      -784.5004
    343771.86849    289053.45147  24445816.6794   24445814.9914
     -1142.5944
  -5644459.42849  -4386885.63547  23288434.3194   23288431.4134
      1406.6094
 04  9 16 22  8 30.0030000  0  7G 3G 8G13G19G27G10G28
   9972836.75949   7765683.66747  24746955.2414   24746953.9254
     -3477.6254
  -4631115.08949  -3605134.46848  21767580.8664   21767578.2574
       341.1414
  12198511.06849   9497593.17048  22524532.3974   22524529.6754
     -3746.0314
  -1546760.82849  -1201604.99948  23248761.0934   23248757.1514
     -1153.4534
   1181378.23149    918524.31048  21631148.7804   21631145.1554
      -788.1414
    360978.56249    302461.28647  24449091.4834   24449088.9764
     -1151.9694
  -5665524.68449  -4403300.09047  23284426.2184   23284422.5464
      1401.7664
 04  9 16 22  8 45.0030000  0  7G 3G 8G13G19G27G10G28
  10025057.32249   7806374.99047  24756892.7654   24756890.9134
     -3484.8124
  -4636202.97449  -3609099.04748  21766612.9444   21766609.9764
       337.3914
  12254752.53049   9541417.64448  22535235.1634   22535231.8044
     -3752.6094
  -1529386.18449  -1188066.30848  23252067.6474   23252062.7024
     -1163.0004
   1193227.52449    927757.52948  21633403.4444   21633400.0224
      -791.6094
    378328.90549    315980.99647  24452393.0934   24452390.5624
     -1161.1874
  -5686514.16049  -4419655.49547  23280431.8824   23280428.2804
      1397.0314
 04  9 16 22  9  0.0030000  0  7G 3G 8G13G19G27G10G28
  10077386.94949   7847151.29247  24766850.8044   24766848.9724
     -3492.2664
  -4641232.26849  -3613017.98048  21765655.8904   21765652.9444
       333.3444
  12311094.48449   9585320.44948  22545956.2494   22545953.4294
     -3759.4064
  -1511866.18149  -1174414.33648  23255402.2724   23255396.7654
     -1172.7504
   1205132.16049    937033.86348  21635669.1014   21635665.6044
      -795.3594
    395821.28349    329611.40647  24455721.8744   24455719.4294
     -1170.7814
  -5707429.27749  -4435952.95847  23276451.7414   23276448.5734
      1391.9384
 04  9 16 22  9 15.0030000  0  7G 3G 8G13G19G27G10G28
  10129823.40349   7888010.85347  24776828.5854   24776827.3744
     -3499.2664
  -4646204.61249  -3616892.51648  21764709.8044   21764706.4994
       329.5784
  12367534.80649   9629299.89148  22556697.0154   22556693.4214
     -3766.0314
  -1494202.62349  -1160650.52748  23258762.8194   23258757.8864
     -1182.3284
   1217090.33249    946351.93248  21637944.4994   21637940.9094
      -798.9534
    413453.63149    343350.88147  24459077.6474   24459074.3824
     -1180.2194
  -5728271.89149  -4452193.92247  23272485.4054   23272482.3824
      1387.0474
 04  9 16 22  9 30.0030000  0  7G 3G 8G13G19G27G10G28
  10182368.05849   7928954.71247  24786827.5304   24786825.9604
     -3506.6564
  -4651118.49249  -3620721.51948  21763774.6324   21763771.9294
       325.6414
  12424074.69049   9673356.91948  22567456.3434   22567452.8664
     -3772.6094
  -1476394.00249  -1146773.68048  23262152.1554   23262147.0384
     -1192.1414
   1229103.72449    955713.00348  21640230.6944   21640226.4834
      -802.7664
    431227.39049    357200.54847  24462459.1794   24462456.8944
     -1189.6564
  -5749040.44049  -4468377.17247  23268533.1944   23268530.3274
      1382.0634
 04  9 16 22  9 45.0030000  0  7G 3G 8G13G19G27G10G28
  10235018.71849   7969981.19147  24796847.1084   24796845.7654
     -3513.4374
  -4655975.52949  -3624506.20648  21762850.2654   21762846.8154
       321.9694
  12480712.09749   9717489.92648  22578233.7414   22578230.7654
     -3779.0164
  -1458442.09149  -1132785.16048  23265568.1474   23265563.1474
     -1201.5004
   1241170.42749    965115.62048  21642527.0934   21642523.0624
      -806.1564
    449140.60549    371158.90747  24465868.2414   24465865.5974
     -1198.6724
  -5769736.69149  -4484504.10247  23264595.4524   23264592.0894
      1377.4694
 04  9 16 22 10  0.0030000  0  7G 3G 8G13G19G27G10G28
  10287774.89549   8011089.90947  24806885.8274   24806884.8904
     -3520.6414
  -4660775.94049  -3628246.78248  21761936.7264   21761933.7614
       318.1564
  12537446.64049   9761698.63248  22589030.1874   22589027.0814
     -3785.5624
  -1440347.09149  -1118685.16348  23269011.2024   23269006.6444
     -1211.1414
   1253290.51149    974559.84248  21644833.3354   21644829.8824
      -809.8124
    467192.95049    385225.66647  24469303.5464   24469301.2694
     -1208.1094
  -5790360.73749  -4500574.75547  23260670.7884   23260666.8354
      1372.5004
 04  9 16 22 10 15.0030000  0  7G 3G 8G13G19G27G10G28
  10340637.75949   8052281.69447  24816944.7494   24816944.1674
     -3527.7814
  -4665518.02349  -3631941.89648  21761034.2264   21761031.1554
       314.1564
  12594279.76149   9805984.14748  22599845.3124   22599842.0854
     -3792.1414
  -1422107.50149  -1104472.48248  23272482.5464   23272477.7574
     -1220.7814
   1265465.51649    984046.86848  21647150.1324   21647146.1364
      -813.5474
    485385.97249    399402.02947  24472765.5934   24472763.8394
     -1217.6094
  -5810910.89149  -4516587.82847  23256760.0774   23256756.2184
      1367.4694
 04  9 16 22 10 30.0030000  0  7G 3G 8G13G19G27G10G28
  10393605.88949   8093555.54647  24827025.5774   24827023.3664
     -3534.5314
  -4670202.87149  -3635592.43148  21760142.8584   21760140.0344
       310.6564
  12651209.90249   9850345.27748  22610678.5854   22610675.3474
     -3798.3754
  -1403724.50249  -1090148.06548  23275980.4444   23275975.9404
     -1230.0784
   1277694.33849    993575.82248  21649477.3744   21649473.8904
      -816.8284
    503718.19049    413686.86347  24476254.0934   24476251.6444
     -1226.5624
  -5831388.37849  -4532544.27947  23252863.0304   23252860.2414
      1362.9384
 04  9 16 22 10 45.0030000  0  7G 3G 8G13G19G27G10G28
  10446676.57649   8134909.30547  24837123.7264   24837122.6944
     -3541.4844
  -4674833.00349  -3639200.31948  21759261.8824   21759258.5074
       306.8444
  12708234.23849   9894779.78548  22621529.9684   22621526.7804
     -3804.7974
  -1385200.51549  -1075713.79248  23279505.0154   23279500.4054
     -1239.6414
   1289974.66349   1003144.90248  21651814.2884   21651810.2334
      -820.4694
    522187.04049    428078.16147  24479768.3974   24479766.3234
     -1235.7814
  -5851795.53149  -4548445.92047  23248978.8584   23248976.7494
      1358.1094
 04  9 16 22 11  0.0030000  0  7G 3G 8G13G19G27G10G28
  10499859.43549   8176350.51947  24847243.2884   24847243.2574
     -3549.2344
  -4679398.23049  -3642757.63448  21758393.0774   21758389.1284
       302.2504
  12765362.75349   9939295.48748  22632400.6794   22632397.7534
     -3811.9844
  -1366525.56649  -1061161.88548  23283059.2964   23283054.3784
     -1249.9064
   1302316.53649   1012761.94448  21654162.5384   21654159.1124
      -824.7664
    540802.64149    442583.82547  24483310.6634   24483308.8624
     -1245.8914
  -5872122.18849  -4564284.84947  23245111.3664   23245108.5034
      1352.5164
 04  9 16 22 11 15.0030000  0  7G 3G 8G13G19G27G10G28
  10553145.90449   8217872.40047  24857383.8354   24857382.8704
     -3555.6874
  -4683906.50349  -3646270.56248  21757535.0224   21757531.9644
       298.6564
  12822587.00349   9983885.80248  22643290.6084   22643287.4174
     -3818.0944
  -1347707.86749  -1046498.73948  23286640.3044   23286635.6044
     -1259.2194
   1314711.84149   1022420.62648  21656521.5224   21656517.5734
      -828.1414
    559556.62549    457197.30847  24486879.4604   24486877.2224
     -1254.7664
  -5892376.64049  -4580067.50147  23241257.3514   23241253.8974
      1347.9384
 04  9 16 22 11 30.0030000  0  7G 3G 8G13G19G27G10G28
  10606534.39649   8259473.77247  24867543.9444   24867543.0034
     -3562.6874
  -4688359.57449  -3649740.48648  21756687.3904   21756683.8664
       294.9384
  12879905.32249  10028549.38448  22654197.9374   22654195.0624
     -3824.5474
  -1328748.89849  -1031725.51348  23290248.1714   23290243.4374
     -1268.7664
   1327159.14049   1032119.82348  21658890.0934   21658886.2064
      -831.5944
    578447.32549    471917.31647  24490474.8434   24490471.6594
     -1264.0624
  -5912560.18949  -4595794.91447  23237416.3194   23237412.7454
      1343.0164
 04  9 16 22 11 45.0030000  0  7G 3G 8G13G19G27G10G28
  10660025.36049   8301155.06147  24877723.0384   24877721.1514
     -3569.5944
  -4692756.33449  -3653166.53248  21755851.2884   21755847.8544
       291.0944
  12937318.21349  10073286.67748  22665123.8664   22665120.5974
     -3830.7974
  -1309647.70749  -1016841.47148  23293882.9604   23293878.2184
     -1278.3284
   1339659.41349   1041860.29248  21661268.9054   21661265.1084
      -835.2974
    597475.57349    486744.53047  24494095.4374   24494093.5974
     -1273.2344
  -5932671.90049  -4611466.34747  23233589.4914   23233586.0934
      1338.1884
 04  9 16 22 12  0.0030000  0  7G 3G 8G13G19G27G10G28
  10713619.24849   8342916.51847  24887921.5154   24887920.6124
     -3576.2814
  -4697095.89749  -3656548.00048  21755025.2574   21755021.5074
       287.3284
  12994826.14349  10118098.02948  22676067.0224   22676063.8154
     -3836.9844
  -1290403.70149  -1001846.14648  23297544.8584   23297539.8354
     -1287.6724
   1352213.45449   1051642.66148  21663657.4134   21663653.4914
      -838.7814
    616641.93649    501679.35847  24497743.1554   24497740.4914
     -1282.3594
  -5952710.98749  -4627081.19247  23229776.1714   23229772.5854
      1333.5784
 04  9 16 22 12 15.0030000  0  7G 3G 8G13G19G27G10G28
  10767314.02349   8384756.57647  24898139.1404   24898138.6404
     -3582.8914
  -4701379.88349  -3659886.16748  21754210.1084   21754206.5544
       283.7974
  13052427.27649  10162981.99648  22687027.8904   22687025.0624
     -3843.0944
  -1271018.45449   -986740.75648  23301234.0774   23301228.9404
     -1296.9694
   1364819.71449   1061465.72148  21666056.3904   21666052.9294
      -841.9844
    635944.65549    516720.45347  24501415.7024   24501413.1984
     -1291.2504
  -5972679.11449  -4642640.74047  23225975.7804   23225972.5504
      1328.8914
 04  9 16 22 12 30.0030000  0  7G 3G 8G13G19G27G10G28
  10821114.49249   8426679.01047  24908377.7884   24908375.7694
     -3590.4224
  -4705603.11749  -3663176.99748  21753406.4134   21753403.2334
       279.3134
  13110126.41749  10207942.33948  22698007.9524   22698004.6674
     -3850.1414
  -1251486.96349   -971521.42048  23304950.4134   23304945.6554
     -1307.1874
   1377483.30449   1071333.45448  21668466.4764   21668462.8194
      -846.3284
    655388.60049    531871.52847  24505115.6874   24505113.1444
     -1301.2344
  -5992571.07049  -4658140.93947  23222190.8044   23222187.1594
      1323.4384
 04  9 16 22 12 45.0030000  0  7G 3G 8G13G19G27G10G28
  10875016.83549   8468680.82147  24918634.5544   24918632.9524
     -3596.7344
  -4709769.08449  -3666423.18848  21752613.5224   21752609.9174
       276.0314
  13167919.90949  10252976.21848  22709005.4374   22709002.9644
     -3855.8754
  -1231812.74449   -956190.85548  23308694.5154   23308689.6674
     -1316.1724
   1390200.89149   1081243.26148  21670886.5854   21670882.9764
      -849.4064
    674970.12249    547129.88647  24508842.2414   24508839.6284
     -1309.8124
  -6012390.23849  -4673584.41247  23218419.5934   23218415.4644
      1319.0004
 04  9 16 22 13  0.0030000  0  7G 3G 8G13G19G27G10G28
  10929019.27449   8510760.65047  24928910.5154   24928909.3004
     -3603.7344
  -4713879.17549  -3669625.85848  21751831.6244   21751828.4874
       271.9384
  13225806.06449  10298082.28748  22720021.3354   22720017.9914
     -3862.3594
  -1211997.18149   -940750.15548  23312464.8354   23312460.2654
     -1326.0004
   1402970.98549   1091193.98548  21673316.9054   21673312.3664
      -853.2974
    694687.65049    562494.16347  24512593.7334   24512591.6404
     -1319.2664
  -6032138.05249  -4688972.29947  23214660.9834   23214657.6984
      1313.9844
 04  9 16 22 13 15.0030000  0  7G 3G 8G13G19G27G10G28
  10983123.86949   8552920.02547  24939206.2574   24939205.3084
     -3610.4844
  -4717930.94549  -3672783.07248  21751060.6404   21751057.1554
       267.9694
  13283786.92649  10343262.14748  22731054.2104   22731050.7374
     -3868.6874
  -1192038.00449   -925197.55048  23316263.2804   23316258.4564
     -1335.5944
   1415796.12649   1101187.59748  21675756.9214   21675753.4874
      -857.0624
    714543.47949    577966.25147  24516373.1404   24516370.4214
     -1328.4844
  -6051812.03149  -4704302.64547  23210917.4994   23210913.8194
      1308.9694
 04  9 16 22 13 30.0030000  0  7G 3G 8G13G19G27G10G28
  11037332.63649   8595160.62347  24949521.3354   24949520.8124
     -3617.4374
  -4721921.70549  -3675892.76148  21750300.8354   21750297.6474
       264.0784
  13341864.61949  10388517.46648  22742105.7104   22742102.8664
     -3875.1094
  -1171933.04349   -909531.35048  23320089.4214   23320084.4404
     -1345.2034
   1428678.69149   1111225.95348  21678208.9604   21678204.8824
      -860.8124
    734539.78949    593547.76047  24520177.2024   24520175.4254
     -1337.8124
  -6071409.79049  -4719573.58447  23207188.0544   23207184.9684
      1303.9384
 04  9 16 22 13 45.0030000  0  7G 3G 8G13G19G27G10G28
  11091642.38349   8637479.88047  24959857.1084   24959856.0154
     -3624.0314
  -4725854.53549  -3678957.30248  21749552.5464   21749549.2694
       260.2194
  13400035.94349  10433845.74548  22753175.3974   22753172.7184
     -3881.1874
  -1151684.99949   -893753.65848  23323942.2494   23323937.0424
     -1354.6724
   1441615.82549   1121306.83448  21680670.5074   21680666.6714
      -864.2814
    754673.54349    609236.38547  24524009.3974   24524006.5424
     -1346.7974
  -6090934.29049  -4734787.45747  23203472.2264   23203469.4794
      1299.2194
 04  9 16 22 14  0.0030000  0  7G 3G 8G13G19G27G10G28
  11146050.39749   8679875.73147  24970209.9444   24970209.2224
     -3630.6564
  -4729731.54149  -3681978.32748  21748814.8124   21748811.4134
       256.5004
  13458298.26149  10479244.92248  22764262.9524   22764259.8744
     -3887.2974
  -1131296.32149   -877866.36748  23327822.0384   23327817.0464
     -1364.0624
   1454605.33649   1131428.53748  21683142.0224   21683138.6754
      -867.7814
    774942.31049    625030.24047  24527865.8124   24527863.6874
     -1355.8754
  -6110387.78649  -4749945.98847  23199770.5224   23199767.9914
      1294.3914
 04  9 16 22 14 15.0030000  0  7G 3G 8G13G19G27G10G28
  11200560.54649   8722351.15246  24980583.4294   24980582.3514
     -3637.4534
  -4733548.64649  -3684952.69448  21748088.6014   21748084.8664
       252.4384
  13516655.52049  10524718.07648  22775368.4214   22775365.1474
     -3893.6094
  -1110763.01349   -861866.38648  23331729.2964   23331724.3704
     -1373.6724
   1467651.23649   1141594.18648  21685624.6554   21685621.5264
      -871.5314
    795350.08349    640932.40447  24531749.1944   24531747.6244
     -1365.1874
  -6129766.07049  -4765045.93247  23196083.2494   23196079.8154
      1289.3914
 04  9 16 22 14 30.0030000  0  7G 3G 8G13G19G27G10G28
  11255172.69749   8764906.05947  24990974.7884   24990973.6944
     -3644.2504
  -4737305.59949  -3687880.19248  21747373.5934   21747370.2184
       248.4064
  13575107.69249  10570265.19148  22786490.4834   22786487.4134
     -3900.0474
  -1090084.79249   -845753.49548  23335664.3514   23335659.6904
     -1383.4844
   1480754.06949   1151804.17548  21688117.9524   21688114.1714
      -875.4844
    815896.88949    656942.87147  24535659.8514   24535657.5424
     -1374.5624
  -6149068.81449  -4780087.00447  23192410.2024   23192406.5304
      1284.3284
 04  9 16 22 14 45.0030000  0  7G 3G 8G13G19G27G10G28
  11309883.28149   8807537.68146  25001387.3744   25001385.3944
     -3650.8594
  -4741005.48149  -3690763.21448  21746669.6244   21746666.1714
       244.5784
  13633651.28149  10615883.54248  22797631.2884   22797628.9094
     -3906.1254
  -1069264.96049   -829530.23648  23339626.0694   23339621.4014
     -1392.8754
   1493910.43449   1162055.89048  21690621.8194   21690617.7064
      -879.1254
    836579.33149    673059.07147  24539595.6324   24539592.8234
     -1383.5624
  -6168299.20549  -4795071.68947  23188750.3584   23188747.3434
      1279.4064
 04  9 16 22 15  0.0030000  0  7G 3G 8G13G19G27G10G28
  11364692.08349   8850245.80046  25011817.1874   25011814.9374
     -3657.0624
  -4744648.11449  -3693601.61148  21745976.3514   21745972.8904
       241.0944
  13692286.14149  10661573.01748  22808789.3434   22808786.2654
     -3911.8284
  -1048303.43149   -813196.57448  23343615.1014   23343609.8624
     -1402.0164
   1507120.72249   1172349.63248  21693135.7184   21693132.3624
      -882.3124
    857397.47449    689280.98047  24543556.8434   24543554.3354
     -1392.2194
  -6187457.12649  -4809999.90747  23185104.8124   23185101.5074
      1274.9384
 04  9 16 22 15 15.0030000  0  7G 3G 8G13G19G27G10G28
  11419598.76249   8893030.19947  25022265.1794   25022264.3904
     -3663.9064
  -4748233.38749  -3696395.32848  21745294.0304   21745290.3864
       236.8594
  13751012.31549  10707333.64548  22819964.2104   22819960.9644
     -3918.2344
  -1027200.12449   -796752.43748  23347631.0544   23347626.0384
     -1411.7504
   1520385.04149   1182685.46448  21695659.6794   21695656.0694
      -886.3284
    878351.22949    705608.58447  24547544.4524   24547541.7964
     -1401.6724
  -6206542.34449  -4824871.48347  23181473.0774   23181470.1404
      1269.7194
 04  9 16 22 15 30.0030000  0  7G 3G 8G13G19G27G10G28
  11474607.05549   8935893.79846  25032733.1944   25032732.0114
     -3670.6094
  -4751757.19549  -3699141.15248  21744623.4054   21744620.3234
       232.9534
  13809833.15149  10753168.02548  22831157.9604   22831155.0424
     -3924.5314
  -1005951.23249   -780194.84548  23351674.1324   23351669.4954
     -1421.3914
   1533707.27649   1193066.41748  21698194.7964   21698191.1444
      -890.0004
    899444.30849    722044.75547  24551557.5934   24551555.6124
     -1410.8124
  -6225551.02849  -4839683.41747  23177856.0464   23177852.8394
      1264.8134
 04  9 16 22 15 45.0040000  0  7G 3G 8G13G19G27G10G28
  11529716.39549   8978836.15446  25043219.4024   25043218.2854
     -3676.7664
  -4755223.50649  -3701842.16148  21743963.9654   21743960.9494
       229.3594
  13868748.58849  10799076.13348  22842369.2074   22842366.3524
     -3930.1724
   -984559.17249   -763525.71648  23355745.3094   23355740.0984
     -1430.6094
   1547084.67949   1203490.37248  21700740.4654   21700737.0474
      -893.3594
    920674.24549    738587.53347  24555597.7854   24555595.6214
     -1419.5474
  -6244488.17349  -4854439.60347  23174252.2774   23174248.4884
      1260.1884
 04  9 16 22 16  0.0040000  0  7G 3G 8G13G19G27G10G28
  11584917.63649   9021850.08147  25053724.2464   25053723.0514
     -3683.5164
  -4758633.50849  -3704499.29948  21743314.7464   21743311.8094
       225.2504
  13927749.02449  10845050.45348  22853596.3244   22853593.9534
     -3936.5314
   -963028.37149   -746748.46248  23359842.3094   23359837.3634
     -1440.2504
   1560513.93049   1213954.73148  21703296.0664   21703292.3984
      -897.2974
    942036.56249    755233.47247  24559663.3634   24559660.9344
     -1428.8124
  -6263352.66449  -4869139.18248  23170662.4494   23170659.3124
      1255.0474
 04  9 16 22 16 15.0040000  0  7G 3G 8G13G19G27G10G28
  11640216.78349   9064940.31247  25064247.1214   25064246.3554
     -3689.7974
  -4761984.30149  -3707110.29848  21742677.0274   21742673.4964
       221.4694
  13986840.70249  10891095.90248  22864840.9734   22864838.4734
     -3942.4064
   -941354.61049   -729859.80148  23363966.4964   23363961.4224
     -1449.5784
   1573998.79749   1224462.42148  21705862.1374   21705858.3594
      -900.7344
    963535.04549    771985.52647  24563754.0594   24563752.2344
     -1437.6564
  -6282143.03349  -4883780.99948  23167086.7154   23167083.4144
      1250.3284
 04  9 16 22 16 30.0040000  0  7G 3G 8G13G19G27G10G28
  11695611.31849   9108104.86047  25074788.7624   25074787.9844
     -3696.0784
  -4765278.53149  -3709677.22248  21742050.3014   21742047.4304
       217.7504
  14046021.22049  10937210.56448  22876103.2854   22876100.3164
     -3948.2664
   -919540.42249   -712861.72348  23368117.9494   23368112.5554
     -1458.9534
   1587537.06649   1235011.72548  21708438.4264   21708434.6134
      -904.2504
    985167.30949    788841.80347  24567870.9574   24567868.3014
     -1446.5474
  -6300861.51049  -4898366.78948  23163524.5744   23163521.4024
      1245.4694
 04  9 16 22 16 45.0040000  0  7G 3G 8G13G19G27G10G28
  11751104.29249   9151346.13146  25085348.5044   25085347.1214
     -3702.8754
  -4768512.62349  -3712197.28948  21741434.7234   21741431.7304
       213.6254
  14105293.71349  10983396.88848  22887382.3164   22887378.9804
     -3954.6254
   -897582.39149   -695751.57148  23372296.5354   23372291.6764
     -1468.6724
   1601132.16649   1245605.30948  21711025.4184   21711021.8714
      -908.2664
   1006936.65649    805804.92847  24572012.6374   24572011.5554
     -1455.8444
  -6319504.63349  -4912893.88247  23159976.9494   23159973.8284
      1240.3444
 04  9 16 22 17  0.0040000  0  7G 3G 8G13G19G27G10G28
  11806693.98949   9194662.74746  25095927.7154   25095925.9144
     -3709.3754
  -4771687.56149  -3714671.26648  21740830.8094   21740827.2424
       209.4224
  14164656.52049  11029653.59148  22898678.8404   22898675.9374
     -3960.7034
   -875481.90649   -678530.41348  23376502.0194   23376496.7934
     -1478.3444
   1614782.88349   1256242.22048  21713622.6764   21713619.3834
      -912.0944
   1028841.55349    822873.66547  24576181.2774   24576179.7504
     -1465.1564
  -6338073.76249  -4927363.30647  23156443.4804   23156440.0664
      1235.2974
 04  9 16 22 17 15.0040000  0  7G 3G 8G13G19G27G10G28
  11862379.17749   9238053.82447  25106523.6294   25106521.6684
     -3715.6094
  -4774804.38149  -3717099.95348  21740237.8634   21740234.4494
       205.7974
  14224108.47849  11075979.76948  22909991.6374   22909988.7664
     -3966.5164
   -853239.93249   -661198.99148  23380734.3634   23380729.4654
     -1487.5624
   1628488.26149   1266921.74548  21716231.2694   21716227.3674
      -915.5784
   1050880.86049    840047.15147  24580375.1444   24580373.8054
     -1473.8284
  -6356569.77149  -4941775.75347  23152924.0664   23152920.6684
      1230.5944
 04  9 16 22 17 30.0040000  0  7G 3G 8G13G19G27G10G28
  11918159.04749   9281518.59947  25117138.3164   25117136.7774
     -3721.6564
  -4777863.55449  -3719483.71248  21739655.8484   21739652.4694
       202.1254
  14283648.82649  11122374.81948  22921321.8164   22921319.0704
     -3972.1874
   -830857.05849   -643757.78248  23384993.3944   23384988.6564
     -1496.7194
   1642247.87549   1277643.51148  21718849.2384   21718845.5474
      -919.0164
   1073053.92049    857324.82347  24584594.6994   24584593.1094
     -1482.6254
  -6374993.13949  -4956131.60347  23149417.6294   23149414.4374
      1225.9224
 04  9 16 22 17 45.0040000  0  7G 3G 8G13G19G27G10G28
  11974030.28049   9325054.63847  25127770.4414   25127768.9374
     -3728.0004
  -4780867.81149  -3721824.68248  21739083.4024   21739080.4964
       198.2344
  14343274.13949  11168836.06547  22932668.2234   22932664.9734
     -3978.0004
   -808336.33349   -626209.15648  23389279.1764   23389274.3834
     -1506.2034
   1656058.84249   1288405.31248  21721477.5744   21721473.5554
      -922.6564
   1095357.63649    874704.32547  24588839.1294   24588837.7464
     -1491.5624
  -6393346.72849  -4970433.07547  23145925.6994   23145921.8094
      1220.9844
 04  9 16 22 18  0.0040000  0  7G 3G 8G13G19G27G10G28
  12029998.66049   9368666.33447  25138420.6684   25138419.2894
     -3734.1564
  -4783810.70049  -3724117.84148  21738523.5664   21738520.5514
       194.4694
  14402990.71649  11215368.42348  22944031.8014   22944029.2304
     -3983.8284
   -785671.46249   -608548.21248  23393592.1444   23393587.3124
     -1515.4374
   1669927.54649   1299212.09648  21724116.9184   21724113.1254
      -926.1254
   1117798.00349    892190.35747  24593109.8794   24593107.7274
     -1500.2344
  -6411624.29149  -4984675.29548  23142447.1684   23142443.7974
      1216.3134
 04  9 16 22 18 15.0040000  0  7G 3G 8G13G19G27G10G28
  12086060.43449   9412350.77246  25149088.8714   25149087.4494
     -3740.7974
  -4786695.90549  -3726366.05948  21737974.5124   21737971.4144
       190.1884
  14462794.65649  11261968.86048  22955412.7624   22955409.4774
     -3990.0474
   -762866.02549   -590777.75648  23397931.7624   23397927.2424
     -1525.2194
   1683850.46749   1310061.11748  21726766.2464   21726762.3984
      -930.1724
   1140371.51449    909780.05047  24597405.0904   24597402.9614
     -1509.4534
  -6429829.27449  -4998860.98348  23138982.7074   23138978.7774
      1211.0474
 04  9 16 22 18 30.0040000  0  7G 3G 8G13G19G27G10G28
  12142217.07949   9456109.18447  25159774.7234   25159773.9964
     -3746.5164
  -4789521.47949  -3728567.78648  21737437.0354   21737433.9184
       186.6884
  14522687.54149  11308638.60847  22966809.6764   22966807.2304
     -3995.4844
   -739918.46249   -572896.52148  23402298.3874   23402293.7304
     -1534.2504
   1697829.52349   1320953.89748  21729426.4414   21729422.1764
      -933.4694
   1163079.78249    927474.80847  24601725.4884   24601724.3634
     -1518.0314
  -6447959.80649  -5012988.64047  23135532.2304   23135528.9064
      1206.5474
 04  9 16 22 18 45.0040000  0  7G 3G 8G13G19G27G10G28
  12198465.31549   9499938.96746  25170478.1684   25170477.2814
     -3753.0944
  -4792290.33949  -3730725.33848  21736910.1604   21736907.2734
       182.4694
  14582666.03349  11355375.06648  22978223.2934   22978220.4304
     -4001.6414
   -716831.62049   -554906.76648  23406692.0194   23406686.8794
     -1543.9064
   1711861.78149   1331888.12148  21732096.6684   21732093.1994
      -937.4374
   1185919.69549    945272.10247  24606072.2774   24606070.4574
     -1527.2504
  -6466018.80349  -5027060.56447  23132096.2074   23132092.5904
      1201.3754
 04  9 16 22 19  0.0040000  0  7G 3G 8G13G19G27G10G28
  12254805.22949   9543840.17847  25181199.4344   25181198.5904
     -3759.1094
  -4795002.13449  -3732838.41348  21736394.1604   21736390.2074
       178.8914
  14642730.32149  11402178.39248  22989653.1134   22989650.2734
     -4007.1724
   -693605.12549   -536808.19448  23411112.1054   23411106.5984
     -1553.0784
   1725947.84049   1342864.26048  21734777.2234   21734773.4104
      -940.8754
   1208891.33649    963172.09547  24610443.6994   24610442.1094
     -1535.8124
  -6484005.82449  -5041076.39147  23128672.8164   23128669.6444
      1196.7664
 04  9 16 22 19 15.0040000  0  6G 8G13G19G27G10G28
  -4797653.61349  -3734904.50148  21735889.7074   21735886.1954
       175.0004
  14702883.16149  11449050.69748  23001100.0194   23001097.0164
     -4012.9694
   -670236.14649   -518598.59048  23415558.2464   23415553.9024
     -1562.4374
   1740090.66549   1353884.64348  21737468.4804   21737464.8444
      -944.5624
   1231997.60549    981176.96747  24614840.7074   24614839.4804
     -1544.7194
  -6501917.78149  -5055033.74047  23125265.1994   23125261.2664
      1191.8754
 04  9 16 22 19 30.0040000  0  6G 8G13G19G27G10G28
  -4800248.49249  -3736926.48248  21735395.6764   21735392.5904
       170.9224
  14763120.35349  11495988.73448  23012563.0984   23012559.5514
     -4018.7814
   -646728.72049   -500281.11948  23420031.8794   23420026.8484
     -1571.9374
   1754286.43849   1364946.29148  21740169.7934   21740165.8404
      -948.3594
   1255234.45049    999283.57547  24619262.6134   24619261.3914
     -1553.6724
  -6519758.63449  -5068935.68048  23121869.0664   23121865.8164
      1186.8594
 04  9 16 22 19 45.0040000  0  6G 8G13G19G27G10G28
  -4802785.21049  -3738903.13948  21734913.4964   21734909.9884
       167.1884
  14823443.30849  11542993.61147  23024041.8554   23024039.1334
     -4024.3754
   -623081.19249   -481854.46048  23424531.8094   23424526.7464
     -1581.1724
   1768536.90549   1376050.53348  21742881.6054   21742877.7154
      -951.8914
   1278603.32149   1017493.07747  24623710.0124   24623708.3164
     -1562.3124
  -6537526.73949  -5082780.91648  23118488.0904   23118485.0004
      1182.1414
 04  9 16 22 20  0.0040000  0  6G 8G13G19G27G10G28
  -4805259.71949  -3740831.31848  21734442.1764   21734438.9144
       163.0164
  14883855.67049  11590068.16048  23035538.2694   23035534.6954
     -4030.3754
   -599289.63749   -463315.57648  23429059.3404   23429054.4574
     -1590.8284
   1782846.13849   1387200.59048  21745604.4574   21745600.6484
      -955.8444
   1302108.11849   1035808.50347  24628182.7624   24628180.5274
     -1571.4534
  -6555217.95649  -5096566.26348  23115122.1844   23115118.4374
      1176.9224
 04  9 16 22 20 15.0040000  0  6G 8G13G19G27G10G28
  -4807675.64449  -3742713.85048  21733982.4734   21733979.2154
       159.1564
  14944353.36249  11637209.18947  23047050.7934   23047047.9144
     -4036.0004
   -575357.76849   -444667.35848  23433613.7624   23433608.7734
     -1600.0944
   1797210.53949   1398393.63448  21748338.0824   21748334.2194
      -959.4534
   1325744.88449   1054226.73147  24632680.6214   24632678.3444
     -1580.2194
  -6572835.88049  -5110294.47848  23111769.3944   23111766.4064
      1172.0784
 04  9 16 22 20 30.0040000  0  6G 8G13G19G27G10G28
  -4810033.83249  -3744551.38948  21733533.6374   21733530.3284
       155.2034
  15004935.33349  11684415.89647  23058578.4024   23058576.2504
     -4041.7814
   -551286.79049   -425910.75448  23438193.9964   23438188.9414
     -1609.5004
   1811629.06749   1409628.84048  21751081.7384   21751077.8284
      -963.2344
   1349512.40149   1072746.87847  24637202.7154   24637201.5434
     -1588.9694
  -6590381.68549  -5123966.50848  23108430.6914   23108427.3714
      1167.1564
 04  9 16 22 20 45.0040000  0  6G 8G13G19G27G10G28
  -4812333.20849  -3746343.10748  21733096.0434   21733093.1524
       151.2814
  15065602.41649  11731688.91147  23070123.2774   23070120.3244
     -4047.4064
   -527075.67149   -407044.94348  23442801.2384   23442795.9844
     -1618.7974
   1826102.99049   1420907.22648  21753836.0124   21753832.3554
      -966.8444
   1373411.63049   1091369.63647  24641751.3014   24641749.4804
     -1597.7194
  -6607854.13449  -5137581.37648  23105105.7544   23105102.5824
      1162.3444
 04  9 16 22 21  0.0040000  0  6G 8G13G19G27G10G28
  -4814571.33449  -3748087.10548  21732670.3484   21732667.2344
       147.1884
  15126356.19449  11779029.50347  23081684.4184   23081680.9774
     -4053.1414
   -502722.21049   -388068.21748  23447435.0824   23447430.6604
     -1628.2814
   1840634.45449   1432230.44148  21756601.0044   21756597.2074
      -970.6254
   1397444.58249   1110096.58447  24646324.9494   24646322.6134
     -1606.6254
  -6625251.02249  -5151137.36448  23101795.0194   23101791.5784
      1157.2974
 04  9 16 22 21 15.0040000  0  6G 8G13G19G27G10G28
  -4816750.47649  -3749785.12848  21732255.7854   21732252.4884
       143.2814
  15187194.46549  11826435.91448  23093261.7624   23093258.2384
     -4058.7664
   -478228.70449   -368982.37048  23452096.9654   23452091.5314
     -1637.5944
   1855221.51749   1443596.97848  21759377.1294   21759373.0554
      -974.3754
   1421608.79449   1128925.82347  24650922.7304   24650920.8794
     -1615.4224
  -6642574.52749  -5164636.17248  23098498.7934   23098495.3594
      1152.3754
 04  9 16 22 21 30.0040000  0  6G 8G13G19G27G10G28
  -4818873.53249  -3751439.45648  21731851.6914   21731848.7114
       139.5474
  15248113.83449  11873905.51747  23104854.0434   23104851.2504
     -4064.0164
   -453598.36149   -349789.88748  23456783.6214   23456778.1644
     -1646.7034
   1869861.02949   1455004.39348  21762162.8874   21762159.0124
      -977.7974
   1445901.01149   1147854.80947  24655545.5434   24655543.4104
     -1623.8754
  -6659827.59549  -5178080.10148  23095215.3714   23095211.8364
      1147.7664
 04  9 16 22 21 45.0040000  0  6G 8G13G19G27G10G28
  -4820937.85749  -3753048.01548  21731458.9414   21731455.3874
       135.7504
  15309116.47249  11921440.02147  23116462.2544   23116459.6054
     -4069.4844
   -428828.84949   -330488.96648  23461497.1214   23461491.7544
     -1655.8914
   1884555.51249   1466454.63648  21764959.0744   21764955.5594
      -981.3914
   1470323.51149   1166885.31647  24660192.5274   24660191.3124
     -1632.4224
  -6677007.80449  -5191467.24448  23091946.0824   23091942.4844
      1143.0164
 04  9 16 22 22  0.0040000  0  6G 8G13G19G27G10G28
  -4822945.68149  -3754612.54348  21731076.6844   21731073.8714
       131.4534
  15370200.05149  11969037.59247  23128086.5044   23128083.1254
     -4075.4064
   -403922.18449   -311081.17248  23466236.5744   23466231.7894
     -1665.5624
   1899303.04649   1477946.22748  21767765.4024   21767762.1684
      -985.4844
   1494874.10149   1186015.65947  24664864.4574   24664863.1804
     -1641.4844
  -6694117.04849  -5204799.10747  23088690.3634   23088686.9024
      1137.7664
 04  9 16 22 22 15.0040000  0  6G 8G13G19G27G10G28
  -4824891.92949  -3756129.09848  21730706.1844   21730703.0664
       127.9534
  15431369.23249  12016701.85947  23139726.6134   23139723.6444
     -4080.5474
   -378873.60549   -291562.79348  23471003.2774   23470998.2194
     -1674.3444
   1914108.61349   1489483.03248  21770582.7384   21770579.0354
      -988.7194
   1519557.34449   1205249.31847  24669562.4414   24669559.6914
     -1649.7194
  -6711150.59749  -5218071.96648  23085449.0194   23085445.6134
      1133.2814
 04  9 16 22 22 30.0040000  0  6G 8G13G19G27G10G28
  -4826780.34549  -3757600.58048  21730346.8794   21730343.6724
       124.0944
  15492619.77449  12064429.52147  23151382.4574   23151379.8674
     -4085.9534
   -353687.12049   -271936.95648  23475795.9184   23475790.6374
     -1683.5624
   1928968.41949   1501062.09648  21773410.6844   21773406.6024
      -992.3594
   1544369.29049   1224583.27947  24674283.8944   24674281.3594
     -1658.2504
  -6728112.26749  -5231288.83548  23082220.6524   23082217.5744
      1128.4844
 04  9 16 22 22 45.0040000  0  6G 8G13G19G27G10G28
  -4828608.34349  -3759025.00348  21729999.0594   21729995.7694
       119.9064
  15553954.19449  12112222.55648  23163053.8554   23163051.1914
     -4091.6254
   -328360.03549   -252201.56948  23480615.9264   23480610.3634
     -1693.0944
   1943885.17149   1512685.52748  21776249.1294   21776245.1524
      -996.2504
   1569312.46049   1244019.50447  24679029.8634   24679028.0704
     -1667.1094
  -6744999.26249  -5244447.51848  23079007.9414   23079004.1804
      1123.4384
 04  9 16 22 23  0.0040000  0  6G 8G13G19G27G10G28
  -4830375.11349  -3760401.69348  21729663.2464   21729660.1484
       116.0004
  15615372.69649  12160081.09547  23174741.3404   23174738.7034
     -4097.1094
   -302891.90549   -232356.26448  23485461.9734   23485456.7664
     -1702.2974
   1958859.52349   1524353.85748  21779098.4734   21779094.8634
      -999.9534
   1594387.15749   1263558.21647  24683802.3634   24683799.1524
     -1675.7034
  -6761810.97949  -5257547.52648  23075807.9574   23075804.3524
      1118.5164
 04  9 16 22 23 15.0040000  0  6G 8G13G19G27G10G28
  -4832083.44949  -3761732.86148  21729337.7074   21729334.1844
       112.0634
  15676872.17649  12208002.74947  23186444.1134   23186441.7464
     -4102.4844
   -277285.72149   -212403.39148  23490334.8094   23490330.1334
     -1711.5474
   1973888.80249   1536064.98548  21781958.7464   21781955.1024
     -1003.6724
   1619590.45049   1283197.14547  24688597.7384   24688595.6844
     -1684.4064
  -6778550.29449  -5270591.13048  23072622.8714   23072619.7074
      1113.6094
 04  9 16 22 23 30.0040000  0  6G 8G13G19G27G10G28
  -4833732.18049  -3763017.57548  21729023.6374   21729020.9694
       107.7814
  15738453.44849  12255988.13547  23198162.6444   23198160.4414
     -4108.2344
   -251540.40649   -192342.09048  23495234.1294   23495229.0984
     -1721.1564
   1988974.07449   1547819.74548  21784829.4264   21784825.7544
     -1007.7194
   1644923.20349   1302936.94447  24693418.3874   24693415.8524
     -1693.3284
  -6795216.07049  -5283577.42248  23069452.0514   23069447.6874
      1108.5004
 04  9 16 22 23 45.0040000  0  6G 8G13G19G27G10G28
  -4835317.54449  -3764252.92848  21728722.3324   21728719.1094
       103.9534
  15800119.89049  12304039.86747  23209897.5664   23209894.3324
     -4113.6564
   -225652.45949   -172169.66648  23500160.4574   23500154.7504
     -1730.2974
   2004119.09849   1559621.06448  21787711.0904   21787707.6954
     -1011.3284
   1670388.81849   1322780.27847  24698264.2694   24698262.4374
     -1701.7974
  -6811804.59249  -5296503.52448  23066294.9414   23066290.9024
      1103.6724
 04  9 16 22 24  0.0040000  0  6G 8G13G19G27G10G28
  -4836841.35349  -3765440.29548  21728432.6214   21728429.1214
        99.4384
  15861869.33149  12352156.29147  23221648.3164   23221644.8634
     -4119.5164
   -199623.88649   -151887.65348  23505113.4574   23505108.0004
     -1740.0784
   2019322.07749   1571467.53248  21790603.9964   21790600.7384
     -1015.5624
   1695985.16049   1342725.46047  24703135.0594   24703133.1874
     -1710.9224
  -6828317.62949  -5309370.80248  23063152.1994   23063149.3634
      1098.1414
 04  9 16 22 24 15.0040000  0  6G 8G13G19G27G10G28
  -4838303.49949  -3766579.62948  21728153.9494   21728150.5514
        95.4384
  15923701.46349  12400337.13847  23233414.3714   23233412.4064
     -4124.9064
   -173454.77749   -131496.12948  23510093.0124   23510088.2584
     -1749.2814
   2034582.93149   1583359.10148  21793508.1524   21793504.8714
     -1019.3594
   1721712.03049   1362772.33847  24708030.5664   24708028.5004
     -1719.4374
  -6844755.41849  -5322179.44548  23060024.9184   23060020.7274
      1093.3284
 04  9 16 22 24 30.0040000  0  6G 8G13G19G27G10G28
  -4839702.01649  -3767669.38048  21727888.1444   21727885.0274
        91.1414
  15985617.93049  12448583.71347  23245196.8944   23245193.7814
     -4130.6094
   -147143.28749   -110993.67248  23515100.0274   23515095.2234
     -1758.7974
   2049903.81949   1595297.45248  21796423.7694   21796420.0554
     -1023.4064
   1747571.27749   1382922.37547  24712951.9184   24712949.2464
     -1728.3444
  -6861115.83749  -5334927.80948  23056911.0044   23056907.1724
      1088.0634
 04  9 16 22 24 45.0040000  0  6G 8G13G19G27G10G28
  -4841037.70849  -3768710.18348  21727633.6764   21727630.1334
        86.6414
  16047617.52049  12496895.04747  23256995.0744   23256992.3714
     -4136.3914
   -120690.38949    -90381.01748  23520133.6844   23520128.8914
     -1768.5314
   2065283.84649   1607281.89048  21799350.6604   21799346.9534
     -1027.6094
   1773561.73149   1403174.65647  24717897.7154   24717895.1844
     -1737.3754
  -6877399.78349  -5347616.57548  23053812.4734   23053809.0594
      1082.7814
 04  9 16 22 25  0.0040000  0  6G 8G13G19G27G10G28
  -4842311.12449  -3769702.45148  21727391.4344   21727388.6524
        83.0474
  16109699.31649  12545270.46247  23268808.2624   23268806.0004
     -4141.3444
    -94096.91649    -69658.82348  23525194.3094   23525189.1484
     -1777.3594
   2080722.48149   1619312.00248  21802288.4804   21802284.8834
     -1031.0004
   1799682.45249   1423528.46447  24722868.2544   24722866.2934
     -1745.5474
  -6893607.89649  -5360246.25448  23050727.9104   23050724.2544
      1078.2034
 04  9 16 22 25 15.0040000  0  6G 8G13G19G27G10G28
  -4843526.93349  -3770649.82248  21727159.9494   21727156.6414
        79.0164
  16171858.59749  12593706.23447  23280637.1994   23280633.8794
     -4146.6564
    -67367.48449    -48830.68848  23530280.5354   23530275.5624
     -1786.6094
   2096215.34349   1631384.35748  21805236.6054   21805233.1254
     -1034.7344
   1825928.82549   1443980.15947  24727862.7624   24727860.7154
     -1754.0784
  -6909744.66049  -5372820.33448  23047657.6524   23047653.8794
      1073.2344
 04  9 16 22 25 30.0040000  0  6G 8G13G19G27G10G28
  -4844677.13849  -3771546.08748  21726941.2934   21726938.0194
        74.6884
  16234102.65949  12642208.06747  23292481.4184   23292478.4264
     -4152.3284
    -40494.46649    -27890.67548  23535394.5434   23535389.4924
     -1796.1414
   2111770.18349   1643505.01648  21808196.5194   21808192.4614
     -1038.9374
   1852308.29049   1464535.58547  24732882.9804   24732880.2274
     -1762.8754
  -6925802.23849  -5385332.71148  23044601.6524   23044598.4264
      1067.9844
 04  9 16 22 25 45.0040000  0  6G 8G13G19G27G10G28
  -4845765.99849  -3772394.55148  21726734.1604   21726730.6374
        70.5474
  16296426.99849  12690772.46247  23304342.0044   23304339.3094
     -4157.5164
    -13482.19049     -6842.14648  23540534.6914   23540530.0864
     -1805.4374
   2127382.73349   1655670.63348  21811167.7464   21811164.2384
     -1042.7194
   1878816.41049   1485191.25847  24737926.7074   24737924.8794
     -1771.4844
  -6941785.01549  -5397786.80448  23041559.9884   23041556.7034
      1062.9694
 04  9 16 22 26  0.0040000  0  6G 8G13G19G27G10G28
  -4846791.98949  -3773194.00548  21726538.8714   21726535.6844
        65.7344
  16358832.68149  12739400.25247  23316217.4414   23316213.8204
     -4163.6414
     13670.51949     14315.82148  23545701.6214   23545696.6954
     -1815.3914
   2143054.32649   1667882.26648  21814149.8244   21814146.0824
     -1047.2194
   1905454.28449   1505948.03847  24742996.3244   24742993.6684
     -1780.7194
  -6957691.68049  -5410181.57948  23038533.1914   23038529.3404
      1057.4064
 04  9 16 22 26 15.0040000  0  6G 8G13G19G27G10G28
  -4847751.46749  -3773941.65648  21726356.1374   21726352.8284
        61.5634
  16421322.83249  12788093.85747  23328108.1054   23328105.4264
     -4168.9844
     40967.11249     35585.90048  23550896.1604   23550891.1874
     -1824.7194
   2158788.72449   1680142.84048  21817144.0514   21817140.7384
     -1051.1724
   1932225.13749   1526808.39947  24748090.3324   24748087.7504
     -1789.2814
  -6973518.61949  -5422514.23748  23035521.7544   23035517.9574
      1052.3444
 04  9 16 22 26 30.0040000  0  6G 8G13G19G27G10G28
  -4848646.09049  -3774638.75548  21726186.0824   21726182.3014
        57.3284
  16483895.67949  12836851.89247  23340015.4344   23340013.4144
     -4174.4224
     68405.72049     56966.62748  23556117.9414   23556112.4064
     -1834.1564
   2174584.26149   1692451.05448  21820149.7154   21820146.2194
     -1055.1874
   1959127.21749   1547771.08247  24753209.8164   24753207.7344
     -1798.0004
  -6989267.47249  -5434786.05248  23032524.7854   23032521.1994
      1047.0944
 04  9 16 22 26 45.0040000  0  6G 8G13G19G27G10G28
  -4849476.44249  -3775285.77348  21726028.0434   21726024.6094
        53.4844
  16546550.34949  12885673.68947  23351938.6134   23351936.1414
     -4179.4374
     95985.75149     78457.57648  23561365.9344   23561360.6564
     -1843.1564
   2190440.55149   1704806.60948  21823166.9264   21823163.3324
     -1058.8754
   1986159.76949   1568835.38947  24758353.7384   24758351.8404
     -1806.3444
  -7004938.74549  -5446997.41748  23029542.2624   23029538.9374
      1042.4064
 04  9 16 22 27  0.0040000  0  6G 8G13G19G27G10G28
  -4850244.18149  -3775884.00948  21725882.1604   21725879.2074
        49.2034
  16609284.60049  12934557.50547  23363876.1914   23363874.2814
     -4184.8444
    123705.31249    100057.22648  23566640.9024   23566635.7114
     -1852.5624
   2206355.76549   1717208.05848  21826195.7544   21826191.9224
     -1062.8914
   2013320.60449   1589999.66247  24763522.5354   24763520.2694
     -1814.8594
  -7020534.23549  -5459149.71648  23026574.8244   23026571.1214
      1037.2344
 04  9 16 22 27 15.0040000  0  6G 8G13G19G27G10G28
  -4850950.27249  -3776434.21248  21725747.6444   21725744.3244
        45.1254
  16672097.00949  12983502.21047  23375829.5824   23375827.1334
     -4190.0474
    151563.03049    121764.53548  23571941.9734   23571937.0314
     -1861.7034
   2222328.77349   1729654.55948  21829235.0664   21829231.9304
     -1066.7194
   2040608.40649   1611262.85747  24768714.2694   24768712.5984
     -1823.2974
  -7036055.05549  -5471243.85348  23023621.0594   23023617.4654
      1032.3284
 04  9 16 22 27 30.0040000  0  6G 8G13G19G27G10G28
  -4851592.70549  -3776934.79648  21725625.4574   21725622.1334
        40.5944
  16734989.38149  13032509.22447  23387797.5274   23387794.7544
     -4195.6254
    179560.83449    143581.01048  23577270.0434   23577264.8524
     -1871.3594
   2238361.70849   1742147.75948  21832286.0194   21832282.3364
     -1071.0784
   2068025.01149   1632626.45947  24773932.8164   24773930.4614
     -1832.2194
  -7051499.23549  -5483278.25148  23020682.8014   23020678.9064
      1026.8754
 04  9 16 22 27 45.0040000  0  6G 8G13G19G27G10G28
  -4852172.08649  -3777386.26048  21725514.9414   21725511.6764
        36.7034
  16797960.64949  13081577.72347  23399780.3404   23399778.3634
     -4200.4694
    207697.86649    165505.97448  23582624.3634   23582619.0124
     -1880.2504
   2254454.06549   1754687.26548  21835348.5274   21835345.0744
     -1074.6254
   2095569.48149   1654089.67347  24779173.9104   24779171.3444
     -1840.3444
  -7066867.40749  -5495253.43748  23017757.8094   23017753.8284
      1022.1724
 04  9 16 22 28  0.0040000  0  6G 8G13G19G27G10G28
  -4852690.39849  -3777790.13748  21725416.3014   21725412.9694
        32.5784
  16861008.41649  13130705.82847  23411778.1294   23411776.2034
     -4205.7194
    235971.90449    187537.68548  23588004.6374   23587999.4534
     -1889.4844
   2270603.60449   1767271.31448  21838421.4264   21838417.9064
     -1078.5314
   2123239.37549   1675650.61047  24784439.7464   24784436.8444
     -1848.7974
  -7082161.69849  -5507171.04348  23014847.5274   23014843.9374
      1017.2034
 04  9 16 22 28 15.0040000  0  6G 8G13G19G27G10G28
  -4853142.81049  -3778142.65948  21725330.1374   21725327.1024
        28.1724
  16924137.25949  13179897.11347  23423791.2624   23423788.1524
     -4211.0624
    264387.84849    209679.99048  23593411.4024   23593406.7114
     -1898.8914
   2286815.30949   1779903.81248  21841506.6604   21841503.1214
     -1082.6414
   2151039.42649   1697312.96947  24789729.6134   24789727.7154
     -1857.3754
  -7097377.20249  -5519027.25348  23011951.5044   23011948.0164
      1012.0004
 04  9 16 22 28 30.0040000  0  6G 8G13G19G27G10G28
  -4853531.25649  -3778445.33948  21725256.4264   21725252.6214
        23.9534
  16987344.93649  13229149.81747  23435818.7154   23435816.7154
     -4216.2664
    292943.39249    231931.05748  23598845.4734   23598840.3244
     -1908.1254
   2303087.31349   1792583.29848  21844602.9264   21844599.5784
     -1086.6094
   2178967.35349   1719074.98547  24795043.6604   24795041.6844
     -1865.8914
  -7112515.95249  -5530823.66248  23009070.9964   23009067.2974
      1006.9384
 04  9 16 22 28 45.0040000  0  6G 8G13G19G27G10G28
  -4853855.86249  -3778698.27148  21725194.1844   21725191.4774
        19.4384
  17050630.76549  13278463.43547  23447862.0124   23447859.7304
     -4221.7034
    321638.06749    254290.53448  23604306.4734   23604300.7384
     -1917.6724
   2319419.28549   1805309.50548  21847711.0514   21847707.3794
     -1090.7974
   2207022.57849   1740936.19347  24800382.1914   24800380.6134
     -1874.6094
  -7127578.33749  -5542560.55548  23006204.5744   23006200.5554
      1001.6094
 04  9 16 22 29  0.0040000  0  6G 8G13G19G27G10G28
  -4854116.30749  -3778901.21748  21725145.3094   21725141.7234
        14.9064
  17113994.81649  13327837.99247  23459919.8164   23459917.7194
     -4227.1874
    350472.12149    276758.62948  23609793.3324   23609787.9264
     -1927.2194
   2335811.70649   1818082.81648  21850829.9654   21850826.8324
     -1095.1564
   2235205.26049   1762896.70847  24805745.9574   24805743.6054
     -1883.4064
  -7142563.88649  -5554237.58648  23003353.1214   23003349.1874
       996.0784
 04  9 16 22 29 15.0040000  0  6G 8G13G19G27G10G28
  -4854310.83149  -3779052.78148  21725107.7854   21725104.5554
        11.0634
  17177438.28449  13377274.44847  23471992.6764   23471990.1374
     -4231.9064
    379446.97049    299336.43247  23615307.2234   23615301.7304
     -1936.0004
   2352266.18949   1830904.49648  21853961.3014   21853957.9454
     -1098.7814
   2263516.68749   1784957.53047  24811134.0274   24811131.0944
     -1891.4224
  -7157471.06049  -5565853.54148  23000516.2624   23000512.4614
       991.4694
 04  9 16 22 29 30.0040000  0  6G 8G13G19G27G10G28
  -4854444.95549  -3779157.29248  21725082.3324   21725078.8984
         6.7034
  17240955.43349  13426768.29347  23484080.0124   23484077.7074
     -4237.1414
    408557.03749    322019.58948  23620846.1844   23620840.3124
     -1945.3914
   2368777.25249   1843770.26548  21857103.5514   21857099.9024
     -1102.8594
   2291951.28149   1807114.36347  24816544.5984   24816541.5784
     -1899.9224
  -7172305.24449  -5577412.62348  22997693.0434   22997689.6094
       986.2974
 04  9 16 22 29 45.0040000  0  6G 8G13G19G27G10G28
  -4854513.71349  -3779210.86748  21725069.5824   21725066.0514
         2.5634
  17304550.82849  13476323.12247  23496182.0354   23496179.0664
     -4242.1564
    437806.96249    344811.73648  23626411.8554   23626407.3364
     -1954.4534
   2385349.90149   1856684.00748  21860256.9344   21860253.4694
     -1106.7344
   2320513.47449   1829370.60347  24821979.0044   24821977.0594
     -1908.2504
  -7187061.72249  -5588911.15448  22994885.3014   22994881.5004
       981.3284
 04  9 16 22 30  0.0040000  0  6G 8G13G19G27G10G28
  -4854520.89549  -3779216.45548  21725068.2464   21725064.5514
        -1.6564
  17368220.08549  13525935.50647  23508297.6604   23508295.2974
     -4247.0944
    467192.71649    367709.71848  23632004.4574   23631999.4414
     -1963.6094
   2401980.24749   1869642.72348  21863421.7934   21863418.0594
     -1110.6874
   2349199.18449   1851723.08947  24827437.8244   24827435.8014
     -1916.6564
  -7201744.39849  -5600352.18248  22992091.2384   22992087.3484
       976.2814
 04  9 16 22 30 15.0040000  0  6G 8G13G19G27G10G28
  -4854462.61249  -3779171.03848  21725079.0124   21725075.8674
        -6.2344
  17431966.84249  13575608.27647  23520428.5194   23520425.1994
     -4252.5314
    496718.06349    390716.47248  23637622.3244   23637617.9694
     -1973.1564
   2418672.15349   1882649.39748  21866597.9264   21866594.4304
     -1114.9694
   2378011.94949   1874174.59247  24832921.1604   24832918.4884
     -1925.1564
  -7216349.38349  -5611732.65648  22989311.6994   22989308.4264
       970.9064
 04  9 16 22 30 30.0040000  0  6G 8G13G19G27G10G28
  -4854338.98349  -3779074.70148  21725102.7854   21725098.8324
       -10.2034
  17495790.63149  13625341.07147  23532573.4574   23532570.5664
     -4257.2504
    526382.72449    413831.79048  23643267.8794   23643262.7114
     -1982.0164
   2435425.66649   1895704.08248  21869786.1134   21869782.6994
     -1118.6874
   2406951.51549   1896724.89847  24838427.8324   24838425.2734
     -1933.4224
  -7230876.79049  -5623052.69248  22986547.4964   22986543.8244
       966.0944
 04  9 16 22 30 45.0040000  0  6G 8G13G19G27G10G28
  -4854154.83749  -3778931.20948  21725137.8164   21725134.0234
       -14.5474
  17559686.28549  13675129.85747  23544732.0124   23544729.4144
     -4262.3124
    556181.62249    437051.69748  23648938.7304   23648933.4614
     -1991.3284
   2452235.95049   1908803.00248  21872984.7464   21872981.4264
     -1122.8444
   2436012.71949   1919369.97447  24843957.5514   24843955.8204
     -1941.6874
  -7245331.48749  -5634316.07248  22983797.1994   22983793.3204
       960.9694
 04  9 16 22 31  0.0040000  0  6G 8G13G19G27G10G28
  -4853905.12449  -3778736.61648  21725185.3404   21725181.7114
       -18.8124
  17623658.46049  13724978.26647  23556905.7774   23556903.3364
     -4267.3594
    586119.41149    460379.83548  23654635.2074   23654630.3164
     -2000.3914
   2469107.83449   1921949.93248  21876195.6844   21876191.5864
     -1126.7814
   2465200.08749   1942113.37947  24849512.1134   24849509.8674
     -1949.9534
  -7259708.62749  -5645519.01548  22981061.0664   22981057.1024
       955.9534
 04  9 16 22 31 15.0040000  0  6G 8G13G19G27G10G28
  -4853588.81449  -3778490.13748  21725245.5274   21725242.0784
       -22.9224
  17687707.73849  13774886.77747  23569093.8094   23569092.0514
     -4272.1414
    616197.03949    483816.94648  23660358.8794   23660353.6374
     -2009.4374
   2486042.45249   1935145.74048  21879418.1684   21879414.6374
     -1130.6874
   2494514.35249   1964955.62647  24855090.8094   24855088.2304
     -1958.0944
  -7274007.16949  -5656660.70848  22978339.8164   22978336.1764
       951.0004
 04  9 16 22 31 30.0040000  0  6G 8G13G19G27G10G28
  -4853208.40749  -3778193.70748  21725317.7694   21725314.0824
       -27.9224
  17751831.43349  13824853.26047  23581296.6524   23581293.0554
     -4277.8124
    646411.93949    507361.02148  23666108.5354   23666103.7854
     -2019.2664
   2503037.39849   1948388.56548  21882652.0744   21882648.7114
     -1135.4064
   2523952.84749   1987894.70347  24860692.6914   24860690.2854
     -1967.1564
  -7288229.63749  -5667743.12148  22975633.5354   22975629.9534
       945.2814
 04  9 16 22 31 45.0040000  0  6G 8G13G19G27G10G28
  -4852763.46649  -3777846.99448  21725402.2074   21725398.7424
       -31.7814
  17816029.39449  13874877.60247  23593513.3714   23593510.3364
     -4282.2974
    676763.92949    531011.90347  23671884.6764   23671879.8204
     -2028.0784
   2520092.97749   1961678.61748  21885897.6604   21885894.3094
     -1139.0944
   2553515.61449   2010930.64347  24866319.1374   24866316.3754
     -1974.9224
  -7302375.81949  -5678766.10348  22972942.0514   22972937.6994
       940.5474
 04  9 16 22 32  0.0040000  0  6G 8G13G19G27G10G28
  -4852255.15049  -3777450.90248  21725498.9264   21725495.8404
       -35.8284
  17880300.23149  13924958.75147  23605743.2624   23605740.9264
     -4286.9534
    707251.87149    554768.73147  23677686.1844   23677681.2074
     -2036.8754
   2537207.99149   1975014.98948  21889154.5274   21889150.9774
     -1142.7344
   2583201.13249   2034062.17747  24871967.4574   24871965.3634
     -1982.9224
  -7316446.95649  -5689730.60248  22970264.0904   22970260.0594
       935.8134
 04  9 16 22 32 15.0040000  0  6G 8G13G19G27G10G28
  -4851683.58949  -3777005.53248  21725607.7774   21725604.5084
       -40.1564
  17944643.28849  13975096.17647  23617987.9654   23617984.4534
     -4291.8444
    737875.37249    578631.19147  23683513.1604   23683508.9304
     -2046.0164
   2554382.33949   1988397.60148  21892422.7234   21892419.4144
     -1146.9064
   2613008.89649   2057289.01447  24877639.3554   24877637.6174
     -1991.2344
  -7330443.12349  -5700636.67448  22967600.5904   22967596.9414
       930.6414
 04  9 16 22 32 30.0040000  0  6G 8G13G19G27G10G28
  -4851044.48449  -3776507.51648  21725729.4734   21725726.3554
       -44.7504
  18009062.31449  14025292.79247  23630246.1294   23630243.7234
     -4296.9844
    768638.40949    602602.37247  23689367.6294   23689362.9264
     -2055.4374
   2571620.28949   2001829.76948  21895703.0354   21895699.3284
     -1151.2664
   2642942.80249   2080614.14047  24883335.2624   24883333.3794
     -1999.7814
  -7344360.23049  -5711481.15148  22964952.5904   22964948.9734
       925.2664
 04  9 16 22 32 45.0040000  0  6G 8G13G19G27G10G28
  -4850338.65049  -3775957.51648  21725863.7234   21725860.5824
       -49.0164
  18073556.15449  14075547.69647  23642519.3554   23642515.9494
     -4301.8594
    799539.86449    626681.41648  23695248.0044   23695242.8404
     -2064.4844
   2588920.85649   2015310.73148  21898995.3714   21898991.7974
     -1155.2034
   2673001.63949   2104036.59547  24889055.8014   24889053.1644
     -2007.9534
  -7358199.26549  -5722264.79148  22962319.1444   22962315.3914
       920.2814
 04  9 16 22 33  0.0040000  0  6G 8G13G19G27G10G28
  -4849569.95049  -3775358.51848  21726010.3484   21726006.5904
       -53.6254
  18138120.93149  14125857.89447  23654805.7934   23654801.7464
     -4306.8754
    830576.06049    650865.45448  23701154.0194   23701148.5824
     -2073.8124
   2606280.60049   2028837.81548  21902298.7624   21902295.3164
     -1159.6254
   2703181.64249   2127553.45047  24894798.6604   24894796.2694
     -2016.3124
  -7371963.78449  -5732990.35748  22959699.2774   22959695.9964
       914.8594
 04  9 16 22 33 15.0040000  0  6G 8G13G19G27G10G28
  -4848735.37149  -3774708.19248  21726169.1914   21726166.1054
       -57.7814
  18202758.94349  14176225.13447  23667105.6524   23667102.6644
     -4311.5784
    861749.38549    675156.35347  23707086.2774   23707080.9414
     -2082.7034
   2623702.23449   2042413.10448  21905614.1444   21905611.1414
     -1163.4224
   2733485.07549   2151166.52747  24900565.3244   24900562.9374
     -2024.2504
  -7385651.13749  -5743655.80448  22957094.7854   22957090.9884
       909.9844
 04  9 16 22 33 30.0040000  0  6G 8G13G19G27G10G28
  -4847835.72149  -3774007.15748  21726340.1134   21726336.8594
       -62.0004
  18267469.06549  14226648.57047  23679419.5984   23679416.5514
     -4316.2974
    893058.76849    699553.27347  23713044.0194   23713039.2114
     -2091.5944
   2641184.85049   2056035.92148  21908941.0044   21908937.6134
     -1167.3284
   2763910.93249   2174874.96547  24906355.1444   24906352.9964
     -2032.2814
  -7399262.27549  -5754261.85848  22954504.6764   22954501.0234
       904.9534
 04  9 16 22 33 45.0040000  0  6G 8G13G19G27G10G28
  -4846873.01349  -3773256.99148  21726523.4804   21726520.1024
       -65.8914
  18332248.88649  14277126.33047  23691746.0434   23691744.3444
     -4320.5944
    924502.01349    724054.48547  23719026.8324   23719022.5354
     -2100.2974
   2658726.50249   2069704.74148  21912279.1524   21912275.6484
     -1170.9844
   2794456.82649   2198676.93547  24912168.5274   24912165.8834
     -2039.9374
  -7412799.21749  -5764810.10748  22951928.8324   22951924.7544
       900.4534
 04  9 16 22 34  0.0040000  0  6G 8G13G19G27G10G28
  -4845846.95549  -3772457.46948  21726718.5044   21726714.9574
       -70.5164
  18397098.20949  14327658.23047  23704086.6524   23704084.2384
     -4325.6094
    956079.25649    748660.12847  23725036.3244   23725031.0394
     -2109.5474
   2676327.45549   2083419.76848  21915628.2624   21915624.6954
     -1175.2814
   2825122.63249   2222572.37147  24918003.5824   24918001.3524
     -2048.2974
  -7426261.76249  -5775300.37948  22949366.4574   22949363.2384
       895.0314
 04  9 16 22 34 15.0040000  0  6G 8G13G19G27G10G28
  -4844757.43249  -3771608.47448  21726925.9884   21726922.5624
       -74.6414
  18462016.78149  14378244.10447  23716440.3094   23716437.7854
     -4330.1094
    987790.28049    773370.01647  23731070.5044   23731065.4574
     -2118.3444
   2693987.92949   2097181.18348  21918989.1214   21918985.3054
     -1179.2664
   2855908.16049   2246561.06147  24923861.5904   24923859.3794
     -2056.1724
  -7439649.78949  -5785732.58248  22946818.8244   22946814.9184
       890.1564
 04  9 16 22 34 30.0040000  0  6G 8G13G19G27G10G28
  -4843603.73649  -3770709.48548  21727145.3014   21727142.0864
       -79.2974
  18527005.04249  14428884.28047  23728806.9104   23728805.3164
     -4335.0474
   1019635.64049    798184.57047  23737130.7384   23737126.4804
     -2127.6414
   2711708.58549   2110989.48548  21922361.2854   21922357.4024
     -1183.5474
   2886813.78849   2270643.34747  24929742.5984   24929740.4844
     -2064.5164
  -7452962.70049  -5796106.26148  22944285.4344   22944281.9844
       884.8134
 04  9 16 22 34 45.0040000  0  6G 8G13G19G27G10G28
  -4842382.94649  -3769758.21448  21727377.4734   21727374.1644
       -83.8284
  18592065.46449  14479580.67647  23741186.7384   23741185.4574
     -4339.9534
   1051618.06049    823105.93147  23743216.4574   23743211.9924
     -2136.9064
   2729492.30249   2124846.93448  21925745.2384   21925741.5984
     -1187.8444
   2917842.15649   2294821.28447  24935647.7304   24935645.2504
     -2072.8914
  -7466197.67249  -5806419.19848  22941766.9964   22941763.5124
       879.5474
 04  9 16 22 35  0.0040000  0  6G 8G13G19G27G10G28
  -4841094.37649  -3768754.12848  21727623.1444   21727619.6444
       -88.0314
  18657198.54349  14530333.69347  23753582.0124   23753580.3944
     -4344.4224
   1083738.11949    848134.55347  23749329.0434   23749324.0904
     -2145.7034
   2747340.01649   2138754.24048  21929141.6914   21929138.2234
     -1191.9064
   2948993.78049   2319095.26047  24941575.0274   24941573.2114
     -2080.6874
  -7479353.92049  -5816670.79748  22939264.0194   22939259.9414
       874.5784
 04  9 16 22 35 15.0040000  0  6G 8G13G19G27G10G28
  -4839739.85849  -3767698.65248  21727880.5194   21727877.1214
       -92.6724
  18722401.93349  14581141.49047  23765989.6684   23765987.7274
     -4349.3754
   1115993.51149    873268.62847  23755467.2384   23755461.9414
     -2154.9844
   2765249.54049   2152709.71948  21932549.7304   21932546.4144
     -1196.1874
   2980266.29749   2343463.46947  24947526.4184   24947524.5624
     -2088.9844
  -7492433.54849  -5826862.69248  22936774.3714   22936770.5044
       869.2194
 04  9 16 22 35 30.0040000  0  6G 8G13G19G27G10G28
  -4838319.57849  -3766591.93648  21728151.0824   21728147.7544
       -96.6254
  18787674.94449  14632003.52947  23778411.3714   23778408.7464
     -4353.6254
   1148383.71849    898507.73748  23761630.8164   23761625.6914
     -2163.5944
   2783220.74749   2166713.24748  21935969.2624   21935966.0474
     -1199.9534
   3011659.06249   2367925.34247  24953500.3404   24953498.0984
     -2096.5164
  -7505437.03849  -5836995.26348  22934299.9884   22934295.9884
       864.5634
 04  9 16 22 35 45.0040000  0  6G 8G13G19G27G10G28
  -4836834.26449  -3765434.54848  21728433.6764   21728430.4024
      -101.2504
  18853016.58449  14682919.04947  23790845.0124   23790843.2814
     -4358.4064
   1180907.80249    923851.17648  23767819.6604   23767814.7664
     -2172.8124
   2801252.96049   2180764.32248  21939400.8944   21939397.4224
     -1204.2194
   3043171.03349   2392480.10647  24959496.6524   24959494.5904
     -2104.8444
  -7518364.87249  -5847068.88148  22931839.8634   22931836.0704
       859.2504
 04  9 16 22 36  0.0040000  0  6G 8G13G19G27G10G28
  -4835280.21749  -3764223.58748  21728729.1134   21728726.0274
      -105.6094
  18918429.87549  14733890.42647  23803293.0594   23803290.6254
     -4362.9374
   1213569.21349    949301.63247  23774035.0514   23774030.1914
     -2181.7504
   2819349.72249   2194865.70848  21942844.5594   21942840.6374
     -1208.3594
   3074805.49549   2417130.34347  24965516.8714   24965514.4924
     -2112.7194
  -7531213.59749  -5857080.84748  22929394.6844   22929390.8484
       854.2504
 04  9 16 22 36 15.0040000  0  6G 8G13G19G27G10G28
  -4833661.84649  -3762962.52148  21729037.4734   21729033.9924
      -110.1874
  18983910.08249  14784913.90647  23815752.8794   23815751.4184
     -4367.7194
   1246363.18249    974855.37947  23780275.5274   23780270.2274
     -2190.8914
   2837506.57849   2209013.89548  21946299.8164   21946296.1764
     -1212.6254
   3106557.66849   2441872.27047  24971558.9734   24971557.0984
     -2120.8444
  -7543987.86149  -5867034.79548  22926963.9654   22926959.7814
       848.9694
 04  9 16 22 36 30.0040000  0  6G 8G13G19G27G10G28
  -4831977.22149  -3761649.81248  21729358.2074   21729354.4734
      -114.8754
  19049458.69149  14835990.71847  23828226.6604   23828224.4264
     -4372.4694
   1279291.50949   1000513.81847  23786541.8094   23786536.8674
     -2200.0314
   2855725.58849   2223210.52848  21949766.6684   21949763.3484
     -1217.0004
   3138429.24349   2466707.24547  24977623.7304   24977622.2234
     -2129.1094
  -7556685.75749  -5876929.23548  22924548.0824   22924543.5164
       843.6414
 04  9 16 22 36 45.0040000  0  6G 8G13G19G27G10G28
  -4830223.91049  -3760283.59348  21729691.4344   21729687.9454
      -119.1564
  19115077.93049  14887122.53747  23840713.9884   23840712.1334
     -4376.9534
   1312356.40849   1026278.67347  23792833.4264   23792828.7624
     -2208.8594
   2874009.16849   2237457.48148  21953246.1214   21953243.0434
     -1220.9844
   3170422.30049   2491636.90647  24983711.4104   24983709.7234
     -2136.8124
  -7569304.81849  -5886762.25048  22922146.3244   22922142.2234
       838.7034
 04  9 16 22 37  0.0040000  0  6G 8G13G19G27G10G28
  -4828404.81549  -3758866.11548  21730037.6764   21730034.2624
      -123.7504
  19180764.48649  14938306.83147  23853213.7934   23853211.7894
     -4381.6094
   1345554.68949   1052147.47447  23799150.8324   23799146.4024
     -2217.8914
   2892354.39549   2251752.45948  21956736.7624   21956733.4024
     -1225.3124
   3202533.63549   2516658.68147  24989822.0044   24989820.5234
     -2144.9844
  -7581848.04249  -5896536.16448  22919759.7154   22919755.6874
       833.4224
 04  9 16 22 37 15.0040000  0  6G 8G13G19G27G10G28
  -4826516.70049  -3757394.85048  21730396.6844   21730393.3014
      -127.8444
  19246520.98249  14989545.62747  23865726.3164   23865724.4964
     -4385.7504
   1378889.17949   1078122.40447  23805494.1294   23805488.9374
     -2226.5004
   2910764.35849   2266097.88748  21960240.0824   21960236.6524
     -1229.1564
   3234765.87649   2541774.69547  24995955.8634   24995954.4844
     -2152.5004
  -7594312.42549  -5906248.64348  22917387.3714   22917383.7154
       828.6564
 04  9 16 22 37 30.0040000  0  6G 8G13G19G27G10G28
  -4824562.28349  -3755871.91648  21730768.5744   21730765.5904
      -132.4694
  19312344.43949  15040836.58447  23878252.4494   23878249.8794
     -4390.5474
   1412356.98449   1104201.22247  23811864.0904   23811858.4104
     -2235.6564
   2929236.40149   2280491.68448  21963755.1684   21963751.5084
     -1233.6254
   3267115.99949   2566982.57547  25002111.3634   25002110.4654
     -2160.6564
  -7606700.68149  -5915901.81848  22915030.2774   22915026.4614
       823.2664
 04  9 16 22 37 45.0040000  0  6G 8G13G19G27G10G28
  -4822541.49949  -3754297.27748  21731153.3794   21731149.8014
      -137.0164
  19378234.63549  15092179.56547  23890791.9344   23890789.9144
     -4394.9694
   1445957.97949   1130383.81247  23818256.5904   23818252.1684
     -2244.5784
   2947770.66249   2294933.96848  21967282.1294   21967279.1414
     -1237.7974
   3299583.73049   2592282.09547  25008289.9734   25008288.8094
     -2168.5624
  -7619012.72749  -5925495.60248  22912687.3714   22912683.0354
       818.1254
 04  9 16 22 38  0.0040000  0  6G 8G13G19G27G10G28
  -4820451.25649  -3752668.51248  21731551.0434   21731547.3364
      -141.7034
  19444194.05249  15143576.47847  23903343.6294   23903340.1414
     -4399.6874
   1479694.78349   1156672.24747  23824676.7774   23824671.8794
     -2253.7504
   2966370.14149   2309427.06848  21970821.6604   21970818.3594
     -1242.1724
   3332171.77049   2617675.36947  25014490.7074   25014489.7664
     -2176.5164
  -7631245.75249  -5935027.80148  22910359.3714   22910355.6724
       812.8284
 04  9 16 22 38 15.0040000  0  6G 8G13G19G27G10G28
  -4818291.90749  -3750985.89248  21731962.1214   21731958.2814
      -146.0004
  19510222.15149  15195026.88947  23915907.6764   23915905.8674
     -4403.9224
   1513567.18049   1183066.32148  23831122.6374   23831117.4694
     -2262.4694
   2985034.58049   2323970.78448  21974373.1054   21974369.7274
     -1246.1564
   3364879.68549   2643162.02447  25020715.4414   25020713.7464
     -2184.1414
  -7643400.03449  -5944498.64048  22908046.6294   22908042.2344
       807.9384
 04  9 16 22 38 30.0040000  0  6G 8G13G19G27G10G28
  -4816069.00149  -3749253.75248  21732384.9344   21732381.7894
      -150.4694
  19576312.64449  15246525.94947  23928484.3634   23928481.6174
     -4408.2344
   1547569.10949   1209561.34848  23837592.6294   23837588.3524
     -2271.2194
   3003758.38549   2338560.76748  21977936.5984   21977932.6444
     -1250.3444
   3397701.45749   2668737.39747  25026961.4414   25026959.4924
     -2192.0944
  -7655481.24049  -5953912.55748  22905747.4574   22905743.2074
       802.8134
 04  9 16 22 38 45.0040000  0  6G 8G13G19G27G10G28
  -4813779.44549  -3747469.68148  21732820.5274   21732816.8014
      -154.9224
  19642468.45349  15298075.89047  23941073.4344   23941072.0354
     -4412.6414
   1581703.21049   1236159.35247  23844089.5044   23844083.8674
     -2280.1254
   3022544.40549   2353199.22948  21981511.0514   21981507.5434
     -1254.5944
   3430639.62549   2694403.49647  25033229.5904   25033227.5704
     -2199.7504
  -7667486.71849  -5963267.44648  22903462.9884   22903459.1764
       797.7344
 04  9 16 22 39  0.0040000  0  6G 8G13G19G27G10G28
  -4811419.91049  -3745631.07848  21733269.9264   21733266.2774
      -159.7664
  19708692.54249  15349679.02147  23953675.6604   23953673.2274
     -4417.3594
   1615972.63949   1262862.80247  23850609.7934   23850605.0234
     -2289.2664
   3041396.06849   2367888.83748  21985098.5274   21985095.2154
     -1259.0624
   3463697.18549   2720162.65247  25039519.6294   25039518.2194
     -2207.7034
  -7679412.89149  -5972560.54848  22901193.3794   22901189.4104
       792.2814
 04  9 16 22 39 15.0040000  0  6G 8G13G19G27G10G28
  -4808993.08149  -3743740.03348  21733731.6914   21733728.3834
      -164.4224
  19774981.94849  15401333.08447  23966289.6684   23966287.3524
     -4421.8284
   1650374.77449   1289669.67147  23857155.9104   23857151.8284
     -2298.2504
   3060310.86849   2382627.64548  21988697.7624   21988694.1024
     -1263.4224
   3496871.35249   2746012.60947  25045832.9804   25045830.9224
     -2215.7664
  -7691262.46949  -5981793.95848  22898938.4494   22898935.1724
       787.0474
 04  9 16 22 39 30.0040000  0  6G 8G13G19G27G10G28
  -4806497.62349  -3741795.51648  21734206.3404   21734202.6684
      -168.4694
  19841337.40949  15453038.55647  23978916.1054   23978915.3364
     -4425.6724
   1684910.36349   1316580.52247  23863728.5124   23863723.3094
     -2306.6254
   3079290.04849   2397416.60448  21992309.6134   21992306.1374
     -1267.2664
   3530162.94349   2771954.08547  25052168.5354   25052166.3984
     -2223.2034
  -7703034.40949  -5990966.88748  22896698.4494   22896694.5554
       782.3754
 04  9 16 22 39 45.0040000  0  6G 8G13G19G27G10G28
  -4803938.09849  -3739801.08948  21734693.4734   21734689.8324
      -172.9534
  19907753.92649  15504791.70247  23991555.3944   23991553.1524
     -4429.9224
   1719574.61749   1343591.63748  23870324.4344   23870319.4534
     -2315.3444
   3098329.00949   2412252.15248  21995932.8164   21995928.5664
     -1271.4224
   3563566.89449   2797983.13047  25058525.0594   25058522.9454
     -2230.7664
  -7714733.39749  -6000082.95848  22894471.9654   22894468.0314
       777.3444
 04  9 16 22 40  0.0040000  0  7G 8G13G19G29G27G10G28
  -4801311.88249  -3737754.67348  21735193.5664   21735189.8594
      -177.6094
  19974234.16349  15556594.41947  24004206.0594   24004204.8834
     -4434.4224
   1754370.18349   1370705.07147  23876945.7234   23876941.1054
     -2324.2974
    -93951.69818                  25517220.019
      2151.016
   3117430.54749   2427136.47548  21999567.6444   21999563.6684
     -1275.8124
   3597085.82949   2824101.75047  25064904.9024   25064901.7774
     -2238.6874
  -7726356.43149  -6009139.84048  22892259.8554   22892256.3984
       772.1724
 04  9 16 22 40 15.0040000  0  7G 8G13G19G29G27G10G28
  -4798612.71149  -3735651.41748  21735707.1684   21735703.4344
      -182.1094
  20040783.34149  15608450.87047  24016870.5044   24016868.7504
     -4438.6254
   1789302.45449   1397925.00747  23883593.2854   23883588.2894
     -2333.0474
   -126193.187 9                  25511086.254
      2148.109
   3136600.56149   2442074.15048  22003215.6134   22003211.9804
     -1280.0164
   3630725.12149   2850314.19147  25071304.0824   25071302.9064
     -2246.3754
  -7737897.92449  -6018133.19448  22890063.8714   22890059.8124
       767.0314
 04  9 16 22 40 30.0050000  0  7G 8G13G19G29G27G10G28
  -4795846.94649  -3733496.26748  21736233.5174   21736229.5324
      -186.5624
  20107399.05649  15660359.16447  24029546.6494   24029544.6494
     -4442.9224
   1824367.14249   1425248.15447  23890266.2594   23890260.2984
     -2341.8914
   -158395.37948    -98765.06656  25504957.0564   25504954.7824
      2145.2664
   3155833.75049   2457061.05148  22006875.2904   22006871.2864
     -1284.1874
   3664480.13049   2876616.76947  25077727.9234   25077726.3254
     -2254.0314
  -7749365.28549  -6027068.78648  22887881.8604   22887878.0794
       761.8444
 04  9 16 22 40 45.0050000  0  7G 8G13G19G29G27G10G28
  -4793012.65049  -3731287.72048  21736772.6104   21736769.0524
      -191.5624
  20174074.52649  15712314.06047  24042234.8214   24042232.7864
     -4447.5944
   1859561.87549   1452672.62647  23896963.6184   23896958.0284
     -2351.0474
   -190551.06948   -123821.45346  25498837.5094   25498836.3414
      2141.8134
   3175130.23549   2472097.27348  22010547.4464   22010543.6964
     -1288.9534
   3698348.56949   2903007.74747  25084173.2984   25084171.3374
     -2262.0474
  -7760754.53049  -6035943.50948  22885714.6964   22885710.4464
       756.4064
 04  9 16 22 41  0.0050000  0  7G 8G13G19G29G27G10G28
  -4790104.07549  -3729021.29548  21737325.9854   21737322.2124
      -195.9064
  20240819.43949  15764323.03947  24054936.0564   24054934.4624
     -4451.5164
   1894894.29449   1480204.37448  23903686.6424   23903681.8724
     -2359.6564
   -222656.84849   -148838.91446  25492729.8994   25492726.2474
      2139.1884
   3194496.68749   2487188.01148  22014232.5794   22014228.8174
     -1292.9694
   3732337.91549   2929492.92147  25090641.2984   25090639.1454
     -2269.5004
  -7772060.84449  -6044753.59848  22883563.1494   22883559.2634
       751.4534
 04  9 16 22 41 15.0050000  0  7G 8G13G19G29G27G10G28
  -4787129.27749  -3726703.27248  21737892.0714   21737888.6734
      -200.3754
  20307625.02449  15816379.27247  24067648.6034   24067646.2944
     -4455.6094
   1930355.60049   1507836.55547  23910434.9934   23910430.0134
     -2368.2344
   -254720.71249   -173823.72346  25486628.0324   25486625.5674
      2136.2814
   3213924.74349   2502326.76248  22017929.4464   22017925.9544
     -1297.0784
   3766439.44449   2956065.50947  25097130.2904   25097128.0094
     -2277.0474
  -7783292.68549  -6053505.66248  22881425.7824   22881421.7514
       746.3914
 04  9 16 22 41 30.0050000  0  7G 8G13G19G29G27G10G28
  -4784087.03149  -3724332.67748  21738471.1494   21738467.5714
      -205.1254
  20374492.10349  15868483.47147  24080372.8924   24080370.6534
     -4459.9844
   1965946.88749   1535570.03747  23917207.9384   23917202.5094
     -2377.1724
   -286741.41249   -198774.85546  25480534.8994   25480532.0054
      2133.1094
   3233415.74549   2517514.55048  22021638.5714   22021634.9114
     -1301.6094
   3800653.91149   2982726.08147  25103641.5954   25103639.4814
     -2284.8914
  -7794449.05849  -6062198.91848  22879302.2514   22879298.8924
       741.1254
 04  9 16 22 41 45.0050000  0  7G 8G13G19G29G27G10G28
  -4780974.06349  -3721906.98148  21739063.4544   21739059.7554
      -210.0164
  20441423.64049  15920637.84847  24093110.1264   24093108.2704
     -4464.3444
   2001671.18149   1563407.13847  23924005.6574   23924000.7704
     -2386.1724
   -318715.35649   -223689.54446  25474449.9464   25474447.7944
      2129.9844
   3252972.98849   2532753.95448  22025360.3684   22025356.8214
     -1306.1094
   3834984.39749   3009477.08547  25110174.1734   25110172.4424
     -2292.6874
  -7805526.62649  -6070830.76548  22877194.0404   22877190.5094
       735.7664
 04  9 16 22 42  0.0050000  0  7G 8G13G19G29G27G10G28
  -4777792.34549  -3719427.70748  21739668.9234   21739665.2784
      -214.3594
  20508417.33549  15972840.69147  24105858.8134   24105856.0324
     -4468.1724
   2037526.35449   1591346.24347  23930828.7124   23930823.9464
     -2394.6564
   -350644.09249   -248569.09146  25468373.6494   25468371.9854
      2127.1094
   3272594.56449   2548043.50348  22029094.0714   22029090.4384
     -1310.1724
   3869428.61749   3036316.73147  25116728.9934   25116726.9074
     -2300.0004
  -7816527.36249  -6079402.74248  22875101.2124   22875097.1454
       730.8284
 04  9 16 22 42 15.0050000  0  7G 8G13G19G29G27G10G28
  -4774539.68149  -3716893.16148  21740287.7594   21740284.5914
      -219.1414
  20575474.96149  16025093.35547  24118618.8134   24118617.3644
     -4472.5624
   2073514.23249   1619388.74247  23937676.9384   23937672.0404
     -2403.5624
   -382525.45349   -273411.63946  25462307.6884   25462304.5914
      2123.9384
   3292282.70849   2563384.92248  22032840.6344   22032837.5564
     -1314.6724
   3903988.34049   3063246.35547  25123305.1104   25123302.6184
     -2307.7974
  -7827449.16849  -6087913.23248  22873022.7354   22873018.8454
       725.5634
 04  9 16 22 42 30.0050000  0  7G 8G13G19G29G27G10G28
  -4771218.17349  -3714304.97348  21740919.8454   21740916.3254
      -223.7344
  20642593.77549  16077393.68147  24131391.6034   24131389.3454
     -4476.5784
   2109632.25749   1647532.64347  23944550.3064   23944544.9894
     -2412.1724
   -414361.52249   -298218.99546  25456250.5324   25456246.8134
      2120.8134
   3312035.05149   2578776.35248  22036599.4544   22036596.0364
     -1319.0004
   3938660.95949   3090263.98047  25129902.8994   25129900.7944
     -2315.3124
  -7838294.39149  -6096364.03948  22870959.0794   22870955.1654
       720.4844
 04  9 16 22 42 45.0050000  0  7G 8G13G19G29G27G10G28
  -4767827.78649  -3711663.11348  21741564.7284   21741561.5994
      -228.5164
  20709773.50649  16129741.45047  24144175.2824   24144173.3684
     -4480.8284
   2145880.28949   1675777.86547  23951447.7434   23951443.1304
     -2421.0004
   -446151.92849   -322990.71446  25450199.3924   25450197.3134
      2117.6414
   3331851.61949   2594217.83348  22040370.3844   22040366.5794
     -1323.3914
   3973446.16849   3117369.29847  25136522.0794   25136520.5564
     -2322.9224
  -7849063.13949  -6104755.24748  22868909.9784   22868905.7084
       715.1564
 04  9 16 22 43  0.0050000  0  7G 8G13G19G29G27G10G28
  -4764367.44749  -3708966.73648  21742223.6264   21742220.0954
      -233.0164
  20777015.06449  16182137.45347  24156971.0634   24156968.7594
     -4484.8914
   2182259.21949   1704125.08547  23958370.2204   23958365.5054
     -2429.6414
   -477895.11649   -347725.63246  25444159.0404   25444156.4354
      2114.6254
   3351733.82149   2609710.46148  22044153.7204   22044150.3804
     -1327.6724
   4008344.82049   3144563.05447  25143163.9154   25143161.4354
     -2330.3124
  -7859754.15449  -6113085.89748  22866875.5404   22866871.1774
       710.0784
 04  9 16 22 43 15.0050000  0  7G 8G13G19G29G27G10G28
  -4760839.09049  -3706217.35948  21742894.8924   21742891.2244
      -237.3594
  20844316.13049  16234579.80647  24169777.5244   24169775.3564
     -4488.6254
   2218766.80049   1732572.52547  23965317.4934   23965312.2124
     -2438.0314
   -509593.10649   -372425.31446  25438126.8134   25438124.4814
      2111.9064
   3371679.47649   2625252.52048  22047949.3684   22047945.5954
     -1331.7034
   4043354.57449   3171843.35947  25149825.1424   25149822.6344
     -2337.6564
  -7870369.61149  -6121357.66648  22864855.7204   22864851.0874
       705.3284
 04  9 16 22 43 30.0050000  0  7G 8G13G19G29G27G10G28
  -4757243.97049  -3703415.97248  21743579.2514   21743575.4314
      -241.7034
  20911674.82449  16287067.05047  24182595.8604   24182593.8954
     -4492.2814
   2255401.42349   1761118.99547  23972288.9074   23972283.8764
     -2446.3124
   -541246.92049   -397090.58646  25432103.3214   25432101.2204
      2108.9384
   3391687.42349   2640843.13748  22051756.8604   22051753.4584
     -1335.7504
   4078473.64549   3199208.86747  25156508.5634   25156506.0134
     -2344.7194
  -7880910.87449  -6129571.61748  22862849.8454   22862845.1184
       700.4534
 04  9 16 22 43 45.0050000  0  7G 8G13G19G29G27G10G28
  -4753579.62749  -3700560.62448  21744276.3604   21744272.5524
      -246.9374
  20979093.10749  16339600.72647  24195425.2514   24195423.4704
     -4496.8594
   2292165.23749   1789766.11448  23979284.9314   23979279.8924
     -2455.5004
   -572853.99949   -421719.49946  25426088.9384   25426086.2554
      2105.3444
   3411759.98149   2656484.08948  22055576.3294   22055573.0014
     -1340.6254
   4113704.09149   3226661.16947  25163212.4934   25163209.8294
     -2352.6724
  -7891375.79949  -6137726.09248  22860858.0484   22860854.2864
       694.8134
 04  9 16 22 44  0.0050000  0  7G 8G13G19G29G27G10G28
  -4749842.96449  -3697648.93848  21744987.5244   21744983.6574
      -251.4694
  21046573.72149  16392183.00347  24208266.8764   24208264.4504
     -4500.7504
   2329061.03549   1818516.08747  23986306.5564   23986301.3024
     -2464.0784
   -604411.07749   -446309.39647  25420083.5714   25420081.2984
      2102.1564
   3431900.28349   2672177.83148  22059409.1344   22059405.4034
     -1344.9064
   4149048.61249   3254202.35747  25169938.9704   25169936.6694
     -2360.0474
  -7901761.23749  -6145818.62148  22858881.5954   22858877.5914
       689.7664
 04  9 16 22 44 15.0050000  0  7G 8G13G19G29G27G10G28
  -4746035.51849  -3694682.08448  21745711.8684   21745708.5914
      -256.1414
  21114114.71049  16444812.30247  24221118.9074   24221116.2554
     -4504.6724
   2366086.99949   1847367.47447  23993352.0174   23993347.3684
     -2472.6874
   -635919.34949   -470861.25447  25414087.6104   25414085.4384
      2098.9384
   3452106.71049   2687923.10148  22063254.2514   22063250.7904
     -1349.2664
   4184505.26449   3281830.89247  25176685.5954   25176683.6454
     -2367.4374
  -7912068.73949  -6153850.42048  22856920.1034   22856916.3724
       684.5944
 04  9 16 22 44 30.0050000  0  7G 8G13G19G29G27G10G28
  -4742156.02849  -3691659.11248  21746450.1814   21746446.7594
      -260.7504
  21181716.84049  16497489.24047  24233983.8064   24233981.5244
     -4508.5474
   2403244.08549   1876321.03947  24000422.4624   24000417.8564
     -2481.1874
   -667377.55849   -495374.11347  25408101.7354   25408099.3724
      2095.8444
   3472380.52249   2703720.86948  22067112.0714   22067108.7354
     -1353.5314
   4220074.89649   3309547.47447  25183453.9464   25183451.4784
     -2374.6414
  -7922297.20249  -6161820.62548  22854973.8604   22854970.1814
       679.5004
 04  9 16 22 44 45.0050000  0  7G 8G13G19G29G27G10G28
  -4738207.23449  -3688582.12148  21747201.3684   21747197.9584
      -265.5314
  21249377.14749  16550211.50547  24246858.7674   24246856.8104
     -4512.5474
   2440529.25649   1905374.40647  24007517.2744   24007512.5244
     -2489.8914
   -698788.06949   -519849.82547  25402125.1814   25402121.6964
      2092.4384
   3492718.98749   2719569.02448  22070982.3374   22070978.9814
     -1357.9694
   4255754.46849   3337349.72647  25190243.8994   25190241.0634
     -2382.2034
  -7932449.59749  -6169731.57548  22853041.9934   22853037.6694
       674.3444
 04  9 16 22 45  0.0050000  0  7G 8G13G19G29G27G10G28
  -4734187.03549  -3685449.49748  21747966.5014   21747963.2594
      -270.4534
  21317097.24049  16602980.35747  24259745.9234   24259743.6064
     -4516.7344
   2477944.24049   1934528.94347  24014637.6884   24014632.6924
     -2498.6724
   -730148.85949   -544286.79447  25396156.3994   25396154.2864
      2088.9384
   3513124.07949   2735469.08848  22074865.1344   22074861.4664
     -1362.6724
   4291545.46949   3365238.80647  25197055.7674   25197052.5174
     -2389.8124
  -7942523.98549  -6177581.71848  22851124.9784   22851120.4744
       668.9694
 04  9 16 22 45 15.0050000  0  7G 8G13G19G29G27G10G28
  -4730095.86549  -3682261.56448  21748745.1184   21748741.9854
      -274.9224
  21384876.23849  16655795.15347  24272643.1654   24272641.2514
     -4520.4374
   2515488.32449   1963784.07247  24021781.9074   24021777.0174
     -2507.0784
   -761460.02949   -568685.06247  25390197.9624   25390195.9234
      2085.8754
   3533595.37349   2751420.74248  22078760.8064   22078757.3334
     -1366.7814
   4327447.26549   3393214.22047  25203887.7904   25203884.9384
     -2396.9224
  -7952520.84049  -6185371.46648  22849222.7984   22849218.2004
       664.0314
 04  9 16 22 45 30.0050000  0  7G 8G13G19G29G27G10G28
  -4725935.81949  -3679019.96948  21749536.7514   21749533.1494
      -279.5164
  21452711.92749  16708654.04147  24285552.7824   24285549.7784
     -4524.1874
   2553159.24849   1993138.03147  24028950.4314   24028945.3924
     -2515.4374
   -792723.22949   -593045.99347  25384248.9784   25384246.2824
      2082.7814
   3554131.08349   2767422.60148  22082668.5174   22082665.2284
     -1371.0624
   4363457.58449   3421274.20247  25210739.6574   25210737.3374
     -2404.0784
  -7962442.18749  -6193102.36048  22847334.4314   22847330.2674
       659.0474
 04  9 16 22 45 45.0050000  0  7G 8G13G19G29G27G10G28
  -4721705.97349  -3675723.96948  21750341.4314   21750338.5874
      -284.4064
  21520604.63849  16761557.44247  24298471.1034   24298469.4114
     -4528.1254
   2590957.62249   2022591.30247  24036143.2354   24036138.7124
     -2524.2194
   -823937.44249   -617368.74747  25378309.2354   25378306.7164
      2079.2974
   3574731.93249   2783475.20348  22086588.8764   22086585.0874
     -1375.6564
   4399576.73249   3449418.99647  25217612.0094   25217610.5204
     -2411.6254
  -7972287.31549  -6200773.87748  22845461.1344   22845457.4934
       653.7344
 04  9 16 22 46  0.0050000  0  7G 8G13G19G29G27G10G28
  -4717405.00049  -3672372.56848  21751159.9384   21751156.6694
      -288.7664
  21588555.30849  16814505.95347  24311402.8064   24311400.8494
     -4531.5944
   2628884.37349   2052144.61047  24043361.2824   24043355.5284
     -2532.3914
   -855101.38049   -641652.29947  25372378.9704   25372376.4114
      2076.1884
   3595399.17549   2799579.55048  22090522.0794   22090518.0204
     -1379.6564
   4435805.68749   3477649.31547  25224506.7594   25224504.0484
     -2418.6094
  -7982055.01149  -6208385.04348  22843601.9784   22843598.0564
       648.9694
 04  9 16 22 46 15.0050000  0  7G 8G13G19G29G27G10G28
  -4713036.58849  -3668968.60048  21751991.1734   21751987.9624
      -293.5784
  21656559.52949  16867496.20747  24324342.5324   24324341.5874
     -4535.4694
   2666935.44549   2081794.79547  24050602.0094   24050596.3254
     -2540.9694
   -886218.58449   -665899.45347  25366457.3454   25366454.9154
      2072.7664
   3616129.07049   2815732.72148  22094466.2434   22094462.8414
     -1384.2814
   4472140.21549   3505961.93447  25231421.3764   25231419.0174
     -2426.0474
  -7991749.17149  -6215938.91548  22841757.4314   22841753.4384
       643.6884
 04  9 16 22 46 30.0050000  0  7G 8G13G19G29G27G10G28
  -4708597.84649  -3665509.83848  21752835.8374   21752832.2784
      -298.2814
  21724619.71549  16920530.07047  24337294.4154   24337292.7554
     -4539.2034
   2705113.31149   2111543.77647  24057866.3994   24057861.4664
     -2549.3444
   -917285.96149   -690107.78447  25360545.1494   25360542.9584
      2069.5164
   3636924.30549   2831936.78348  22098423.6184   22098419.9854
     -1388.5004
   4508582.69449   3534358.66947  25238355.3604   25238353.8804
     -2433.0784
  -8001367.06249  -6223433.36048  22839927.0324   22839923.1924
       638.7344
 04  9 16 22 46 45.0050000  0  7G 8G13G19G29G27G10G28
  -4704087.29349  -3661995.11448  21753694.2124   21753690.9744
      -302.6564
  21792737.04849  16973608.48847  24350256.8994   24350254.9704
     -4542.6414
   2743419.06149   2141392.40847  24065156.2594   24065151.2314
     -2557.6094
   -948301.97349   -714276.06747  25354642.6494   25354640.6494
      2066.4534
   3657786.35849   2848192.92948  22102393.4314   22102390.0714
     -1392.6414
   4545134.13949   3562840.29347  25245311.2904   25245309.3684
     -2439.9844
  -8010907.43849  -6230867.40348  22838111.7824   22838107.6734
       633.8134
 04  9 16 22 47  0.0050000  0  7G 8G13G19G29G27G10G28
  -4699504.62149  -3658424.20048  21754566.3134   21754562.9424
      -308.0944
  21860911.53149  17026731.40547  24363230.3214   24363228.5174
     -4547.0164
   2781852.84349   2171340.81547  24072469.8064   24072464.5604
     -2566.6874
   -979266.01149   -738403.88747  25348751.0324   25348748.8534
      2062.4224
   3678715.61049   2864501.43248  22106376.3134   22106372.7554
     -1397.7034
   4581794.58649   3591406.86047  25252288.1574   25252285.7944
     -2447.7974
  -8020369.95049  -6238240.78248  22836311.3844   22836306.7244
       628.0474
 04  9 16 22 47 15.0050000  0  7G 8G13G19G29G27G10G28
  -4694849.89149  -3654797.13848  21755452.1574   21755448.9854
      -312.7814
  21929142.86749  17079898.64047  24376214.1964   24376211.7244
     -4550.6724
   2820414.57749   2201388.91747  24079807.5564   24079802.7594
     -2575.0474
  -1010177.55149   -762490.77647  25342868.8994   25342866.4624
      2058.9224
   3699712.39649   2880862.55248  22110372.0714   22110368.6304
     -1402.1564
   4618563.91849   3620058.25347  25259283.6654   25259282.9034
     -2454.9694
  -8029754.55649  -6245553.44948  22834525.2904   22834520.6614
       623.0634
 04  9 16 22 47 30.0050000  0  7G 8G13G19G29G27G10G28
  -4690125.65849  -3651115.91748  21756351.0794   21756347.3994
      -317.3124
  21997427.84149  17133107.65947  24389207.9074   24389206.9314
     -4554.1874
   2859101.05249   2231534.21647  24087169.3764   24087164.5054
     -2583.3124
  -1041039.34449   -786538.89147  25336995.7204   25336992.8954
      2055.6884
   3720773.74849   2897273.99248  22114379.9704   22114376.3564
     -1406.2814
   4655438.84049   3648791.94647  25266301.4784   25266300.0014
     -2461.8284
  -8039064.15949  -6252807.66648  22832753.4074   22832749.2314
       618.1564
 04  9 16 22 47 45.0050000  0  7G 8G13G19G29G27G10G28
  -4685328.77849  -3647378.08548  21757264.2354   21757260.2514
      -322.1254
  22065769.19949  17186360.60547  24402214.2594   24402211.9784
     -4557.9224
   2897915.10249   2261778.92647  24094555.1964   24094550.9854
     -2591.7194
  -1071848.08949   -810545.69647  25331132.4384   25331130.4234
      2052.2974
   3741902.69249   2913738.10248  22118400.5014   22118397.1814
     -1410.7504
   4692422.06749   3677609.98647  25273339.3844   25273337.2704
     -2469.0624
  -8048295.79549  -6260001.13148  22830996.9384   22830992.2864
       612.9534
 04  9 16 22 48  0.0050000  0  7G 8G13G19G29G27G10G28
  -4680459.67149  -3643583.97348  21758190.4704   21758186.9784
      -327.2664
  22134166.21349  17239656.94847  24415228.7044   24415226.9504
     -4561.8914
   2936856.27549   2292122.69047  24101965.5564   24101960.8924
     -2600.5314
  -1102603.76549   -834511.13047  25325280.2904   25325278.0794
      2048.3284
   3763099.16649   2930254.84148  22122434.0634   22122430.6064
     -1415.6254
   4729512.87249   3706511.93947  25280396.6184   25280395.4194
     -2476.4534
  -8057449.74549  -6267134.05348  22829255.1814   22829250.9894
       607.4694
 04  9 16 22 48 15.0050000  0  7G 8G13G19G29G27G10G28
  -4675513.71849  -3639729.97648  21759131.7594   21759128.3884
      -332.5784
  22202623.14849  17292999.95547  24428256.1964   24428254.1654
     -4566.0474
   2975928.78049   2322568.79547  24109400.3994   24109395.8644
     -2609.4844
  -1133301.70649   -858431.57647  25319438.8374   25319436.4464
      2044.3444
   3784367.67649   2946827.69948  22126481.2434   22126477.6424
     -1420.5164
   4766715.52149   3735500.96747  25287476.5714   25287475.1884
     -2484.2034
  -8066521.65249  -6274203.05448  22827528.9384   22827525.0634
       601.7814
